<?xml version="1.0" encoding="UTF-8" standalone="no" ?>
<gpx xmlns="http://www.topografix.com/GPX/1/1" xmlns:xsi="http://www.w3.org/2001/XMLSchema-instance" xsi:schemaLocation="http://www.topografix.com/GPX/1/1 http://www.topografix.com/GPX/1/1/gpx.xsd" version="1.1" creator="VisuGPX - https://www.visugpx.com">
  <metadata>
    <name>Pignan 2019 41km 790m</name>
  </metadata>
  <trk>
    <name><![CDATA[Tracé actuel: 08 SEPT 2019 07:24]]></name>
    <extensions>
      <line xmlns="http://www.topografix.com/GPX/gpx_style/0/2">
        <color>0000FF</color>
        <width>4</width>
      </line>
    </extensions>
    <trkseg>
      <trkpt lat="43.58147" lon="3.76137">
        <ele>44.3</ele>
        <time>2019-09-08T05:26:29Z</time>
      </trkpt>
      <trkpt lat="43.58117" lon="3.76113">
        <ele>44</ele>
        <time>2019-09-08T05:26:39Z</time>
      </trkpt>
      <trkpt lat="43.58114" lon="3.7611">
        <ele>44</ele>
        <time>2019-09-08T05:26:40Z</time>
      </trkpt>
      <trkpt lat="43.58103" lon="3.761">
        <ele>44.1</ele>
        <time>2019-09-08T05:26:43Z</time>
      </trkpt>
      <trkpt lat="43.58078" lon="3.76081">
        <ele>44.1</ele>
        <time>2019-09-08T05:26:50Z</time>
      </trkpt>
      <trkpt lat="43.5807" lon="3.76073">
        <ele>44.2</ele>
        <time>2019-09-08T05:26:52Z</time>
      </trkpt>
      <trkpt lat="43.58004" lon="3.76015">
        <ele>44.6</ele>
        <time>2019-09-08T05:27:08Z</time>
      </trkpt>
      <trkpt lat="43.58" lon="3.76011">
        <ele>44.4</ele>
        <time>2019-09-08T05:27:09Z</time>
      </trkpt>
      <trkpt lat="43.57978" lon="3.75993">
        <ele>43.1</ele>
        <time>2019-09-08T05:27:14Z</time>
      </trkpt>
      <trkpt lat="43.57977" lon="3.75978">
        <ele>42.7</ele>
        <time>2019-09-08T05:27:18Z</time>
      </trkpt>
      <trkpt lat="43.5798" lon="3.75975">
        <ele>42.9</ele>
        <time>2019-09-08T05:27:19Z</time>
      </trkpt>
      <trkpt lat="43.57982" lon="3.75972">
        <ele>43.1</ele>
        <time>2019-09-08T05:27:20Z</time>
      </trkpt>
      <trkpt lat="43.57985" lon="3.75969">
        <ele>43.3</ele>
        <time>2019-09-08T05:27:21Z</time>
      </trkpt>
      <trkpt lat="43.58012" lon="3.75934">
        <ele>44.4</ele>
        <time>2019-09-08T05:27:37Z</time>
      </trkpt>
      <trkpt lat="43.58057" lon="3.75889">
        <ele>45.2</ele>
        <time>2019-09-08T05:27:53Z</time>
      </trkpt>
      <trkpt lat="43.58064" lon="3.75876">
        <ele>45.8</ele>
        <time>2019-09-08T05:27:56Z</time>
      </trkpt>
      <trkpt lat="43.58067" lon="3.75872">
        <ele>46</ele>
        <time>2019-09-08T05:27:57Z</time>
      </trkpt>
      <trkpt lat="43.5807" lon="3.75869">
        <ele>46.2</ele>
        <time>2019-09-08T05:27:58Z</time>
      </trkpt>
      <trkpt lat="43.58094" lon="3.75845">
        <ele>46.4</ele>
        <time>2019-09-08T05:28:05Z</time>
      </trkpt>
      <trkpt lat="43.58103" lon="3.75832">
        <ele>46.4</ele>
        <time>2019-09-08T05:28:08Z</time>
      </trkpt>
      <trkpt lat="43.5816" lon="3.75775">
        <ele>47.7</ele>
        <time>2019-09-08T05:28:25Z</time>
      </trkpt>
      <trkpt lat="43.5819" lon="3.75746">
        <ele>47.1</ele>
        <time>2019-09-08T05:28:34Z</time>
      </trkpt>
      <trkpt lat="43.58193" lon="3.75742">
        <ele>47.3</ele>
        <time>2019-09-08T05:28:35Z</time>
      </trkpt>
      <trkpt lat="43.58223" lon="3.75718">
        <ele>48.2</ele>
        <time>2019-09-08T05:28:45Z</time>
      </trkpt>
      <trkpt lat="43.58222" lon="3.75714">
        <ele>48.3</ele>
        <time>2019-09-08T05:28:46Z</time>
      </trkpt>
      <trkpt lat="43.58221" lon="3.7571">
        <ele>48.4</ele>
        <time>2019-09-08T05:28:47Z</time>
      </trkpt>
      <trkpt lat="43.58218" lon="3.75707">
        <ele>48.5</ele>
        <time>2019-09-08T05:28:48Z</time>
      </trkpt>
      <trkpt lat="43.58215" lon="3.75704">
        <ele>48.5</ele>
        <time>2019-09-08T05:28:49Z</time>
      </trkpt>
      <trkpt lat="43.58211" lon="3.75701">
        <ele>48.5</ele>
        <time>2019-09-08T05:28:50Z</time>
      </trkpt>
      <trkpt lat="43.58208" lon="3.75699">
        <ele>48.4</ele>
        <time>2019-09-08T05:28:51Z</time>
      </trkpt>
      <trkpt lat="43.58116" lon="3.75639">
        <ele>47</ele>
        <time>2019-09-08T05:29:12Z</time>
      </trkpt>
      <trkpt lat="43.58027" lon="3.75581">
        <ele>46.2</ele>
        <time>2019-09-08T05:29:31Z</time>
      </trkpt>
      <trkpt lat="43.58009" lon="3.75569">
        <ele>47</ele>
        <time>2019-09-08T05:29:35Z</time>
      </trkpt>
      <trkpt lat="43.58005" lon="3.75566">
        <ele>47</ele>
        <time>2019-09-08T05:29:36Z</time>
      </trkpt>
      <trkpt lat="43.57936" lon="3.75515">
        <ele>47.3</ele>
        <time>2019-09-08T05:29:53Z</time>
      </trkpt>
      <trkpt lat="43.57911" lon="3.7549">
        <ele>46.8</ele>
        <time>2019-09-08T05:30:04Z</time>
      </trkpt>
      <trkpt lat="43.57879" lon="3.75458">
        <ele>46.5</ele>
        <time>2019-09-08T05:30:15Z</time>
      </trkpt>
      <trkpt lat="43.57798" lon="3.75374">
        <ele>44</ele>
        <time>2019-09-08T05:30:35Z</time>
      </trkpt>
      <trkpt lat="43.57783" lon="3.75357">
        <ele>44.1</ele>
        <time>2019-09-08T05:30:39Z</time>
      </trkpt>
      <trkpt lat="43.57779" lon="3.75354">
        <ele>44.3</ele>
        <time>2019-09-08T05:30:40Z</time>
      </trkpt>
      <trkpt lat="43.57776" lon="3.75349">
        <ele>44.4</ele>
        <time>2019-09-08T05:30:41Z</time>
      </trkpt>
      <trkpt lat="43.57769" lon="3.7534">
        <ele>44.4</ele>
        <time>2019-09-08T05:30:43Z</time>
      </trkpt>
      <trkpt lat="43.57766" lon="3.75336">
        <ele>44.5</ele>
        <time>2019-09-08T05:30:44Z</time>
      </trkpt>
      <trkpt lat="43.57758" lon="3.75328">
        <ele>44.2</ele>
        <time>2019-09-08T05:30:46Z</time>
      </trkpt>
      <trkpt lat="43.57735" lon="3.75276">
        <ele>44</ele>
        <time>2019-09-08T05:30:56Z</time>
      </trkpt>
      <trkpt lat="43.57736" lon="3.75274">
        <ele>43.9</ele>
        <time>2019-09-08T05:30:57Z</time>
      </trkpt>
      <trkpt lat="43.57757" lon="3.75258">
        <ele>43.9</ele>
        <time>2019-09-08T05:31:04Z</time>
      </trkpt>
      <trkpt lat="43.57771" lon="3.75236">
        <ele>44.4</ele>
        <time>2019-09-08T05:31:09Z</time>
      </trkpt>
      <trkpt lat="43.57781" lon="3.75203">
        <ele>45.6</ele>
        <time>2019-09-08T05:31:15Z</time>
      </trkpt>
      <trkpt lat="43.57812" lon="3.7514">
        <ele>47.5</ele>
        <time>2019-09-08T05:31:30Z</time>
      </trkpt>
      <trkpt lat="43.57805" lon="3.75111">
        <ele>46</ele>
        <time>2019-09-08T05:31:38Z</time>
      </trkpt>
      <trkpt lat="43.57807" lon="3.75106">
        <ele>46.3</ele>
        <time>2019-09-08T05:31:39Z</time>
      </trkpt>
      <trkpt lat="43.57837" lon="3.75038">
        <ele>48</ele>
        <time>2019-09-08T05:31:55Z</time>
      </trkpt>
      <trkpt lat="43.57856" lon="3.74986">
        <ele>48.8</ele>
        <time>2019-09-08T05:32:07Z</time>
      </trkpt>
      <trkpt lat="43.57842" lon="3.74958">
        <ele>48.3</ele>
        <time>2019-09-08T05:32:14Z</time>
      </trkpt>
      <trkpt lat="43.5782" lon="3.74937">
        <ele>48</ele>
        <time>2019-09-08T05:32:20Z</time>
      </trkpt>
      <trkpt lat="43.57803" lon="3.74929">
        <ele>47.9</ele>
        <time>2019-09-08T05:32:24Z</time>
      </trkpt>
      <trkpt lat="43.57802" lon="3.74904">
        <ele>47.9</ele>
        <time>2019-09-08T05:32:32Z</time>
      </trkpt>
      <trkpt lat="43.57804" lon="3.74901">
        <ele>47.9</ele>
        <time>2019-09-08T05:32:33Z</time>
      </trkpt>
      <trkpt lat="43.57846" lon="3.74824">
        <ele>49.2</ele>
        <time>2019-09-08T05:32:54Z</time>
      </trkpt>
      <trkpt lat="43.57878" lon="3.74764">
        <ele>51.1</ele>
        <time>2019-09-08T05:33:11Z</time>
      </trkpt>
      <trkpt lat="43.57916" lon="3.74719">
        <ele>53.1</ele>
        <time>2019-09-08T05:33:28Z</time>
      </trkpt>
      <trkpt lat="43.57957" lon="3.74688">
        <ele>56.3</ele>
        <time>2019-09-08T05:33:47Z</time>
      </trkpt>
      <trkpt lat="43.57955" lon="3.74658">
        <ele>58</ele>
        <time>2019-09-08T05:33:57Z</time>
      </trkpt>
      <trkpt lat="43.57928" lon="3.746">
        <ele>59.4</ele>
        <time>2019-09-08T05:34:17Z</time>
      </trkpt>
      <trkpt lat="43.57906" lon="3.74547">
        <ele>60.4</ele>
        <time>2019-09-08T05:34:32Z</time>
      </trkpt>
      <trkpt lat="43.57875" lon="3.74486">
        <ele>62.3</ele>
        <time>2019-09-08T05:34:51Z</time>
      </trkpt>
      <trkpt lat="43.57835" lon="3.74413">
        <ele>63.1</ele>
        <time>2019-09-08T05:35:11Z</time>
      </trkpt>
      <trkpt lat="43.57815" lon="3.74369">
        <ele>61.4</ele>
        <time>2019-09-08T05:35:21Z</time>
      </trkpt>
      <trkpt lat="43.57812" lon="3.74364">
        <ele>61.1</ele>
        <time>2019-09-08T05:35:22Z</time>
      </trkpt>
      <trkpt lat="43.57802" lon="3.74342">
        <ele>59.6</ele>
        <time>2019-09-08T05:35:26Z</time>
      </trkpt>
      <trkpt lat="43.57798" lon="3.74338">
        <ele>59.2</ele>
        <time>2019-09-08T05:35:27Z</time>
      </trkpt>
      <trkpt lat="43.57727" lon="3.74255">
        <ele>57.7</ele>
        <time>2019-09-08T05:35:45Z</time>
      </trkpt>
      <trkpt lat="43.5772" lon="3.74247">
        <ele>58.5</ele>
        <time>2019-09-08T05:35:47Z</time>
      </trkpt>
      <trkpt lat="43.57716" lon="3.74244">
        <ele>58</ele>
        <time>2019-09-08T05:35:48Z</time>
      </trkpt>
      <trkpt lat="43.57713" lon="3.7424">
        <ele>57.8</ele>
        <time>2019-09-08T05:35:49Z</time>
      </trkpt>
      <trkpt lat="43.5771" lon="3.74237">
        <ele>57.7</ele>
        <time>2019-09-08T05:35:50Z</time>
      </trkpt>
      <trkpt lat="43.57707" lon="3.74234">
        <ele>57.8</ele>
        <time>2019-09-08T05:35:51Z</time>
      </trkpt>
      <trkpt lat="43.57693" lon="3.74217">
        <ele>59.7</ele>
        <time>2019-09-08T05:35:59Z</time>
      </trkpt>
      <trkpt lat="43.57694" lon="3.74212">
        <ele>59.6</ele>
        <time>2019-09-08T05:36:01Z</time>
      </trkpt>
      <trkpt lat="43.57708" lon="3.74199">
        <ele>58</ele>
        <time>2019-09-08T05:36:06Z</time>
      </trkpt>
      <trkpt lat="43.57726" lon="3.74193">
        <ele>56.9</ele>
        <time>2019-09-08T05:36:12Z</time>
      </trkpt>
      <trkpt lat="43.57731" lon="3.74165">
        <ele>59.6</ele>
        <time>2019-09-08T05:36:25Z</time>
      </trkpt>
      <trkpt lat="43.57732" lon="3.74134">
        <ele>62.1</ele>
        <time>2019-09-08T05:36:38Z</time>
      </trkpt>
      <trkpt lat="43.57731" lon="3.7411">
        <ele>65</ele>
        <time>2019-09-08T05:36:49Z</time>
      </trkpt>
      <trkpt lat="43.57735" lon="3.74086">
        <ele>67.8</ele>
        <time>2019-09-08T05:37:00Z</time>
      </trkpt>
      <trkpt lat="43.57742" lon="3.74062">
        <ele>70.1</ele>
        <time>2019-09-08T05:37:12Z</time>
      </trkpt>
      <trkpt lat="43.57748" lon="3.74031">
        <ele>74.6</ele>
        <time>2019-09-08T05:37:27Z</time>
      </trkpt>
      <trkpt lat="43.57748" lon="3.74024">
        <ele>75.7</ele>
        <time>2019-09-08T05:37:30Z</time>
      </trkpt>
      <trkpt lat="43.57748" lon="3.73997">
        <ele>79.4</ele>
        <time>2019-09-08T05:37:42Z</time>
      </trkpt>
      <trkpt lat="43.57748" lon="3.73975">
        <ele>81.7</ele>
        <time>2019-09-08T05:37:52Z</time>
      </trkpt>
      <trkpt lat="43.57748" lon="3.73973">
        <ele>81.9</ele>
        <time>2019-09-08T05:37:53Z</time>
      </trkpt>
      <trkpt lat="43.57754" lon="3.73965">
        <ele>82.5</ele>
        <time>2019-09-08T05:37:58Z</time>
      </trkpt>
      <trkpt lat="43.57758" lon="3.73961">
        <ele>82.8</ele>
        <time>2019-09-08T05:38:01Z</time>
      </trkpt>
      <trkpt lat="43.57758" lon="3.73927">
        <ele>86.6</ele>
        <time>2019-09-08T05:38:17Z</time>
      </trkpt>
      <trkpt lat="43.57757" lon="3.7389">
        <ele>88.9</ele>
        <time>2019-09-08T05:38:33Z</time>
      </trkpt>
      <trkpt lat="43.5775" lon="3.73838">
        <ele>90.8</ele>
        <time>2019-09-08T05:38:51Z</time>
      </trkpt>
      <trkpt lat="43.57744" lon="3.73791">
        <ele>90.8</ele>
        <time>2019-09-08T05:39:05Z</time>
      </trkpt>
      <trkpt lat="43.57756" lon="3.73697">
        <ele>91.6</ele>
        <time>2019-09-08T05:39:26Z</time>
      </trkpt>
      <trkpt lat="43.5777" lon="3.73633">
        <ele>94</ele>
        <time>2019-09-08T05:39:43Z</time>
      </trkpt>
      <trkpt lat="43.57779" lon="3.73585">
        <ele>97.1</ele>
        <time>2019-09-08T05:39:59Z</time>
      </trkpt>
      <trkpt lat="43.57789" lon="3.73544">
        <ele>98.9</ele>
        <time>2019-09-08T05:40:13Z</time>
      </trkpt>
      <trkpt lat="43.5779" lon="3.73538">
        <ele>99.3</ele>
        <time>2019-09-08T05:40:15Z</time>
      </trkpt>
      <trkpt lat="43.57784" lon="3.73521">
        <ele>99.7</ele>
        <time>2019-09-08T05:40:21Z</time>
      </trkpt>
      <trkpt lat="43.57784" lon="3.73476">
        <ele>102.2</ele>
        <time>2019-09-08T05:40:36Z</time>
      </trkpt>
      <trkpt lat="43.57781" lon="3.73454">
        <ele>102.9</ele>
        <time>2019-09-08T05:40:45Z</time>
      </trkpt>
      <trkpt lat="43.57781" lon="3.73442">
        <ele>103.4</ele>
        <time>2019-09-08T05:40:50Z</time>
      </trkpt>
      <trkpt lat="43.5778" lon="3.73438">
        <ele>103.6</ele>
        <time>2019-09-08T05:40:52Z</time>
      </trkpt>
      <trkpt lat="43.57779" lon="3.734">
        <ele>105.6</ele>
        <time>2019-09-08T05:41:06Z</time>
      </trkpt>
      <trkpt lat="43.57774" lon="3.73362">
        <ele>106.8</ele>
        <time>2019-09-08T05:41:19Z</time>
      </trkpt>
      <trkpt lat="43.57773" lon="3.73325">
        <ele>106</ele>
        <time>2019-09-08T05:41:30Z</time>
      </trkpt>
      <trkpt lat="43.57778" lon="3.73321">
        <ele>106</ele>
        <time>2019-09-08T05:41:34Z</time>
      </trkpt>
      <trkpt lat="43.57812" lon="3.73328">
        <ele>107</ele>
        <time>2019-09-08T05:41:47Z</time>
      </trkpt>
      <trkpt lat="43.5783" lon="3.73341">
        <ele>107</ele>
        <time>2019-09-08T05:41:54Z</time>
      </trkpt>
      <trkpt lat="43.57845" lon="3.73316">
        <ele>106</ele>
        <time>2019-09-08T05:42:03Z</time>
      </trkpt>
      <trkpt lat="43.57851" lon="3.73267">
        <ele>104.8</ele>
        <time>2019-09-08T05:42:13Z</time>
      </trkpt>
      <trkpt lat="43.57863" lon="3.73274">
        <ele>104.8</ele>
        <time>2019-09-08T05:42:18Z</time>
      </trkpt>
      <trkpt lat="43.57887" lon="3.73355">
        <ele>104.1</ele>
        <time>2019-09-08T05:42:34Z</time>
      </trkpt>
      <trkpt lat="43.57898" lon="3.73394">
        <ele>103.1</ele>
        <time>2019-09-08T05:42:43Z</time>
      </trkpt>
      <trkpt lat="43.57908" lon="3.7342">
        <ele>102.2</ele>
        <time>2019-09-08T05:42:48Z</time>
      </trkpt>
      <trkpt lat="43.5792" lon="3.73445">
        <ele>99.5</ele>
        <time>2019-09-08T05:42:54Z</time>
      </trkpt>
      <trkpt lat="43.57948" lon="3.73487">
        <ele>93.6</ele>
        <time>2019-09-08T05:43:04Z</time>
      </trkpt>
      <trkpt lat="43.57951" lon="3.73493">
        <ele>93.3</ele>
        <time>2019-09-08T05:43:05Z</time>
      </trkpt>
      <trkpt lat="43.57959" lon="3.73501">
        <ele>91.4</ele>
        <time>2019-09-08T05:43:07Z</time>
      </trkpt>
      <trkpt lat="43.57975" lon="3.73521">
        <ele>88</ele>
        <time>2019-09-08T05:43:13Z</time>
      </trkpt>
      <trkpt lat="43.57988" lon="3.73536">
        <ele>86.7</ele>
        <time>2019-09-08T05:43:18Z</time>
      </trkpt>
      <trkpt lat="43.57995" lon="3.73549">
        <ele>84.2</ele>
        <time>2019-09-08T05:43:21Z</time>
      </trkpt>
      <trkpt lat="43.58004" lon="3.73585">
        <ele>80.6</ele>
        <time>2019-09-08T05:43:28Z</time>
      </trkpt>
      <trkpt lat="43.58007" lon="3.73606">
        <ele>80.6</ele>
        <time>2019-09-08T05:43:33Z</time>
      </trkpt>
      <trkpt lat="43.58011" lon="3.73612">
        <ele>80.2</ele>
        <time>2019-09-08T05:43:35Z</time>
      </trkpt>
      <trkpt lat="43.58018" lon="3.73635">
        <ele>78.1</ele>
        <time>2019-09-08T05:43:40Z</time>
      </trkpt>
      <trkpt lat="43.58022" lon="3.73646">
        <ele>76.3</ele>
        <time>2019-09-08T05:43:42Z</time>
      </trkpt>
      <trkpt lat="43.58027" lon="3.7368">
        <ele>73.3</ele>
        <time>2019-09-08T05:43:48Z</time>
      </trkpt>
      <trkpt lat="43.58031" lon="3.73694">
        <ele>72.5</ele>
        <time>2019-09-08T05:43:51Z</time>
      </trkpt>
      <trkpt lat="43.58043" lon="3.73719">
        <ele>69.9</ele>
        <time>2019-09-08T05:43:56Z</time>
      </trkpt>
      <trkpt lat="43.58051" lon="3.7375">
        <ele>67.3</ele>
        <time>2019-09-08T05:44:02Z</time>
      </trkpt>
      <trkpt lat="43.58056" lon="3.73759">
        <ele>66.7</ele>
        <time>2019-09-08T05:44:04Z</time>
      </trkpt>
      <trkpt lat="43.58066" lon="3.73784">
        <ele>67</ele>
        <time>2019-09-08T05:44:12Z</time>
      </trkpt>
      <trkpt lat="43.58068" lon="3.73786">
        <ele>67.2</ele>
        <time>2019-09-08T05:44:13Z</time>
      </trkpt>
      <trkpt lat="43.5807" lon="3.73786">
        <ele>67.3</ele>
        <time>2019-09-08T05:44:14Z</time>
      </trkpt>
      <trkpt lat="43.58071" lon="3.73784">
        <ele>67.3</ele>
        <time>2019-09-08T05:44:15Z</time>
      </trkpt>
      <trkpt lat="43.58072" lon="3.7378">
        <ele>67.3</ele>
        <time>2019-09-08T05:44:16Z</time>
      </trkpt>
      <trkpt lat="43.58073" lon="3.73777">
        <ele>67.2</ele>
        <time>2019-09-08T05:44:17Z</time>
      </trkpt>
      <trkpt lat="43.581" lon="3.73762">
        <ele>68.5</ele>
        <time>2019-09-08T05:44:28Z</time>
      </trkpt>
      <trkpt lat="43.58152" lon="3.7375">
        <ele>67.5</ele>
        <time>2019-09-08T05:44:46Z</time>
      </trkpt>
      <trkpt lat="43.5818" lon="3.73724">
        <ele>69</ele>
        <time>2019-09-08T05:45:00Z</time>
      </trkpt>
      <trkpt lat="43.58171" lon="3.73693">
        <ele>74</ele>
        <time>2019-09-08T05:45:15Z</time>
      </trkpt>
      <trkpt lat="43.58179" lon="3.73677">
        <ele>76.5</ele>
        <time>2019-09-08T05:45:23Z</time>
      </trkpt>
      <trkpt lat="43.58194" lon="3.73664">
        <ele>78.5</ele>
        <time>2019-09-08T05:45:33Z</time>
      </trkpt>
      <trkpt lat="43.58224" lon="3.73643">
        <ele>79.8</ele>
        <time>2019-09-08T05:45:49Z</time>
      </trkpt>
      <trkpt lat="43.58231" lon="3.73616">
        <ele>80.1</ele>
        <time>2019-09-08T05:45:58Z</time>
      </trkpt>
      <trkpt lat="43.58238" lon="3.73613">
        <ele>78.3</ele>
        <time>2019-09-08T05:46:03Z</time>
      </trkpt>
      <trkpt lat="43.58253" lon="3.73631">
        <ele>73.6</ele>
        <time>2019-09-08T05:46:11Z</time>
      </trkpt>
      <trkpt lat="43.58256" lon="3.73632">
        <ele>73.5</ele>
        <time>2019-09-08T05:46:12Z</time>
      </trkpt>
      <trkpt lat="43.58259" lon="3.73632">
        <ele>73.5</ele>
        <time>2019-09-08T05:46:13Z</time>
      </trkpt>
      <trkpt lat="43.58261" lon="3.73632">
        <ele>73.5</ele>
        <time>2019-09-08T05:46:14Z</time>
      </trkpt>
      <trkpt lat="43.58264" lon="3.73629">
        <ele>73.5</ele>
        <time>2019-09-08T05:46:18Z</time>
      </trkpt>
      <trkpt lat="43.58264" lon="3.73627">
        <ele>73.5</ele>
        <time>2019-09-08T05:46:19Z</time>
      </trkpt>
      <trkpt lat="43.58263" lon="3.73625">
        <ele>73.5</ele>
        <time>2019-09-08T05:46:20Z</time>
      </trkpt>
      <trkpt lat="43.58263" lon="3.73589">
        <ele>72.8</ele>
        <time>2019-09-08T05:46:33Z</time>
      </trkpt>
      <trkpt lat="43.58254" lon="3.73567">
        <ele>73.7</ele>
        <time>2019-09-08T05:46:42Z</time>
      </trkpt>
      <trkpt lat="43.58249" lon="3.73543">
        <ele>74.3</ele>
        <time>2019-09-08T05:46:51Z</time>
      </trkpt>
      <trkpt lat="43.58246" lon="3.73508">
        <ele>74.3</ele>
        <time>2019-09-08T05:47:01Z</time>
      </trkpt>
      <trkpt lat="43.5826" lon="3.73498">
        <ele>75.4</ele>
        <time>2019-09-08T05:47:52Z</time>
      </trkpt>
      <trkpt lat="43.58269" lon="3.73515">
        <ele>75.4</ele>
        <time>2019-09-08T05:47:58Z</time>
      </trkpt>
      <trkpt lat="43.58277" lon="3.73527">
        <ele>74.1</ele>
        <time>2019-09-08T05:48:05Z</time>
      </trkpt>
      <trkpt lat="43.58283" lon="3.73545">
        <ele>74.6</ele>
        <time>2019-09-08T05:48:12Z</time>
      </trkpt>
      <trkpt lat="43.58288" lon="3.73566">
        <ele>74.8</ele>
        <time>2019-09-08T05:48:17Z</time>
      </trkpt>
      <trkpt lat="43.58287" lon="3.73578">
        <ele>73.9</ele>
        <time>2019-09-08T05:48:19Z</time>
      </trkpt>
      <trkpt lat="43.58283" lon="3.73589">
        <ele>72.8</ele>
        <time>2019-09-08T05:48:21Z</time>
      </trkpt>
      <trkpt lat="43.58281" lon="3.73601">
        <ele>72.7</ele>
        <time>2019-09-08T05:48:23Z</time>
      </trkpt>
      <trkpt lat="43.58269" lon="3.73633">
        <ele>73.5</ele>
        <time>2019-09-08T05:48:29Z</time>
      </trkpt>
      <trkpt lat="43.58266" lon="3.73638">
        <ele>73.6</ele>
        <time>2019-09-08T05:48:30Z</time>
      </trkpt>
      <trkpt lat="43.58264" lon="3.73644">
        <ele>73.4</ele>
        <time>2019-09-08T05:48:31Z</time>
      </trkpt>
      <trkpt lat="43.58262" lon="3.73648">
        <ele>73.2</ele>
        <time>2019-09-08T05:48:32Z</time>
      </trkpt>
      <trkpt lat="43.58261" lon="3.73652">
        <ele>72.9</ele>
        <time>2019-09-08T05:48:33Z</time>
      </trkpt>
      <trkpt lat="43.58261" lon="3.73654">
        <ele>72.8</ele>
        <time>2019-09-08T05:48:34Z</time>
      </trkpt>
      <trkpt lat="43.58262" lon="3.73657">
        <ele>72.9</ele>
        <time>2019-09-08T05:48:35Z</time>
      </trkpt>
      <trkpt lat="43.58263" lon="3.73659">
        <ele>73</ele>
        <time>2019-09-08T05:48:36Z</time>
      </trkpt>
      <trkpt lat="43.58264" lon="3.73661">
        <ele>73.1</ele>
        <time>2019-09-08T05:48:37Z</time>
      </trkpt>
      <trkpt lat="43.58265" lon="3.73664">
        <ele>73.3</ele>
        <time>2019-09-08T05:48:38Z</time>
      </trkpt>
      <trkpt lat="43.58266" lon="3.73667">
        <ele>73.5</ele>
        <time>2019-09-08T05:48:39Z</time>
      </trkpt>
      <trkpt lat="43.58266" lon="3.7367">
        <ele>73.5</ele>
        <time>2019-09-08T05:48:40Z</time>
      </trkpt>
      <trkpt lat="43.58266" lon="3.73673">
        <ele>73.6</ele>
        <time>2019-09-08T05:48:41Z</time>
      </trkpt>
      <trkpt lat="43.58266" lon="3.73676">
        <ele>73.6</ele>
        <time>2019-09-08T05:48:42Z</time>
      </trkpt>
      <trkpt lat="43.58265" lon="3.7368">
        <ele>73.5</ele>
        <time>2019-09-08T05:48:43Z</time>
      </trkpt>
      <trkpt lat="43.58265" lon="3.73683">
        <ele>73.6</ele>
        <time>2019-09-08T05:48:44Z</time>
      </trkpt>
      <trkpt lat="43.58256" lon="3.7373">
        <ele>72.7</ele>
        <time>2019-09-08T05:48:56Z</time>
      </trkpt>
      <trkpt lat="43.58248" lon="3.7374">
        <ele>72.1</ele>
        <time>2019-09-08T05:49:01Z</time>
      </trkpt>
      <trkpt lat="43.58219" lon="3.73773">
        <ele>73.2</ele>
        <time>2019-09-08T05:49:15Z</time>
      </trkpt>
      <trkpt lat="43.58206" lon="3.73779">
        <ele>72.4</ele>
        <time>2019-09-08T05:49:20Z</time>
      </trkpt>
      <trkpt lat="43.58198" lon="3.73791">
        <ele>73.3</ele>
        <time>2019-09-08T05:49:25Z</time>
      </trkpt>
      <trkpt lat="43.58178" lon="3.73823">
        <ele>75</ele>
        <time>2019-09-08T05:49:41Z</time>
      </trkpt>
      <trkpt lat="43.58168" lon="3.7385">
        <ele>75.7</ele>
        <time>2019-09-08T05:49:50Z</time>
      </trkpt>
      <trkpt lat="43.5817" lon="3.73862">
        <ele>76.4</ele>
        <time>2019-09-08T05:49:57Z</time>
      </trkpt>
      <trkpt lat="43.58197" lon="3.7389">
        <ele>79.2</ele>
        <time>2019-09-08T05:50:11Z</time>
      </trkpt>
      <trkpt lat="43.5821" lon="3.73914">
        <ele>81.6</ele>
        <time>2019-09-08T05:50:22Z</time>
      </trkpt>
      <trkpt lat="43.58224" lon="3.73938">
        <ele>84</ele>
        <time>2019-09-08T05:50:35Z</time>
      </trkpt>
      <trkpt lat="43.58226" lon="3.73944">
        <ele>84.8</ele>
        <time>2019-09-08T05:50:38Z</time>
      </trkpt>
      <trkpt lat="43.58238" lon="3.73974">
        <ele>88.6</ele>
        <time>2019-09-08T05:50:54Z</time>
      </trkpt>
      <trkpt lat="43.58234" lon="3.73983">
        <ele>90.6</ele>
        <time>2019-09-08T05:51:01Z</time>
      </trkpt>
      <trkpt lat="43.58239" lon="3.73998">
        <ele>93</ele>
        <time>2019-09-08T05:51:09Z</time>
      </trkpt>
      <trkpt lat="43.58246" lon="3.74007">
        <ele>94.2</ele>
        <time>2019-09-08T05:51:16Z</time>
      </trkpt>
      <trkpt lat="43.5825" lon="3.74001">
        <ele>93.1</ele>
        <time>2019-09-08T05:51:20Z</time>
      </trkpt>
      <trkpt lat="43.58254" lon="3.73978">
        <ele>88.2</ele>
        <time>2019-09-08T05:51:26Z</time>
      </trkpt>
      <trkpt lat="43.58261" lon="3.73972">
        <ele>87</ele>
        <time>2019-09-08T05:51:30Z</time>
      </trkpt>
      <trkpt lat="43.58276" lon="3.73954">
        <ele>85</ele>
        <time>2019-09-08T05:51:39Z</time>
      </trkpt>
      <trkpt lat="43.58279" lon="3.73949">
        <ele>84.6</ele>
        <time>2019-09-08T05:51:40Z</time>
      </trkpt>
      <trkpt lat="43.5829" lon="3.73921">
        <ele>85.6</ele>
        <time>2019-09-08T05:51:48Z</time>
      </trkpt>
      <trkpt lat="43.58296" lon="3.73921">
        <ele>86.4</ele>
        <time>2019-09-08T05:51:53Z</time>
      </trkpt>
      <trkpt lat="43.58301" lon="3.73931">
        <ele>86.5</ele>
        <time>2019-09-08T05:51:58Z</time>
      </trkpt>
      <trkpt lat="43.58311" lon="3.73938">
        <ele>87.3</ele>
        <time>2019-09-08T05:52:04Z</time>
      </trkpt>
      <trkpt lat="43.58322" lon="3.73951">
        <ele>88.5</ele>
        <time>2019-09-08T05:52:11Z</time>
      </trkpt>
      <trkpt lat="43.58323" lon="3.73962">
        <ele>88.7</ele>
        <time>2019-09-08T05:52:15Z</time>
      </trkpt>
      <trkpt lat="43.58323" lon="3.73974">
        <ele>89.1</ele>
        <time>2019-09-08T05:52:19Z</time>
      </trkpt>
      <trkpt lat="43.58318" lon="3.73981">
        <ele>89.3</ele>
        <time>2019-09-08T05:52:23Z</time>
      </trkpt>
      <trkpt lat="43.58322" lon="3.73999">
        <ele>91.5</ele>
        <time>2019-09-08T05:52:33Z</time>
      </trkpt>
      <trkpt lat="43.58316" lon="3.74017">
        <ele>94.2</ele>
        <time>2019-09-08T05:52:43Z</time>
      </trkpt>
      <trkpt lat="43.58314" lon="3.74026">
        <ele>95.7</ele>
        <time>2019-09-08T05:52:53Z</time>
      </trkpt>
      <trkpt lat="43.58315" lon="3.74028">
        <ele>96</ele>
        <time>2019-09-08T05:52:56Z</time>
      </trkpt>
      <trkpt lat="43.58319" lon="3.74033">
        <ele>96.7</ele>
        <time>2019-09-08T05:53:00Z</time>
      </trkpt>
      <trkpt lat="43.58315" lon="3.74059">
        <ele>99.5</ele>
        <time>2019-09-08T05:53:13Z</time>
      </trkpt>
      <trkpt lat="43.5831" lon="3.74078">
        <ele>100.6</ele>
        <time>2019-09-08T05:53:22Z</time>
      </trkpt>
      <trkpt lat="43.58294" lon="3.74124">
        <ele>101.2</ele>
        <time>2019-09-08T05:53:36Z</time>
      </trkpt>
      <trkpt lat="43.58294" lon="3.74129">
        <ele>101.1</ele>
        <time>2019-09-08T05:53:37Z</time>
      </trkpt>
      <trkpt lat="43.58253" lon="3.74203">
        <ele>97.3</ele>
        <time>2019-09-08T05:53:50Z</time>
      </trkpt>
      <trkpt lat="43.58243" lon="3.74216">
        <ele>96.4</ele>
        <time>2019-09-08T05:53:52Z</time>
      </trkpt>
      <trkpt lat="43.58215" lon="3.74257">
        <ele>93.7</ele>
        <time>2019-09-08T05:53:58Z</time>
      </trkpt>
      <trkpt lat="43.58199" lon="3.74261">
        <ele>93.3</ele>
        <time>2019-09-08T05:54:03Z</time>
      </trkpt>
      <trkpt lat="43.58172" lon="3.74245">
        <ele>93.5</ele>
        <time>2019-09-08T05:54:13Z</time>
      </trkpt>
      <trkpt lat="43.58169" lon="3.74248">
        <ele>93.2</ele>
        <time>2019-09-08T05:54:14Z</time>
      </trkpt>
      <trkpt lat="43.58139" lon="3.74244">
        <ele>93.4</ele>
        <time>2019-09-08T05:54:22Z</time>
      </trkpt>
      <trkpt lat="43.58116" lon="3.74227">
        <ele>92.5</ele>
        <time>2019-09-08T05:54:29Z</time>
      </trkpt>
      <trkpt lat="43.58103" lon="3.74218">
        <ele>91.6</ele>
        <time>2019-09-08T05:54:32Z</time>
      </trkpt>
      <trkpt lat="43.58076" lon="3.74208">
        <ele>89.3</ele>
        <time>2019-09-08T05:54:38Z</time>
      </trkpt>
      <trkpt lat="43.5806" lon="3.74221">
        <ele>88.3</ele>
        <time>2019-09-08T05:54:45Z</time>
      </trkpt>
      <trkpt lat="43.58047" lon="3.74257">
        <ele>87.3</ele>
        <time>2019-09-08T05:54:52Z</time>
      </trkpt>
      <trkpt lat="43.58041" lon="3.74308">
        <ele>87.4</ele>
        <time>2019-09-08T05:55:00Z</time>
      </trkpt>
      <trkpt lat="43.58043" lon="3.74333">
        <ele>87.6</ele>
        <time>2019-09-08T05:55:04Z</time>
      </trkpt>
      <trkpt lat="43.58062" lon="3.74368">
        <ele>88</ele>
        <time>2019-09-08T05:55:11Z</time>
      </trkpt>
      <trkpt lat="43.58101" lon="3.74393">
        <ele>87.2</ele>
        <time>2019-09-08T05:55:20Z</time>
      </trkpt>
      <trkpt lat="43.58108" lon="3.74413">
        <ele>86.1</ele>
        <time>2019-09-08T05:55:26Z</time>
      </trkpt>
      <trkpt lat="43.58101" lon="3.74432">
        <ele>85.1</ele>
        <time>2019-09-08T05:55:30Z</time>
      </trkpt>
      <trkpt lat="43.58087" lon="3.74466">
        <ele>84.1</ele>
        <time>2019-09-08T05:55:39Z</time>
      </trkpt>
      <trkpt lat="43.58084" lon="3.7447">
        <ele>84.1</ele>
        <time>2019-09-08T05:55:40Z</time>
      </trkpt>
      <trkpt lat="43.58057" lon="3.74508">
        <ele>82.4</ele>
        <time>2019-09-08T05:55:50Z</time>
      </trkpt>
      <trkpt lat="43.58066" lon="3.74537">
        <ele>80</ele>
        <time>2019-09-08T05:55:56Z</time>
      </trkpt>
      <trkpt lat="43.58092" lon="3.74572">
        <ele>76.7</ele>
        <time>2019-09-08T05:56:06Z</time>
      </trkpt>
      <trkpt lat="43.58093" lon="3.74575">
        <ele>76.5</ele>
        <time>2019-09-08T05:56:07Z</time>
      </trkpt>
      <trkpt lat="43.58093" lon="3.74578">
        <ele>76.2</ele>
        <time>2019-09-08T05:56:08Z</time>
      </trkpt>
      <trkpt lat="43.58092" lon="3.74581">
        <ele>75.8</ele>
        <time>2019-09-08T05:56:09Z</time>
      </trkpt>
      <trkpt lat="43.58091" lon="3.74584">
        <ele>75.3</ele>
        <time>2019-09-08T05:56:10Z</time>
      </trkpt>
      <trkpt lat="43.58089" lon="3.74588">
        <ele>74.6</ele>
        <time>2019-09-08T05:56:11Z</time>
      </trkpt>
      <trkpt lat="43.58088" lon="3.74591">
        <ele>74.2</ele>
        <time>2019-09-08T05:56:12Z</time>
      </trkpt>
      <trkpt lat="43.58087" lon="3.74596">
        <ele>73.5</ele>
        <time>2019-09-08T05:56:13Z</time>
      </trkpt>
      <trkpt lat="43.58086" lon="3.74601">
        <ele>72.8</ele>
        <time>2019-09-08T05:56:14Z</time>
      </trkpt>
      <trkpt lat="43.58077" lon="3.74635">
        <ele>70.2</ele>
        <time>2019-09-08T05:56:21Z</time>
      </trkpt>
      <trkpt lat="43.58074" lon="3.74641">
        <ele>69.9</ele>
        <time>2019-09-08T05:56:24Z</time>
      </trkpt>
      <trkpt lat="43.58068" lon="3.74644">
        <ele>69.6</ele>
        <time>2019-09-08T05:56:28Z</time>
      </trkpt>
      <trkpt lat="43.58061" lon="3.74637">
        <ele>70.2</ele>
        <time>2019-09-08T05:56:33Z</time>
      </trkpt>
      <trkpt lat="43.58037" lon="3.74614">
        <ele>71.5</ele>
        <time>2019-09-08T05:56:47Z</time>
      </trkpt>
      <trkpt lat="43.58018" lon="3.74578">
        <ele>73.2</ele>
        <time>2019-09-08T05:57:00Z</time>
      </trkpt>
      <trkpt lat="43.57996" lon="3.74526">
        <ele>74.4</ele>
        <time>2019-09-08T05:57:14Z</time>
      </trkpt>
      <trkpt lat="43.57984" lon="3.74499">
        <ele>74.2</ele>
        <time>2019-09-08T05:57:20Z</time>
      </trkpt>
      <trkpt lat="43.57977" lon="3.74486">
        <ele>73.8</ele>
        <time>2019-09-08T05:57:23Z</time>
      </trkpt>
      <trkpt lat="43.57963" lon="3.74492">
        <ele>71.2</ele>
        <time>2019-09-08T05:57:31Z</time>
      </trkpt>
      <trkpt lat="43.57952" lon="3.74497">
        <ele>69.3</ele>
        <time>2019-09-08T05:57:39Z</time>
      </trkpt>
      <trkpt lat="43.57962" lon="3.74506">
        <ele>70.1</ele>
        <time>2019-09-08T05:57:46Z</time>
      </trkpt>
      <trkpt lat="43.57956" lon="3.74521">
        <ele>68.2</ele>
        <time>2019-09-08T06:01:55Z</time>
      </trkpt>
      <trkpt lat="43.57965" lon="3.7455">
        <ele>67.4</ele>
        <time>2019-09-08T06:02:04Z</time>
      </trkpt>
      <trkpt lat="43.57963" lon="3.74558">
        <ele>66.4</ele>
        <time>2019-09-08T06:02:06Z</time>
      </trkpt>
      <trkpt lat="43.57954" lon="3.74573">
        <ele>63.9</ele>
        <time>2019-09-08T06:02:14Z</time>
      </trkpt>
      <trkpt lat="43.57952" lon="3.74565">
        <ele>64.3</ele>
        <time>2019-09-08T06:02:16Z</time>
      </trkpt>
      <trkpt lat="43.5795" lon="3.74557">
        <ele>64.7</ele>
        <time>2019-09-08T06:02:18Z</time>
      </trkpt>
      <trkpt lat="43.57943" lon="3.7454">
        <ele>64.9</ele>
        <time>2019-09-08T06:02:24Z</time>
      </trkpt>
      <trkpt lat="43.5794" lon="3.7452">
        <ele>66.1</ele>
        <time>2019-09-08T06:02:31Z</time>
      </trkpt>
      <trkpt lat="43.57923" lon="3.74507">
        <ele>65.2</ele>
        <time>2019-09-08T06:02:37Z</time>
      </trkpt>
      <trkpt lat="43.57901" lon="3.74464">
        <ele>66.6</ele>
        <time>2019-09-08T06:02:48Z</time>
      </trkpt>
      <trkpt lat="43.57882" lon="3.74424">
        <ele>67.7</ele>
        <time>2019-09-08T06:02:59Z</time>
      </trkpt>
      <trkpt lat="43.57869" lon="3.74423">
        <ele>66.5</ele>
        <time>2019-09-08T06:03:04Z</time>
      </trkpt>
      <trkpt lat="43.57867" lon="3.7442">
        <ele>66.8</ele>
        <time>2019-09-08T06:03:05Z</time>
      </trkpt>
      <trkpt lat="43.57866" lon="3.74417">
        <ele>67.3</ele>
        <time>2019-09-08T06:03:06Z</time>
      </trkpt>
      <trkpt lat="43.57866" lon="3.74414">
        <ele>67.6</ele>
        <time>2019-09-08T06:03:07Z</time>
      </trkpt>
      <trkpt lat="43.57866" lon="3.7441">
        <ele>68.1</ele>
        <time>2019-09-08T06:03:08Z</time>
      </trkpt>
      <trkpt lat="43.57867" lon="3.74407">
        <ele>68.5</ele>
        <time>2019-09-08T06:03:09Z</time>
      </trkpt>
      <trkpt lat="43.5789" lon="3.74361">
        <ele>73.1</ele>
        <time>2019-09-08T06:03:24Z</time>
      </trkpt>
      <trkpt lat="43.57922" lon="3.74343">
        <ele>76</ele>
        <time>2019-09-08T06:03:38Z</time>
      </trkpt>
      <trkpt lat="43.57922" lon="3.7434">
        <ele>76.1</ele>
        <time>2019-09-08T06:03:39Z</time>
      </trkpt>
      <trkpt lat="43.57916" lon="3.74303">
        <ele>75</ele>
        <time>2019-09-08T06:03:47Z</time>
      </trkpt>
      <trkpt lat="43.57911" lon="3.74279">
        <ele>74.6</ele>
        <time>2019-09-08T06:03:51Z</time>
      </trkpt>
      <trkpt lat="43.57896" lon="3.74259">
        <ele>73.5</ele>
        <time>2019-09-08T06:03:55Z</time>
      </trkpt>
      <trkpt lat="43.57869" lon="3.74245">
        <ele>71.2</ele>
        <time>2019-09-08T06:04:00Z</time>
      </trkpt>
      <trkpt lat="43.57851" lon="3.74211">
        <ele>71.2</ele>
        <time>2019-09-08T06:04:06Z</time>
      </trkpt>
      <trkpt lat="43.57841" lon="3.74138">
        <ele>72.5</ele>
        <time>2019-09-08T06:04:18Z</time>
      </trkpt>
      <trkpt lat="43.57869" lon="3.74099">
        <ele>73.3</ele>
        <time>2019-09-08T06:04:29Z</time>
      </trkpt>
      <trkpt lat="43.57903" lon="3.74114">
        <ele>77</ele>
        <time>2019-09-08T06:04:41Z</time>
      </trkpt>
      <trkpt lat="43.57938" lon="3.74112">
        <ele>79.6</ele>
        <time>2019-09-08T06:04:53Z</time>
      </trkpt>
      <trkpt lat="43.57973" lon="3.74095">
        <ele>79.9</ele>
        <time>2019-09-08T06:05:06Z</time>
      </trkpt>
      <trkpt lat="43.57983" lon="3.7408">
        <ele>80.6</ele>
        <time>2019-09-08T06:05:12Z</time>
      </trkpt>
      <trkpt lat="43.57976" lon="3.74066">
        <ele>76.1</ele>
        <time>2019-09-08T06:05:21Z</time>
      </trkpt>
      <trkpt lat="43.57969" lon="3.74059">
        <ele>72.7</ele>
        <time>2019-09-08T06:05:26Z</time>
      </trkpt>
      <trkpt lat="43.57967" lon="3.7405">
        <ele>70.5</ele>
        <time>2019-09-08T06:05:29Z</time>
      </trkpt>
      <trkpt lat="43.57958" lon="3.74039">
        <ele>66.2</ele>
        <time>2019-09-08T06:05:34Z</time>
      </trkpt>
      <trkpt lat="43.57957" lon="3.74036">
        <ele>65.5</ele>
        <time>2019-09-08T06:05:35Z</time>
      </trkpt>
      <trkpt lat="43.57947" lon="3.74021">
        <ele>61.8</ele>
        <time>2019-09-08T06:05:40Z</time>
      </trkpt>
      <trkpt lat="43.57943" lon="3.74017">
        <ele>61.4</ele>
        <time>2019-09-08T06:05:42Z</time>
      </trkpt>
      <trkpt lat="43.57943" lon="3.74011">
        <ele>61.7</ele>
        <time>2019-09-08T06:05:45Z</time>
      </trkpt>
      <trkpt lat="43.5794" lon="3.73979">
        <ele>64.6</ele>
        <time>2019-09-08T06:05:58Z</time>
      </trkpt>
      <trkpt lat="43.57937" lon="3.73957">
        <ele>67</ele>
        <time>2019-09-08T06:06:08Z</time>
      </trkpt>
      <trkpt lat="43.57936" lon="3.73949">
        <ele>67.9</ele>
        <time>2019-09-08T06:06:12Z</time>
      </trkpt>
      <trkpt lat="43.57938" lon="3.73928">
        <ele>70.9</ele>
        <time>2019-09-08T06:06:21Z</time>
      </trkpt>
      <trkpt lat="43.57934" lon="3.73909">
        <ele>73.5</ele>
        <time>2019-09-08T06:06:30Z</time>
      </trkpt>
      <trkpt lat="43.57937" lon="3.73901">
        <ele>74.4</ele>
        <time>2019-09-08T06:06:35Z</time>
      </trkpt>
      <trkpt lat="43.57937" lon="3.73869">
        <ele>78.1</ele>
        <time>2019-09-08T06:06:50Z</time>
      </trkpt>
      <trkpt lat="43.57926" lon="3.73838">
        <ele>81.2</ele>
        <time>2019-09-08T06:07:06Z</time>
      </trkpt>
      <trkpt lat="43.57903" lon="3.73804">
        <ele>84.6</ele>
        <time>2019-09-08T06:07:25Z</time>
      </trkpt>
      <trkpt lat="43.57878" lon="3.73778">
        <ele>87.4</ele>
        <time>2019-09-08T06:07:43Z</time>
      </trkpt>
      <trkpt lat="43.57854" lon="3.73757">
        <ele>90.2</ele>
        <time>2019-09-08T06:07:59Z</time>
      </trkpt>
      <trkpt lat="43.5785" lon="3.73756">
        <ele>90.4</ele>
        <time>2019-09-08T06:08:01Z</time>
      </trkpt>
      <trkpt lat="43.57821" lon="3.73757">
        <ele>90.8</ele>
        <time>2019-09-08T06:08:14Z</time>
      </trkpt>
      <trkpt lat="43.57816" lon="3.73781">
        <ele>89</ele>
        <time>2019-09-08T06:08:23Z</time>
      </trkpt>
      <trkpt lat="43.57853" lon="3.73807">
        <ele>84.1</ele>
        <time>2019-09-08T06:08:32Z</time>
      </trkpt>
      <trkpt lat="43.57862" lon="3.73813">
        <ele>82.7</ele>
        <time>2019-09-08T06:08:34Z</time>
      </trkpt>
      <trkpt lat="43.57879" lon="3.73834">
        <ele>80.2</ele>
        <time>2019-09-08T06:08:38Z</time>
      </trkpt>
      <trkpt lat="43.57896" lon="3.73855">
        <ele>77.2</ele>
        <time>2019-09-08T06:08:43Z</time>
      </trkpt>
      <trkpt lat="43.57903" lon="3.73893">
        <ele>73.2</ele>
        <time>2019-09-08T06:08:49Z</time>
      </trkpt>
      <trkpt lat="43.57916" lon="3.73933">
        <ele>70.2</ele>
        <time>2019-09-08T06:08:55Z</time>
      </trkpt>
      <trkpt lat="43.57917" lon="3.73938">
        <ele>69.7</ele>
        <time>2019-09-08T06:08:56Z</time>
      </trkpt>
      <trkpt lat="43.57906" lon="3.73971">
        <ele>66</ele>
        <time>2019-09-08T06:09:04Z</time>
      </trkpt>
      <trkpt lat="43.57902" lon="3.73974">
        <ele>65.2</ele>
        <time>2019-09-08T06:09:05Z</time>
      </trkpt>
      <trkpt lat="43.57891" lon="3.7401">
        <ele>60.5</ele>
        <time>2019-09-08T06:09:12Z</time>
      </trkpt>
      <trkpt lat="43.57879" lon="3.74025">
        <ele>59.1</ele>
        <time>2019-09-08T06:09:15Z</time>
      </trkpt>
      <trkpt lat="43.57875" lon="3.74028">
        <ele>59</ele>
        <time>2019-09-08T06:09:16Z</time>
      </trkpt>
      <trkpt lat="43.5787" lon="3.74029">
        <ele>59.3</ele>
        <time>2019-09-08T06:09:17Z</time>
      </trkpt>
      <trkpt lat="43.57834" lon="3.74053">
        <ele>59.9</ele>
        <time>2019-09-08T06:09:28Z</time>
      </trkpt>
      <trkpt lat="43.57797" lon="3.74096">
        <ele>58.8</ele>
        <time>2019-09-08T06:09:40Z</time>
      </trkpt>
      <trkpt lat="43.57785" lon="3.7411">
        <ele>57.6</ele>
        <time>2019-09-08T06:09:43Z</time>
      </trkpt>
      <trkpt lat="43.57782" lon="3.74115">
        <ele>57.2</ele>
        <time>2019-09-08T06:09:44Z</time>
      </trkpt>
      <trkpt lat="43.5778" lon="3.7412">
        <ele>57.2</ele>
        <time>2019-09-08T06:09:45Z</time>
      </trkpt>
      <trkpt lat="43.57778" lon="3.74126">
        <ele>57.1</ele>
        <time>2019-09-08T06:09:46Z</time>
      </trkpt>
      <trkpt lat="43.57775" lon="3.74131">
        <ele>57.5</ele>
        <time>2019-09-08T06:09:47Z</time>
      </trkpt>
      <trkpt lat="43.57773" lon="3.74136">
        <ele>57.7</ele>
        <time>2019-09-08T06:09:48Z</time>
      </trkpt>
      <trkpt lat="43.57772" lon="3.74141">
        <ele>57.9</ele>
        <time>2019-09-08T06:09:49Z</time>
      </trkpt>
      <trkpt lat="43.57771" lon="3.74146">
        <ele>58.1</ele>
        <time>2019-09-08T06:09:50Z</time>
      </trkpt>
      <trkpt lat="43.5777" lon="3.74152">
        <ele>58.3</ele>
        <time>2019-09-08T06:09:51Z</time>
      </trkpt>
      <trkpt lat="43.57767" lon="3.74203">
        <ele>57.3</ele>
        <time>2019-09-08T06:10:00Z</time>
      </trkpt>
      <trkpt lat="43.57769" lon="3.74215">
        <ele>57.2</ele>
        <time>2019-09-08T06:10:02Z</time>
      </trkpt>
      <trkpt lat="43.57771" lon="3.74233">
        <ele>56.9</ele>
        <time>2019-09-08T06:10:06Z</time>
      </trkpt>
      <trkpt lat="43.57769" lon="3.74235">
        <ele>56.6</ele>
        <time>2019-09-08T06:10:07Z</time>
      </trkpt>
      <trkpt lat="43.57762" lon="3.74241">
        <ele>55.6</ele>
        <time>2019-09-08T06:10:10Z</time>
      </trkpt>
      <trkpt lat="43.57749" lon="3.74258">
        <ele>55.5</ele>
        <time>2019-09-08T06:10:16Z</time>
      </trkpt>
      <trkpt lat="43.57745" lon="3.7428">
        <ele>58.1</ele>
        <time>2019-09-08T06:10:25Z</time>
      </trkpt>
      <trkpt lat="43.57743" lon="3.74288">
        <ele>57.1</ele>
        <time>2019-09-08T06:10:28Z</time>
      </trkpt>
      <trkpt lat="43.5774" lon="3.74288">
        <ele>56.7</ele>
        <time>2019-09-08T06:10:32Z</time>
      </trkpt>
      <trkpt lat="43.57735" lon="3.74286">
        <ele>56.3</ele>
        <time>2019-09-08T06:10:35Z</time>
      </trkpt>
      <trkpt lat="43.57733" lon="3.74286">
        <ele>56</ele>
        <time>2019-09-08T06:10:36Z</time>
      </trkpt>
      <trkpt lat="43.57731" lon="3.74285">
        <ele>55.8</ele>
        <time>2019-09-08T06:10:37Z</time>
      </trkpt>
      <trkpt lat="43.57729" lon="3.74284">
        <ele>55.6</ele>
        <time>2019-09-08T06:10:38Z</time>
      </trkpt>
      <trkpt lat="43.57727" lon="3.74281">
        <ele>55.5</ele>
        <time>2019-09-08T06:10:39Z</time>
      </trkpt>
      <trkpt lat="43.57725" lon="3.74279">
        <ele>55.3</ele>
        <time>2019-09-08T06:10:40Z</time>
      </trkpt>
      <trkpt lat="43.57682" lon="3.74244">
        <ele>57</ele>
        <time>2019-09-08T06:10:56Z</time>
      </trkpt>
      <trkpt lat="43.57645" lon="3.74231">
        <ele>57.7</ele>
        <time>2019-09-08T06:11:08Z</time>
      </trkpt>
      <trkpt lat="43.57643" lon="3.74218">
        <ele>58.2</ele>
        <time>2019-09-08T06:11:12Z</time>
      </trkpt>
      <trkpt lat="43.57644" lon="3.74179">
        <ele>60.6</ele>
        <time>2019-09-08T06:11:24Z</time>
      </trkpt>
      <trkpt lat="43.57644" lon="3.74176">
        <ele>60.8</ele>
        <time>2019-09-08T06:11:25Z</time>
      </trkpt>
      <trkpt lat="43.57627" lon="3.74155">
        <ele>61.9</ele>
        <time>2019-09-08T06:11:34Z</time>
      </trkpt>
      <trkpt lat="43.5761" lon="3.74137">
        <ele>62.2</ele>
        <time>2019-09-08T06:11:41Z</time>
      </trkpt>
      <trkpt lat="43.57608" lon="3.74137">
        <ele>62.1</ele>
        <time>2019-09-08T06:11:42Z</time>
      </trkpt>
      <trkpt lat="43.57606" lon="3.74137">
        <ele>62</ele>
        <time>2019-09-08T06:11:43Z</time>
      </trkpt>
      <trkpt lat="43.57603" lon="3.74136">
        <ele>62</ele>
        <time>2019-09-08T06:11:44Z</time>
      </trkpt>
      <trkpt lat="43.57601" lon="3.74133">
        <ele>62.1</ele>
        <time>2019-09-08T06:11:45Z</time>
      </trkpt>
      <trkpt lat="43.57599" lon="3.7413">
        <ele>62.2</ele>
        <time>2019-09-08T06:11:46Z</time>
      </trkpt>
      <trkpt lat="43.57597" lon="3.74127">
        <ele>62.3</ele>
        <time>2019-09-08T06:11:47Z</time>
      </trkpt>
      <trkpt lat="43.57595" lon="3.74123">
        <ele>62.5</ele>
        <time>2019-09-08T06:11:48Z</time>
      </trkpt>
      <trkpt lat="43.57587" lon="3.74115">
        <ele>62.2</ele>
        <time>2019-09-08T06:11:51Z</time>
      </trkpt>
      <trkpt lat="43.57583" lon="3.74115">
        <ele>61.9</ele>
        <time>2019-09-08T06:11:52Z</time>
      </trkpt>
      <trkpt lat="43.57568" lon="3.74137">
        <ele>60</ele>
        <time>2019-09-08T06:11:58Z</time>
      </trkpt>
      <trkpt lat="43.57559" lon="3.74134">
        <ele>59.7</ele>
        <time>2019-09-08T06:12:02Z</time>
      </trkpt>
      <trkpt lat="43.57538" lon="3.74112">
        <ele>60</ele>
        <time>2019-09-08T06:12:09Z</time>
      </trkpt>
      <trkpt lat="43.5754" lon="3.741">
        <ele>60.8</ele>
        <time>2019-09-08T06:12:13Z</time>
      </trkpt>
      <trkpt lat="43.57555" lon="3.74072">
        <ele>62.4</ele>
        <time>2019-09-08T06:12:23Z</time>
      </trkpt>
      <trkpt lat="43.57555" lon="3.74069">
        <ele>62.5</ele>
        <time>2019-09-08T06:12:24Z</time>
      </trkpt>
      <trkpt lat="43.57553" lon="3.74066">
        <ele>62.5</ele>
        <time>2019-09-08T06:12:25Z</time>
      </trkpt>
      <trkpt lat="43.57551" lon="3.74063">
        <ele>62.6</ele>
        <time>2019-09-08T06:12:26Z</time>
      </trkpt>
      <trkpt lat="43.57549" lon="3.7406">
        <ele>62.6</ele>
        <time>2019-09-08T06:12:27Z</time>
      </trkpt>
      <trkpt lat="43.57491" lon="3.73992">
        <ele>62</ele>
        <time>2019-09-08T06:12:44Z</time>
      </trkpt>
      <trkpt lat="43.57456" lon="3.73945">
        <ele>61.8</ele>
        <time>2019-09-08T06:12:54Z</time>
      </trkpt>
      <trkpt lat="43.57455" lon="3.7394">
        <ele>61.9</ele>
        <time>2019-09-08T06:12:55Z</time>
      </trkpt>
      <trkpt lat="43.57455" lon="3.73934">
        <ele>62.1</ele>
        <time>2019-09-08T06:12:56Z</time>
      </trkpt>
      <trkpt lat="43.57456" lon="3.73929">
        <ele>62.4</ele>
        <time>2019-09-08T06:12:57Z</time>
      </trkpt>
      <trkpt lat="43.57457" lon="3.73924">
        <ele>62.6</ele>
        <time>2019-09-08T06:12:58Z</time>
      </trkpt>
      <trkpt lat="43.57458" lon="3.7392">
        <ele>62.9</ele>
        <time>2019-09-08T06:12:59Z</time>
      </trkpt>
      <trkpt lat="43.5746" lon="3.73915">
        <ele>63.2</ele>
        <time>2019-09-08T06:13:00Z</time>
      </trkpt>
      <trkpt lat="43.57461" lon="3.73847">
        <ele>65.6</ele>
        <time>2019-09-08T06:13:14Z</time>
      </trkpt>
      <trkpt lat="43.57427" lon="3.73771">
        <ele>65.1</ele>
        <time>2019-09-08T06:13:28Z</time>
      </trkpt>
      <trkpt lat="43.57425" lon="3.73766">
        <ele>65.3</ele>
        <time>2019-09-08T06:13:29Z</time>
      </trkpt>
      <trkpt lat="43.57423" lon="3.73761">
        <ele>65.5</ele>
        <time>2019-09-08T06:13:30Z</time>
      </trkpt>
      <trkpt lat="43.57421" lon="3.73757">
        <ele>65.7</ele>
        <time>2019-09-08T06:13:31Z</time>
      </trkpt>
      <trkpt lat="43.57406" lon="3.7371">
        <ele>68.8</ele>
        <time>2019-09-08T06:13:45Z</time>
      </trkpt>
      <trkpt lat="43.57398" lon="3.73672">
        <ele>70.4</ele>
        <time>2019-09-08T06:13:58Z</time>
      </trkpt>
      <trkpt lat="43.57385" lon="3.73636">
        <ele>70.9</ele>
        <time>2019-09-08T06:14:09Z</time>
      </trkpt>
      <trkpt lat="43.57376" lon="3.73586">
        <ele>72</ele>
        <time>2019-09-08T06:14:20Z</time>
      </trkpt>
      <trkpt lat="43.57377" lon="3.73577">
        <ele>72.5</ele>
        <time>2019-09-08T06:14:23Z</time>
      </trkpt>
      <trkpt lat="43.57381" lon="3.73575">
        <ele>72.9</ele>
        <time>2019-09-08T06:14:25Z</time>
      </trkpt>
      <trkpt lat="43.57411" lon="3.73559">
        <ele>76.5</ele>
        <time>2019-09-08T06:14:40Z</time>
      </trkpt>
      <trkpt lat="43.57431" lon="3.73542">
        <ele>79.3</ele>
        <time>2019-09-08T06:14:51Z</time>
      </trkpt>
      <trkpt lat="43.57457" lon="3.73526">
        <ele>82.6</ele>
        <time>2019-09-08T06:15:04Z</time>
      </trkpt>
      <trkpt lat="43.57493" lon="3.7351">
        <ele>85.4</ele>
        <time>2019-09-08T06:15:20Z</time>
      </trkpt>
      <trkpt lat="43.5752" lon="3.7349">
        <ele>87.3</ele>
        <time>2019-09-08T06:15:32Z</time>
      </trkpt>
      <trkpt lat="43.57555" lon="3.73465">
        <ele>88.8</ele>
        <time>2019-09-08T06:15:46Z</time>
      </trkpt>
      <trkpt lat="43.5759" lon="3.73455">
        <ele>91.1</ele>
        <time>2019-09-08T06:15:59Z</time>
      </trkpt>
      <trkpt lat="43.57598" lon="3.73456">
        <ele>92</ele>
        <time>2019-09-08T06:16:03Z</time>
      </trkpt>
      <trkpt lat="43.57605" lon="3.73447">
        <ele>93.2</ele>
        <time>2019-09-08T06:16:08Z</time>
      </trkpt>
      <trkpt lat="43.57623" lon="3.73418">
        <ele>96.2</ele>
        <time>2019-09-08T06:16:22Z</time>
      </trkpt>
      <trkpt lat="43.57643" lon="3.73395">
        <ele>99.9</ele>
        <time>2019-09-08T06:16:36Z</time>
      </trkpt>
      <trkpt lat="43.57659" lon="3.73368">
        <ele>102.2</ele>
        <time>2019-09-08T06:16:50Z</time>
      </trkpt>
      <trkpt lat="43.57659" lon="3.73361">
        <ele>102.5</ele>
        <time>2019-09-08T06:16:53Z</time>
      </trkpt>
      <trkpt lat="43.57678" lon="3.73324">
        <ele>104.6</ele>
        <time>2019-09-08T06:17:09Z</time>
      </trkpt>
      <trkpt lat="43.57697" lon="3.73287">
        <ele>105.7</ele>
        <time>2019-09-08T06:17:21Z</time>
      </trkpt>
      <trkpt lat="43.57744" lon="3.73226">
        <ele>103.4</ele>
        <time>2019-09-08T06:17:37Z</time>
      </trkpt>
      <trkpt lat="43.57766" lon="3.73199">
        <ele>102.3</ele>
        <time>2019-09-08T06:17:43Z</time>
      </trkpt>
      <trkpt lat="43.57784" lon="3.73175">
        <ele>101.5</ele>
        <time>2019-09-08T06:17:48Z</time>
      </trkpt>
      <trkpt lat="43.57798" lon="3.73144">
        <ele>100.3</ele>
        <time>2019-09-08T06:17:54Z</time>
      </trkpt>
      <trkpt lat="43.57791" lon="3.73124">
        <ele>99.5</ele>
        <time>2019-09-08T06:17:59Z</time>
      </trkpt>
      <trkpt lat="43.57775" lon="3.73041">
        <ele>97.4</ele>
        <time>2019-09-08T06:18:14Z</time>
      </trkpt>
      <trkpt lat="43.57763" lon="3.73019">
        <ele>97</ele>
        <time>2019-09-08T06:18:20Z</time>
      </trkpt>
      <trkpt lat="43.57732" lon="3.72985">
        <ele>96.4</ele>
        <time>2019-09-08T06:18:29Z</time>
      </trkpt>
      <trkpt lat="43.57697" lon="3.72927">
        <ele>95.1</ele>
        <time>2019-09-08T06:18:40Z</time>
      </trkpt>
      <trkpt lat="43.57647" lon="3.7287">
        <ele>90.4</ele>
        <time>2019-09-08T06:18:53Z</time>
      </trkpt>
      <trkpt lat="43.57641" lon="3.72827">
        <ele>84.7</ele>
        <time>2019-09-08T06:19:00Z</time>
      </trkpt>
      <trkpt lat="43.57636" lon="3.72818">
        <ele>82.9</ele>
        <time>2019-09-08T06:19:02Z</time>
      </trkpt>
      <trkpt lat="43.57617" lon="3.72795">
        <ele>78.8</ele>
        <time>2019-09-08T06:19:07Z</time>
      </trkpt>
      <trkpt lat="43.57601" lon="3.72784">
        <ele>77.6</ele>
        <time>2019-09-08T06:19:10Z</time>
      </trkpt>
      <trkpt lat="43.57577" lon="3.72765">
        <ele>77.7</ele>
        <time>2019-09-08T06:19:15Z</time>
      </trkpt>
      <trkpt lat="43.57551" lon="3.72745">
        <ele>75.3</ele>
        <time>2019-09-08T06:19:20Z</time>
      </trkpt>
      <trkpt lat="43.57538" lon="3.72724">
        <ele>75.4</ele>
        <time>2019-09-08T06:19:24Z</time>
      </trkpt>
      <trkpt lat="43.57536" lon="3.72663">
        <ele>76.7</ele>
        <time>2019-09-08T06:19:36Z</time>
      </trkpt>
      <trkpt lat="43.57536" lon="3.72618">
        <ele>76.6</ele>
        <time>2019-09-08T06:19:46Z</time>
      </trkpt>
      <trkpt lat="43.57531" lon="3.72608">
        <ele>76.6</ele>
        <time>2019-09-08T06:19:50Z</time>
      </trkpt>
      <trkpt lat="43.57502" lon="3.72576">
        <ele>78</ele>
        <time>2019-09-08T06:20:02Z</time>
      </trkpt>
      <trkpt lat="43.5747" lon="3.72535">
        <ele>80.8</ele>
        <time>2019-09-08T06:20:19Z</time>
      </trkpt>
      <trkpt lat="43.57443" lon="3.72517">
        <ele>81.9</ele>
        <time>2019-09-08T06:20:33Z</time>
      </trkpt>
      <trkpt lat="43.57411" lon="3.72475">
        <ele>84.2</ele>
        <time>2019-09-08T06:20:51Z</time>
      </trkpt>
      <trkpt lat="43.57391" lon="3.72447">
        <ele>85.1</ele>
        <time>2019-09-08T06:21:03Z</time>
      </trkpt>
      <trkpt lat="43.57362" lon="3.72406">
        <ele>87.4</ele>
        <time>2019-09-08T06:21:20Z</time>
      </trkpt>
      <trkpt lat="43.57343" lon="3.72372">
        <ele>90</ele>
        <time>2019-09-08T06:21:34Z</time>
      </trkpt>
      <trkpt lat="43.57341" lon="3.72357">
        <ele>90.3</ele>
        <time>2019-09-08T06:21:41Z</time>
      </trkpt>
      <trkpt lat="43.57344" lon="3.7235">
        <ele>90.8</ele>
        <time>2019-09-08T06:21:45Z</time>
      </trkpt>
      <trkpt lat="43.57341" lon="3.72311">
        <ele>93.4</ele>
        <time>2019-09-08T06:22:00Z</time>
      </trkpt>
      <trkpt lat="43.57312" lon="3.72253">
        <ele>94.6</ele>
        <time>2019-09-08T06:22:17Z</time>
      </trkpt>
      <trkpt lat="43.57288" lon="3.72199">
        <ele>95.9</ele>
        <time>2019-09-08T06:22:31Z</time>
      </trkpt>
      <trkpt lat="43.57261" lon="3.72177">
        <ele>98.1</ele>
        <time>2019-09-08T06:22:44Z</time>
      </trkpt>
      <trkpt lat="43.57233" lon="3.7213">
        <ele>100.5</ele>
        <time>2019-09-08T06:22:59Z</time>
      </trkpt>
      <trkpt lat="43.57212" lon="3.72114">
        <ele>101.4</ele>
        <time>2019-09-08T06:23:07Z</time>
      </trkpt>
      <trkpt lat="43.57209" lon="3.72089">
        <ele>101.1</ele>
        <time>2019-09-08T06:23:13Z</time>
      </trkpt>
      <trkpt lat="43.57213" lon="3.72081">
        <ele>101</ele>
        <time>2019-09-08T06:23:15Z</time>
      </trkpt>
      <trkpt lat="43.57203" lon="3.72034">
        <ele>100.1</ele>
        <time>2019-09-08T06:23:25Z</time>
      </trkpt>
      <trkpt lat="43.57199" lon="3.72014">
        <ele>99.6</ele>
        <time>2019-09-08T06:23:29Z</time>
      </trkpt>
      <trkpt lat="43.57199" lon="3.7201">
        <ele>99.5</ele>
        <time>2019-09-08T06:23:30Z</time>
      </trkpt>
      <trkpt lat="43.57199" lon="3.72005">
        <ele>99.3</ele>
        <time>2019-09-08T06:23:31Z</time>
      </trkpt>
      <trkpt lat="43.57199" lon="3.72002">
        <ele>99.2</ele>
        <time>2019-09-08T06:23:32Z</time>
      </trkpt>
      <trkpt lat="43.57201" lon="3.71998">
        <ele>99.2</ele>
        <time>2019-09-08T06:23:33Z</time>
      </trkpt>
      <trkpt lat="43.57203" lon="3.71995">
        <ele>99.3</ele>
        <time>2019-09-08T06:23:34Z</time>
      </trkpt>
      <trkpt lat="43.57206" lon="3.71991">
        <ele>99.4</ele>
        <time>2019-09-08T06:23:35Z</time>
      </trkpt>
      <trkpt lat="43.57209" lon="3.71988">
        <ele>99.5</ele>
        <time>2019-09-08T06:23:36Z</time>
      </trkpt>
      <trkpt lat="43.57213" lon="3.71985">
        <ele>99.7</ele>
        <time>2019-09-08T06:23:37Z</time>
      </trkpt>
      <trkpt lat="43.57217" lon="3.71983">
        <ele>99.8</ele>
        <time>2019-09-08T06:23:38Z</time>
      </trkpt>
      <trkpt lat="43.57221" lon="3.71981">
        <ele>100</ele>
        <time>2019-09-08T06:23:39Z</time>
      </trkpt>
      <trkpt lat="43.57225" lon="3.7198">
        <ele>99.9</ele>
        <time>2019-09-08T06:23:40Z</time>
      </trkpt>
      <trkpt lat="43.57229" lon="3.71979">
        <ele>99.8</ele>
        <time>2019-09-08T06:23:41Z</time>
      </trkpt>
      <trkpt lat="43.57233" lon="3.71978">
        <ele>99.7</ele>
        <time>2019-09-08T06:23:42Z</time>
      </trkpt>
      <trkpt lat="43.57269" lon="3.71967">
        <ele>99.5</ele>
        <time>2019-09-08T06:23:50Z</time>
      </trkpt>
      <trkpt lat="43.57315" lon="3.7193">
        <ele>100.3</ele>
        <time>2019-09-08T06:24:03Z</time>
      </trkpt>
      <trkpt lat="43.57368" lon="3.71892">
        <ele>101.1</ele>
        <time>2019-09-08T06:24:18Z</time>
      </trkpt>
      <trkpt lat="43.57385" lon="3.71875">
        <ele>101</ele>
        <time>2019-09-08T06:24:23Z</time>
      </trkpt>
      <trkpt lat="43.574" lon="3.71869">
        <ele>101.7</ele>
        <time>2019-09-08T06:24:27Z</time>
      </trkpt>
      <trkpt lat="43.57402" lon="3.71872">
        <ele>101.8</ele>
        <time>2019-09-08T06:24:28Z</time>
      </trkpt>
      <trkpt lat="43.57405" lon="3.71876">
        <ele>101.8</ele>
        <time>2019-09-08T06:24:29Z</time>
      </trkpt>
      <trkpt lat="43.57406" lon="3.7188">
        <ele>101.8</ele>
        <time>2019-09-08T06:24:30Z</time>
      </trkpt>
      <trkpt lat="43.57409" lon="3.71884">
        <ele>101.9</ele>
        <time>2019-09-08T06:24:31Z</time>
      </trkpt>
      <trkpt lat="43.57412" lon="3.71885">
        <ele>101.9</ele>
        <time>2019-09-08T06:24:32Z</time>
      </trkpt>
      <trkpt lat="43.57415" lon="3.71885">
        <ele>102.1</ele>
        <time>2019-09-08T06:24:33Z</time>
      </trkpt>
      <trkpt lat="43.57418" lon="3.71883">
        <ele>102.2</ele>
        <time>2019-09-08T06:24:34Z</time>
      </trkpt>
      <trkpt lat="43.57421" lon="3.7188">
        <ele>102.4</ele>
        <time>2019-09-08T06:24:35Z</time>
      </trkpt>
      <trkpt lat="43.57434" lon="3.71862">
        <ele>103</ele>
        <time>2019-09-08T06:24:40Z</time>
      </trkpt>
      <trkpt lat="43.57485" lon="3.71809">
        <ele>104.9</ele>
        <time>2019-09-08T06:24:58Z</time>
      </trkpt>
      <trkpt lat="43.57528" lon="3.7179">
        <ele>106.6</ele>
        <time>2019-09-08T06:25:12Z</time>
      </trkpt>
      <trkpt lat="43.57565" lon="3.71763">
        <ele>108.7</ele>
        <time>2019-09-08T06:25:26Z</time>
      </trkpt>
      <trkpt lat="43.57599" lon="3.71761">
        <ele>110.9</ele>
        <time>2019-09-08T06:25:40Z</time>
      </trkpt>
      <trkpt lat="43.57632" lon="3.71742">
        <ele>113.8</ele>
        <time>2019-09-08T06:25:53Z</time>
      </trkpt>
      <trkpt lat="43.5766" lon="3.71705">
        <ele>116.2</ele>
        <time>2019-09-08T06:26:08Z</time>
      </trkpt>
      <trkpt lat="43.57702" lon="3.71682">
        <ele>118.1</ele>
        <time>2019-09-08T06:26:25Z</time>
      </trkpt>
      <trkpt lat="43.57747" lon="3.71672">
        <ele>119</ele>
        <time>2019-09-08T06:26:41Z</time>
      </trkpt>
      <trkpt lat="43.57804" lon="3.71662">
        <ele>120.2</ele>
        <time>2019-09-08T06:26:59Z</time>
      </trkpt>
      <trkpt lat="43.5784" lon="3.71648">
        <ele>120.3</ele>
        <time>2019-09-08T06:27:10Z</time>
      </trkpt>
      <trkpt lat="43.57874" lon="3.71622">
        <ele>121.9</ele>
        <time>2019-09-08T06:27:22Z</time>
      </trkpt>
      <trkpt lat="43.57912" lon="3.71587">
        <ele>123.1</ele>
        <time>2019-09-08T06:27:37Z</time>
      </trkpt>
      <trkpt lat="43.57952" lon="3.71545">
        <ele>122.5</ele>
        <time>2019-09-08T06:27:52Z</time>
      </trkpt>
      <trkpt lat="43.57992" lon="3.71509">
        <ele>120.1</ele>
        <time>2019-09-08T06:28:04Z</time>
      </trkpt>
      <trkpt lat="43.58045" lon="3.71461">
        <ele>120.2</ele>
        <time>2019-09-08T06:28:20Z</time>
      </trkpt>
      <trkpt lat="43.581" lon="3.7143">
        <ele>119.4</ele>
        <time>2019-09-08T06:28:36Z</time>
      </trkpt>
      <trkpt lat="43.58111" lon="3.71423">
        <ele>119</ele>
        <time>2019-09-08T06:28:39Z</time>
      </trkpt>
      <trkpt lat="43.58125" lon="3.71414">
        <ele>118.2</ele>
        <time>2019-09-08T06:28:43Z</time>
      </trkpt>
      <trkpt lat="43.5816" lon="3.71387">
        <ele>116.5</ele>
        <time>2019-09-08T06:28:54Z</time>
      </trkpt>
      <trkpt lat="43.58179" lon="3.71355">
        <ele>114.6</ele>
        <time>2019-09-08T06:29:02Z</time>
      </trkpt>
      <trkpt lat="43.58188" lon="3.71344">
        <ele>114.4</ele>
        <time>2019-09-08T06:29:05Z</time>
      </trkpt>
      <trkpt lat="43.58202" lon="3.71323">
        <ele>113</ele>
        <time>2019-09-08T06:29:10Z</time>
      </trkpt>
      <trkpt lat="43.58215" lon="3.71311">
        <ele>112.9</ele>
        <time>2019-09-08T06:29:14Z</time>
      </trkpt>
      <trkpt lat="43.58231" lon="3.71287">
        <ele>111.9</ele>
        <time>2019-09-08T06:29:20Z</time>
      </trkpt>
      <trkpt lat="43.58234" lon="3.71285">
        <ele>111.9</ele>
        <time>2019-09-08T06:29:21Z</time>
      </trkpt>
      <trkpt lat="43.58237" lon="3.71285">
        <ele>112.1</ele>
        <time>2019-09-08T06:29:22Z</time>
      </trkpt>
      <trkpt lat="43.58239" lon="3.71286">
        <ele>112.3</ele>
        <time>2019-09-08T06:29:23Z</time>
      </trkpt>
      <trkpt lat="43.58242" lon="3.71288">
        <ele>112.6</ele>
        <time>2019-09-08T06:29:24Z</time>
      </trkpt>
      <trkpt lat="43.58245" lon="3.7129">
        <ele>112.8</ele>
        <time>2019-09-08T06:29:25Z</time>
      </trkpt>
      <trkpt lat="43.58271" lon="3.71302">
        <ele>112.2</ele>
        <time>2019-09-08T06:29:33Z</time>
      </trkpt>
      <trkpt lat="43.58275" lon="3.71302">
        <ele>112.1</ele>
        <time>2019-09-08T06:29:34Z</time>
      </trkpt>
      <trkpt lat="43.58284" lon="3.71302">
        <ele>111.8</ele>
        <time>2019-09-08T06:29:36Z</time>
      </trkpt>
      <trkpt lat="43.58299" lon="3.71302">
        <ele>111.2</ele>
        <time>2019-09-08T06:29:40Z</time>
      </trkpt>
      <trkpt lat="43.58307" lon="3.71297">
        <ele>111</ele>
        <time>2019-09-08T06:29:42Z</time>
      </trkpt>
      <trkpt lat="43.58323" lon="3.71295">
        <ele>111</ele>
        <time>2019-09-08T06:29:46Z</time>
      </trkpt>
      <trkpt lat="43.58352" lon="3.71314">
        <ele>110.2</ele>
        <time>2019-09-08T06:29:55Z</time>
      </trkpt>
      <trkpt lat="43.58349" lon="3.71333">
        <ele>110</ele>
        <time>2019-09-08T06:29:59Z</time>
      </trkpt>
      <trkpt lat="43.58325" lon="3.71403">
        <ele>109.1</ele>
        <time>2019-09-08T06:30:12Z</time>
      </trkpt>
      <trkpt lat="43.58314" lon="3.71449">
        <ele>108.8</ele>
        <time>2019-09-08T06:30:20Z</time>
      </trkpt>
      <trkpt lat="43.58308" lon="3.71464">
        <ele>108.3</ele>
        <time>2019-09-08T06:30:23Z</time>
      </trkpt>
      <trkpt lat="43.58303" lon="3.71474">
        <ele>108.1</ele>
        <time>2019-09-08T06:30:25Z</time>
      </trkpt>
      <trkpt lat="43.5829" lon="3.71506">
        <ele>108.4</ele>
        <time>2019-09-08T06:30:31Z</time>
      </trkpt>
      <trkpt lat="43.58281" lon="3.71525">
        <ele>108.1</ele>
        <time>2019-09-08T06:30:35Z</time>
      </trkpt>
      <trkpt lat="43.58264" lon="3.71571">
        <ele>107.7</ele>
        <time>2019-09-08T06:30:47Z</time>
      </trkpt>
      <trkpt lat="43.58233" lon="3.71614">
        <ele>107</ele>
        <time>2019-09-08T06:30:59Z</time>
      </trkpt>
      <trkpt lat="43.58194" lon="3.71669">
        <ele>107.1</ele>
        <time>2019-09-08T06:31:13Z</time>
      </trkpt>
      <trkpt lat="43.58174" lon="3.71711">
        <ele>108.4</ele>
        <time>2019-09-08T06:31:25Z</time>
      </trkpt>
      <trkpt lat="43.58155" lon="3.71744">
        <ele>109.8</ele>
        <time>2019-09-08T06:31:38Z</time>
      </trkpt>
      <trkpt lat="43.58139" lon="3.71777">
        <ele>111.9</ele>
        <time>2019-09-08T06:31:52Z</time>
      </trkpt>
      <trkpt lat="43.58126" lon="3.718">
        <ele>114.1</ele>
        <time>2019-09-08T06:32:05Z</time>
      </trkpt>
      <trkpt lat="43.58113" lon="3.71833">
        <ele>116</ele>
        <time>2019-09-08T06:32:21Z</time>
      </trkpt>
      <trkpt lat="43.58093" lon="3.71866">
        <ele>117</ele>
        <time>2019-09-08T06:32:35Z</time>
      </trkpt>
      <trkpt lat="43.5808" lon="3.71897">
        <ele>117</ele>
        <time>2019-09-08T06:32:46Z</time>
      </trkpt>
      <trkpt lat="43.58078" lon="3.71902">
        <ele>117</ele>
        <time>2019-09-08T06:32:48Z</time>
      </trkpt>
      <trkpt lat="43.58077" lon="3.71904">
        <ele>117</ele>
        <time>2019-09-08T06:32:49Z</time>
      </trkpt>
      <trkpt lat="43.58058" lon="3.71961">
        <ele>117.1</ele>
        <time>2019-09-08T06:33:02Z</time>
      </trkpt>
      <trkpt lat="43.58049" lon="3.71985">
        <ele>116.7</ele>
        <time>2019-09-08T06:33:06Z</time>
      </trkpt>
      <trkpt lat="43.5802" lon="3.72037">
        <ele>114.4</ele>
        <time>2019-09-08T06:33:15Z</time>
      </trkpt>
      <trkpt lat="43.58015" lon="3.72067">
        <ele>114.1</ele>
        <time>2019-09-08T06:33:19Z</time>
      </trkpt>
      <trkpt lat="43.58004" lon="3.72086">
        <ele>113.3</ele>
        <time>2019-09-08T06:33:23Z</time>
      </trkpt>
      <trkpt lat="43.57978" lon="3.72144">
        <ele>110.6</ele>
        <time>2019-09-08T06:33:32Z</time>
      </trkpt>
      <trkpt lat="43.57967" lon="3.72166">
        <ele>109.6</ele>
        <time>2019-09-08T06:33:36Z</time>
      </trkpt>
      <trkpt lat="43.57956" lon="3.72189">
        <ele>109.3</ele>
        <time>2019-09-08T06:33:41Z</time>
      </trkpt>
      <trkpt lat="43.57959" lon="3.72199">
        <ele>109.4</ele>
        <time>2019-09-08T06:33:43Z</time>
      </trkpt>
      <trkpt lat="43.5796" lon="3.72221">
        <ele>109.1</ele>
        <time>2019-09-08T06:33:47Z</time>
      </trkpt>
      <trkpt lat="43.57959" lon="3.72233">
        <ele>108.8</ele>
        <time>2019-09-08T06:33:49Z</time>
      </trkpt>
      <trkpt lat="43.57941" lon="3.7228">
        <ele>107.8</ele>
        <time>2019-09-08T06:33:57Z</time>
      </trkpt>
      <trkpt lat="43.57935" lon="3.72309">
        <ele>106.6</ele>
        <time>2019-09-08T06:34:01Z</time>
      </trkpt>
      <trkpt lat="43.57926" lon="3.72343">
        <ele>105.7</ele>
        <time>2019-09-08T06:34:06Z</time>
      </trkpt>
      <trkpt lat="43.57904" lon="3.72384">
        <ele>104.1</ele>
        <time>2019-09-08T06:34:13Z</time>
      </trkpt>
      <trkpt lat="43.57879" lon="3.72437">
        <ele>102.8</ele>
        <time>2019-09-08T06:34:21Z</time>
      </trkpt>
      <trkpt lat="43.57872" lon="3.72449">
        <ele>102.3</ele>
        <time>2019-09-08T06:34:23Z</time>
      </trkpt>
      <trkpt lat="43.57861" lon="3.72484">
        <ele>102</ele>
        <time>2019-09-08T06:34:28Z</time>
      </trkpt>
      <trkpt lat="43.57861" lon="3.7253">
        <ele>101.9</ele>
        <time>2019-09-08T06:34:34Z</time>
      </trkpt>
      <trkpt lat="43.57854" lon="3.72566">
        <ele>100.5</ele>
        <time>2019-09-08T06:34:39Z</time>
      </trkpt>
      <trkpt lat="43.57855" lon="3.726">
        <ele>100</ele>
        <time>2019-09-08T06:34:44Z</time>
      </trkpt>
      <trkpt lat="43.57853" lon="3.72627">
        <ele>98.7</ele>
        <time>2019-09-08T06:34:48Z</time>
      </trkpt>
      <trkpt lat="43.57843" lon="3.72673">
        <ele>97.5</ele>
        <time>2019-09-08T06:34:54Z</time>
      </trkpt>
      <trkpt lat="43.57843" lon="3.72704">
        <ele>96.6</ele>
        <time>2019-09-08T06:34:58Z</time>
      </trkpt>
      <trkpt lat="43.5784" lon="3.72733">
        <ele>95.9</ele>
        <time>2019-09-08T06:35:02Z</time>
      </trkpt>
      <trkpt lat="43.57838" lon="3.72765">
        <ele>95.3</ele>
        <time>2019-09-08T06:35:06Z</time>
      </trkpt>
      <trkpt lat="43.57831" lon="3.72796">
        <ele>95.4</ele>
        <time>2019-09-08T06:35:10Z</time>
      </trkpt>
      <trkpt lat="43.57823" lon="3.72827">
        <ele>96.3</ele>
        <time>2019-09-08T06:35:15Z</time>
      </trkpt>
      <trkpt lat="43.57817" lon="3.72898">
        <ele>98.5</ele>
        <time>2019-09-08T06:35:30Z</time>
      </trkpt>
      <trkpt lat="43.57812" lon="3.72966">
        <ele>99.2</ele>
        <time>2019-09-08T06:35:45Z</time>
      </trkpt>
      <trkpt lat="43.5781" lon="3.72968">
        <ele>99.2</ele>
        <time>2019-09-08T06:35:56Z</time>
      </trkpt>
      <trkpt lat="43.5781" lon="3.72966">
        <ele>99.2</ele>
        <time>2019-09-08T06:36:15Z</time>
      </trkpt>
      <trkpt lat="43.57811" lon="3.72965">
        <ele>99.2</ele>
        <time>2019-09-08T06:40:49Z</time>
      </trkpt>
      <trkpt lat="43.5781" lon="3.72965">
        <ele>99.2</ele>
        <time>2019-09-08T06:43:11Z</time>
      </trkpt>
      <trkpt lat="43.57811" lon="3.72965">
        <ele>99.2</ele>
        <time>2019-09-08T06:45:01Z</time>
      </trkpt>
      <trkpt lat="43.57811" lon="3.72964">
        <ele>99.2</ele>
        <time>2019-09-08T06:45:48Z</time>
      </trkpt>
      <trkpt lat="43.57811" lon="3.72965">
        <ele>99.2</ele>
        <time>2019-09-08T06:46:12Z</time>
      </trkpt>
      <trkpt lat="43.57812" lon="3.72967">
        <ele>99.2</ele>
        <time>2019-09-08T06:46:30Z</time>
      </trkpt>
      <trkpt lat="43.57814" lon="3.72978">
        <ele>99.2</ele>
        <time>2019-09-08T06:46:34Z</time>
      </trkpt>
      <trkpt lat="43.57827" lon="3.73075">
        <ele>99.3</ele>
        <time>2019-09-08T06:46:52Z</time>
      </trkpt>
      <trkpt lat="43.57827" lon="3.7309">
        <ele>99.6</ele>
        <time>2019-09-08T06:46:55Z</time>
      </trkpt>
      <trkpt lat="43.57854" lon="3.73108">
        <ele>100.8</ele>
        <time>2019-09-08T06:47:06Z</time>
      </trkpt>
      <trkpt lat="43.57862" lon="3.73096">
        <ele>101.6</ele>
        <time>2019-09-08T06:47:11Z</time>
      </trkpt>
      <trkpt lat="43.57886" lon="3.73044">
        <ele>103.2</ele>
        <time>2019-09-08T06:47:27Z</time>
      </trkpt>
      <trkpt lat="43.57908" lon="3.73005">
        <ele>104.4</ele>
        <time>2019-09-08T06:47:43Z</time>
      </trkpt>
      <trkpt lat="43.57928" lon="3.72972">
        <ele>106.4</ele>
        <time>2019-09-08T06:47:56Z</time>
      </trkpt>
      <trkpt lat="43.57958" lon="3.72931">
        <ele>108</ele>
        <time>2019-09-08T06:48:13Z</time>
      </trkpt>
      <trkpt lat="43.57988" lon="3.72892">
        <ele>109</ele>
        <time>2019-09-08T06:48:27Z</time>
      </trkpt>
      <trkpt lat="43.58019" lon="3.72848">
        <ele>109.4</ele>
        <time>2019-09-08T06:48:40Z</time>
      </trkpt>
      <trkpt lat="43.58052" lon="3.72799">
        <ele>109</ele>
        <time>2019-09-08T06:48:52Z</time>
      </trkpt>
      <trkpt lat="43.58088" lon="3.72757">
        <ele>109.5</ele>
        <time>2019-09-08T06:49:04Z</time>
      </trkpt>
      <trkpt lat="43.58124" lon="3.72727">
        <ele>111</ele>
        <time>2019-09-08T06:49:17Z</time>
      </trkpt>
      <trkpt lat="43.58151" lon="3.72686">
        <ele>111.4</ele>
        <time>2019-09-08T06:49:30Z</time>
      </trkpt>
      <trkpt lat="43.5818" lon="3.72649">
        <ele>112.1</ele>
        <time>2019-09-08T06:49:42Z</time>
      </trkpt>
      <trkpt lat="43.58185" lon="3.72639">
        <ele>112.3</ele>
        <time>2019-09-08T06:49:45Z</time>
      </trkpt>
      <trkpt lat="43.58199" lon="3.72647">
        <ele>113.2</ele>
        <time>2019-09-08T06:49:55Z</time>
      </trkpt>
      <trkpt lat="43.58204" lon="3.72657">
        <ele>113.3</ele>
        <time>2019-09-08T06:49:59Z</time>
      </trkpt>
      <trkpt lat="43.58215" lon="3.72678">
        <ele>113.7</ele>
        <time>2019-09-08T06:50:06Z</time>
      </trkpt>
      <trkpt lat="43.58235" lon="3.7271">
        <ele>114.2</ele>
        <time>2019-09-08T06:50:18Z</time>
      </trkpt>
      <trkpt lat="43.58251" lon="3.72745">
        <ele>113.2</ele>
        <time>2019-09-08T06:50:29Z</time>
      </trkpt>
      <trkpt lat="43.58257" lon="3.72755">
        <ele>112.6</ele>
        <time>2019-09-08T06:50:32Z</time>
      </trkpt>
      <trkpt lat="43.58271" lon="3.72773">
        <ele>111.3</ele>
        <time>2019-09-08T06:50:40Z</time>
      </trkpt>
      <trkpt lat="43.58279" lon="3.72786">
        <ele>110.7</ele>
        <time>2019-09-08T06:50:44Z</time>
      </trkpt>
      <trkpt lat="43.58293" lon="3.72819">
        <ele>109.2</ele>
        <time>2019-09-08T06:50:52Z</time>
      </trkpt>
      <trkpt lat="43.58315" lon="3.7281">
        <ele>108.6</ele>
        <time>2019-09-08T06:50:59Z</time>
      </trkpt>
      <trkpt lat="43.58343" lon="3.72796">
        <ele>108.3</ele>
        <time>2019-09-08T06:51:07Z</time>
      </trkpt>
      <trkpt lat="43.58357" lon="3.7279">
        <ele>108.3</ele>
        <time>2019-09-08T06:51:11Z</time>
      </trkpt>
      <trkpt lat="43.5837" lon="3.72789">
        <ele>107.6</ele>
        <time>2019-09-08T06:51:14Z</time>
      </trkpt>
      <trkpt lat="43.58394" lon="3.72799">
        <ele>105.1</ele>
        <time>2019-09-08T06:51:22Z</time>
      </trkpt>
      <trkpt lat="43.58395" lon="3.72809">
        <ele>104.3</ele>
        <time>2019-09-08T06:51:24Z</time>
      </trkpt>
      <trkpt lat="43.58391" lon="3.72847">
        <ele>102.4</ele>
        <time>2019-09-08T06:51:32Z</time>
      </trkpt>
      <trkpt lat="43.58376" lon="3.72873">
        <ele>102.8</ele>
        <time>2019-09-08T06:51:39Z</time>
      </trkpt>
      <trkpt lat="43.58349" lon="3.72908">
        <ele>103.2</ele>
        <time>2019-09-08T06:51:50Z</time>
      </trkpt>
      <trkpt lat="43.5833" lon="3.72937">
        <ele>103.4</ele>
        <time>2019-09-08T06:52:01Z</time>
      </trkpt>
      <trkpt lat="43.58312" lon="3.72965">
        <ele>102.9</ele>
        <time>2019-09-08T06:52:12Z</time>
      </trkpt>
      <trkpt lat="43.58308" lon="3.72971">
        <ele>102.9</ele>
        <time>2019-09-08T06:52:14Z</time>
      </trkpt>
      <trkpt lat="43.5829" lon="3.72995">
        <ele>100</ele>
        <time>2019-09-08T06:52:23Z</time>
      </trkpt>
      <trkpt lat="43.58287" lon="3.73018">
        <ele>97.8</ele>
        <time>2019-09-08T06:52:28Z</time>
      </trkpt>
      <trkpt lat="43.58275" lon="3.73028">
        <ele>97.2</ele>
        <time>2019-09-08T06:52:32Z</time>
      </trkpt>
      <trkpt lat="43.5825" lon="3.73062">
        <ele>96.5</ele>
        <time>2019-09-08T06:52:44Z</time>
      </trkpt>
      <trkpt lat="43.58247" lon="3.73072">
        <ele>96</ele>
        <time>2019-09-08T06:52:47Z</time>
      </trkpt>
      <trkpt lat="43.5824" lon="3.73086">
        <ele>95.5</ele>
        <time>2019-09-08T06:52:51Z</time>
      </trkpt>
      <trkpt lat="43.5823" lon="3.7309">
        <ele>96</ele>
        <time>2019-09-08T06:52:57Z</time>
      </trkpt>
      <trkpt lat="43.58224" lon="3.731">
        <ele>95.7</ele>
        <time>2019-09-08T06:53:00Z</time>
      </trkpt>
      <trkpt lat="43.58223" lon="3.73155">
        <ele>92.7</ele>
        <time>2019-09-08T06:53:11Z</time>
      </trkpt>
      <trkpt lat="43.58231" lon="3.73186">
        <ele>89.1</ele>
        <time>2019-09-08T06:53:18Z</time>
      </trkpt>
      <trkpt lat="43.58232" lon="3.73198">
        <ele>87.9</ele>
        <time>2019-09-08T06:53:20Z</time>
      </trkpt>
      <trkpt lat="43.58227" lon="3.73224">
        <ele>86.1</ele>
        <time>2019-09-08T06:53:26Z</time>
      </trkpt>
      <trkpt lat="43.5822" lon="3.73237">
        <ele>85</ele>
        <time>2019-09-08T06:53:29Z</time>
      </trkpt>
      <trkpt lat="43.58231" lon="3.7324">
        <ele>84</ele>
        <time>2019-09-08T06:53:36Z</time>
      </trkpt>
      <trkpt lat="43.58236" lon="3.73234">
        <ele>84.2</ele>
        <time>2019-09-08T06:53:38Z</time>
      </trkpt>
      <trkpt lat="43.58245" lon="3.73238">
        <ele>83.3</ele>
        <time>2019-09-08T06:53:43Z</time>
      </trkpt>
      <trkpt lat="43.58262" lon="3.73261">
        <ele>86.6</ele>
        <time>2019-09-08T06:53:55Z</time>
      </trkpt>
      <trkpt lat="43.58272" lon="3.73279">
        <ele>89.7</ele>
        <time>2019-09-08T06:54:07Z</time>
      </trkpt>
      <trkpt lat="43.5827" lon="3.73284">
        <ele>90.2</ele>
        <time>2019-09-08T06:54:09Z</time>
      </trkpt>
      <trkpt lat="43.5827" lon="3.73297">
        <ele>91.7</ele>
        <time>2019-09-08T06:54:15Z</time>
      </trkpt>
      <trkpt lat="43.58261" lon="3.73325">
        <ele>93.4</ele>
        <time>2019-09-08T06:54:27Z</time>
      </trkpt>
      <trkpt lat="43.58258" lon="3.73328">
        <ele>93.3</ele>
        <time>2019-09-08T06:54:29Z</time>
      </trkpt>
      <trkpt lat="43.58257" lon="3.73368">
        <ele>92.8</ele>
        <time>2019-09-08T06:54:39Z</time>
      </trkpt>
      <trkpt lat="43.58259" lon="3.73396">
        <ele>91</ele>
        <time>2019-09-08T06:54:44Z</time>
      </trkpt>
      <trkpt lat="43.5826" lon="3.73412">
        <ele>89.5</ele>
        <time>2019-09-08T06:54:47Z</time>
      </trkpt>
      <trkpt lat="43.58262" lon="3.73427">
        <ele>87.9</ele>
        <time>2019-09-08T06:54:53Z</time>
      </trkpt>
      <trkpt lat="43.58283" lon="3.73438">
        <ele>90.5</ele>
        <time>2019-09-08T06:55:02Z</time>
      </trkpt>
      <trkpt lat="43.58301" lon="3.73458">
        <ele>93.2</ele>
        <time>2019-09-08T06:55:15Z</time>
      </trkpt>
      <trkpt lat="43.58313" lon="3.73458">
        <ele>95.9</ele>
        <time>2019-09-08T06:55:21Z</time>
      </trkpt>
      <trkpt lat="43.58328" lon="3.73493">
        <ele>96.3</ele>
        <time>2019-09-08T06:55:36Z</time>
      </trkpt>
      <trkpt lat="43.58346" lon="3.73513">
        <ele>97.2</ele>
        <time>2019-09-08T06:55:47Z</time>
      </trkpt>
      <trkpt lat="43.58351" lon="3.73522">
        <ele>96.9</ele>
        <time>2019-09-08T06:55:51Z</time>
      </trkpt>
      <trkpt lat="43.5837" lon="3.73534">
        <ele>98.2</ele>
        <time>2019-09-08T06:56:00Z</time>
      </trkpt>
      <trkpt lat="43.58367" lon="3.73558">
        <ele>93.9</ele>
        <time>2019-09-08T06:56:08Z</time>
      </trkpt>
      <trkpt lat="43.5836" lon="3.73561">
        <ele>93</ele>
        <time>2019-09-08T06:56:10Z</time>
      </trkpt>
      <trkpt lat="43.58351" lon="3.73561">
        <ele>91.2</ele>
        <time>2019-09-08T06:56:13Z</time>
      </trkpt>
      <trkpt lat="43.58336" lon="3.73571">
        <ele>88</ele>
        <time>2019-09-08T06:56:21Z</time>
      </trkpt>
      <trkpt lat="43.58332" lon="3.73579">
        <ele>86.8</ele>
        <time>2019-09-08T06:56:25Z</time>
      </trkpt>
      <trkpt lat="43.58323" lon="3.73581">
        <ele>84.1</ele>
        <time>2019-09-08T06:56:28Z</time>
      </trkpt>
      <trkpt lat="43.58319" lon="3.73596">
        <ele>84.7</ele>
        <time>2019-09-08T06:56:36Z</time>
      </trkpt>
      <trkpt lat="43.58308" lon="3.73611">
        <ele>82.9</ele>
        <time>2019-09-08T06:56:43Z</time>
      </trkpt>
      <trkpt lat="43.58306" lon="3.73617">
        <ele>83</ele>
        <time>2019-09-08T06:56:46Z</time>
      </trkpt>
      <trkpt lat="43.58304" lon="3.7363">
        <ele>84.1</ele>
        <time>2019-09-08T06:56:51Z</time>
      </trkpt>
      <trkpt lat="43.58299" lon="3.7364">
        <ele>83.2</ele>
        <time>2019-09-08T06:56:54Z</time>
      </trkpt>
      <trkpt lat="43.58297" lon="3.73674">
        <ele>84.4</ele>
        <time>2019-09-08T06:57:08Z</time>
      </trkpt>
      <trkpt lat="43.58301" lon="3.73693">
        <ele>86.2</ele>
        <time>2019-09-08T06:57:16Z</time>
      </trkpt>
      <trkpt lat="43.58308" lon="3.73711">
        <ele>88.3</ele>
        <time>2019-09-08T06:57:25Z</time>
      </trkpt>
      <trkpt lat="43.5831" lon="3.73713">
        <ele>89</ele>
        <time>2019-09-08T06:57:27Z</time>
      </trkpt>
      <trkpt lat="43.5832" lon="3.73741">
        <ele>90.5</ele>
        <time>2019-09-08T06:57:38Z</time>
      </trkpt>
      <trkpt lat="43.58327" lon="3.73772">
        <ele>91.9</ele>
        <time>2019-09-08T06:57:48Z</time>
      </trkpt>
      <trkpt lat="43.58327" lon="3.73776">
        <ele>91.9</ele>
        <time>2019-09-08T06:57:49Z</time>
      </trkpt>
      <trkpt lat="43.5832" lon="3.73815">
        <ele>94.1</ele>
        <time>2019-09-08T06:58:00Z</time>
      </trkpt>
      <trkpt lat="43.58315" lon="3.73846">
        <ele>95.2</ele>
        <time>2019-09-08T06:58:09Z</time>
      </trkpt>
      <trkpt lat="43.58323" lon="3.73847">
        <ele>96.2</ele>
        <time>2019-09-08T06:58:13Z</time>
      </trkpt>
      <trkpt lat="43.58334" lon="3.73856">
        <ele>97.3</ele>
        <time>2019-09-08T06:58:19Z</time>
      </trkpt>
      <trkpt lat="43.58357" lon="3.73868">
        <ele>99.1</ele>
        <time>2019-09-08T06:58:29Z</time>
      </trkpt>
      <trkpt lat="43.58362" lon="3.7387">
        <ele>99.5</ele>
        <time>2019-09-08T06:58:31Z</time>
      </trkpt>
      <trkpt lat="43.58365" lon="3.73874">
        <ele>99.7</ele>
        <time>2019-09-08T06:58:33Z</time>
      </trkpt>
      <trkpt lat="43.58375" lon="3.73895">
        <ele>100.3</ele>
        <time>2019-09-08T06:58:42Z</time>
      </trkpt>
      <trkpt lat="43.58377" lon="3.73898">
        <ele>100.5</ele>
        <time>2019-09-08T06:58:43Z</time>
      </trkpt>
      <trkpt lat="43.58405" lon="3.73941">
        <ele>102.5</ele>
        <time>2019-09-08T06:58:57Z</time>
      </trkpt>
      <trkpt lat="43.58414" lon="3.7395">
        <ele>103.5</ele>
        <time>2019-09-08T06:59:01Z</time>
      </trkpt>
      <trkpt lat="43.58413" lon="3.73967">
        <ele>102.9</ele>
        <time>2019-09-08T06:59:05Z</time>
      </trkpt>
      <trkpt lat="43.58409" lon="3.73978">
        <ele>102</ele>
        <time>2019-09-08T06:59:07Z</time>
      </trkpt>
      <trkpt lat="43.58379" lon="3.74032">
        <ele>98.7</ele>
        <time>2019-09-08T06:59:16Z</time>
      </trkpt>
      <trkpt lat="43.58368" lon="3.74063">
        <ele>99.2</ele>
        <time>2019-09-08T06:59:21Z</time>
      </trkpt>
      <trkpt lat="43.58318" lon="3.74138">
        <ele>100.6</ele>
        <time>2019-09-08T06:59:37Z</time>
      </trkpt>
      <trkpt lat="43.58295" lon="3.74176">
        <ele>98.3</ele>
        <time>2019-09-08T06:59:45Z</time>
      </trkpt>
      <trkpt lat="43.58298" lon="3.74184">
        <ele>97.8</ele>
        <time>2019-09-08T06:59:48Z</time>
      </trkpt>
      <trkpt lat="43.58304" lon="3.742">
        <ele>96.8</ele>
        <time>2019-09-08T06:59:52Z</time>
      </trkpt>
      <trkpt lat="43.58308" lon="3.74204">
        <ele>96.7</ele>
        <time>2019-09-08T06:59:53Z</time>
      </trkpt>
      <trkpt lat="43.58312" lon="3.74208">
        <ele>96.5</ele>
        <time>2019-09-08T06:59:54Z</time>
      </trkpt>
      <trkpt lat="43.58316" lon="3.74211">
        <ele>96.3</ele>
        <time>2019-09-08T06:59:55Z</time>
      </trkpt>
      <trkpt lat="43.58321" lon="3.74213">
        <ele>96.1</ele>
        <time>2019-09-08T06:59:56Z</time>
      </trkpt>
      <trkpt lat="43.58325" lon="3.74216">
        <ele>95.8</ele>
        <time>2019-09-08T06:59:57Z</time>
      </trkpt>
      <trkpt lat="43.58334" lon="3.74225">
        <ele>94.9</ele>
        <time>2019-09-08T06:59:59Z</time>
      </trkpt>
      <trkpt lat="43.58343" lon="3.74232">
        <ele>94.5</ele>
        <time>2019-09-08T07:00:01Z</time>
      </trkpt>
      <trkpt lat="43.58362" lon="3.74241">
        <ele>93.6</ele>
        <time>2019-09-08T07:00:06Z</time>
      </trkpt>
      <trkpt lat="43.58374" lon="3.74251">
        <ele>92.4</ele>
        <time>2019-09-08T07:00:11Z</time>
      </trkpt>
      <trkpt lat="43.58381" lon="3.74265">
        <ele>90.4</ele>
        <time>2019-09-08T07:00:15Z</time>
      </trkpt>
      <trkpt lat="43.58389" lon="3.74269">
        <ele>89.2</ele>
        <time>2019-09-08T07:00:18Z</time>
      </trkpt>
      <trkpt lat="43.58403" lon="3.74222">
        <ele>91</ele>
        <time>2019-09-08T07:00:31Z</time>
      </trkpt>
      <trkpt lat="43.58419" lon="3.74164">
        <ele>88.9</ele>
        <time>2019-09-08T07:00:40Z</time>
      </trkpt>
      <trkpt lat="43.58441" lon="3.74134">
        <ele>88.1</ele>
        <time>2019-09-08T07:00:46Z</time>
      </trkpt>
      <trkpt lat="43.58484" lon="3.74088">
        <ele>90.5</ele>
        <time>2019-09-08T07:01:00Z</time>
      </trkpt>
      <trkpt lat="43.58494" lon="3.74083">
        <ele>90.5</ele>
        <time>2019-09-08T07:01:03Z</time>
      </trkpt>
      <trkpt lat="43.58503" lon="3.74094">
        <ele>88.8</ele>
        <time>2019-09-08T07:01:07Z</time>
      </trkpt>
      <trkpt lat="43.58495" lon="3.74124">
        <ele>88.1</ele>
        <time>2019-09-08T07:01:14Z</time>
      </trkpt>
      <trkpt lat="43.58475" lon="3.74142">
        <ele>86.7</ele>
        <time>2019-09-08T07:01:21Z</time>
      </trkpt>
      <trkpt lat="43.58462" lon="3.74156">
        <ele>86.9</ele>
        <time>2019-09-08T07:01:25Z</time>
      </trkpt>
      <trkpt lat="43.58456" lon="3.74184">
        <ele>86.3</ele>
        <time>2019-09-08T07:01:32Z</time>
      </trkpt>
      <trkpt lat="43.5847" lon="3.74232">
        <ele>89.4</ele>
        <time>2019-09-08T07:01:45Z</time>
      </trkpt>
      <trkpt lat="43.58471" lon="3.74234">
        <ele>89.7</ele>
        <time>2019-09-08T07:01:46Z</time>
      </trkpt>
      <trkpt lat="43.5848" lon="3.74257">
        <ele>92.1</ele>
        <time>2019-09-08T07:01:56Z</time>
      </trkpt>
      <trkpt lat="43.58487" lon="3.74295">
        <ele>93.9</ele>
        <time>2019-09-08T07:02:08Z</time>
      </trkpt>
      <trkpt lat="43.58493" lon="3.74343">
        <ele>92.4</ele>
        <time>2019-09-08T07:02:19Z</time>
      </trkpt>
      <trkpt lat="43.58528" lon="3.7435">
        <ele>94.8</ele>
        <time>2019-09-08T07:02:31Z</time>
      </trkpt>
      <trkpt lat="43.58576" lon="3.74347">
        <ele>96.4</ele>
        <time>2019-09-08T07:02:45Z</time>
      </trkpt>
      <trkpt lat="43.58614" lon="3.74336">
        <ele>97.5</ele>
        <time>2019-09-08T07:02:57Z</time>
      </trkpt>
      <trkpt lat="43.58626" lon="3.74298">
        <ele>101.2</ele>
        <time>2019-09-08T07:03:09Z</time>
      </trkpt>
      <trkpt lat="43.58654" lon="3.74291">
        <ele>101</ele>
        <time>2019-09-08T07:03:19Z</time>
      </trkpt>
      <trkpt lat="43.58705" lon="3.74303">
        <ele>98.7</ele>
        <time>2019-09-08T07:03:30Z</time>
      </trkpt>
      <trkpt lat="43.58709" lon="3.74302">
        <ele>98.9</ele>
        <time>2019-09-08T07:03:31Z</time>
      </trkpt>
      <trkpt lat="43.58712" lon="3.74301">
        <ele>99.1</ele>
        <time>2019-09-08T07:03:32Z</time>
      </trkpt>
      <trkpt lat="43.58714" lon="3.74299">
        <ele>99.4</ele>
        <time>2019-09-08T07:03:33Z</time>
      </trkpt>
      <trkpt lat="43.58715" lon="3.74297">
        <ele>99.7</ele>
        <time>2019-09-08T07:03:34Z</time>
      </trkpt>
      <trkpt lat="43.58716" lon="3.74294">
        <ele>100</ele>
        <time>2019-09-08T07:03:35Z</time>
      </trkpt>
      <trkpt lat="43.58717" lon="3.74291">
        <ele>100.4</ele>
        <time>2019-09-08T07:03:36Z</time>
      </trkpt>
      <trkpt lat="43.58726" lon="3.74248">
        <ele>104.3</ele>
        <time>2019-09-08T07:03:50Z</time>
      </trkpt>
      <trkpt lat="43.58731" lon="3.74214">
        <ele>106.8</ele>
        <time>2019-09-08T07:04:01Z</time>
      </trkpt>
      <trkpt lat="43.5873" lon="3.74134">
        <ele>105.1</ele>
        <time>2019-09-08T07:04:18Z</time>
      </trkpt>
      <trkpt lat="43.58729" lon="3.74097">
        <ele>101.6</ele>
        <time>2019-09-08T07:04:22Z</time>
      </trkpt>
      <trkpt lat="43.58744" lon="3.74054">
        <ele>99.2</ele>
        <time>2019-09-08T07:04:28Z</time>
      </trkpt>
      <trkpt lat="43.58747" lon="3.74028">
        <ele>96.9</ele>
        <time>2019-09-08T07:04:32Z</time>
      </trkpt>
      <trkpt lat="43.58739" lon="3.7399">
        <ele>99.3</ele>
        <time>2019-09-08T07:04:43Z</time>
      </trkpt>
      <trkpt lat="43.58721" lon="3.73971">
        <ele>101.3</ele>
        <time>2019-09-08T07:04:54Z</time>
      </trkpt>
      <trkpt lat="43.58704" lon="3.73944">
        <ele>105</ele>
        <time>2019-09-08T07:05:05Z</time>
      </trkpt>
      <trkpt lat="43.58701" lon="3.73935">
        <ele>105.8</ele>
        <time>2019-09-08T07:05:08Z</time>
      </trkpt>
      <trkpt lat="43.58702" lon="3.73932">
        <ele>106</ele>
        <time>2019-09-08T07:05:09Z</time>
      </trkpt>
      <trkpt lat="43.58703" lon="3.7393">
        <ele>106.2</ele>
        <time>2019-09-08T07:05:10Z</time>
      </trkpt>
      <trkpt lat="43.58705" lon="3.73928">
        <ele>106.4</ele>
        <time>2019-09-08T07:05:11Z</time>
      </trkpt>
      <trkpt lat="43.58706" lon="3.73926">
        <ele>106.6</ele>
        <time>2019-09-08T07:05:12Z</time>
      </trkpt>
      <trkpt lat="43.58708" lon="3.73925">
        <ele>106.7</ele>
        <time>2019-09-08T07:05:13Z</time>
      </trkpt>
      <trkpt lat="43.5871" lon="3.73923">
        <ele>107</ele>
        <time>2019-09-08T07:05:14Z</time>
      </trkpt>
      <trkpt lat="43.58712" lon="3.73922">
        <ele>107.1</ele>
        <time>2019-09-08T07:05:15Z</time>
      </trkpt>
      <trkpt lat="43.58743" lon="3.73898">
        <ele>110.5</ele>
        <time>2019-09-08T07:05:32Z</time>
      </trkpt>
      <trkpt lat="43.58769" lon="3.73879">
        <ele>113.6</ele>
        <time>2019-09-08T07:05:47Z</time>
      </trkpt>
      <trkpt lat="43.58797" lon="3.73858">
        <ele>118</ele>
        <time>2019-09-08T07:06:04Z</time>
      </trkpt>
      <trkpt lat="43.58804" lon="3.73829">
        <ele>121.1</ele>
        <time>2019-09-08T07:06:18Z</time>
      </trkpt>
      <trkpt lat="43.5881" lon="3.73796">
        <ele>123.9</ele>
        <time>2019-09-08T07:06:32Z</time>
      </trkpt>
      <trkpt lat="43.58823" lon="3.73772">
        <ele>127.3</ele>
        <time>2019-09-08T07:06:44Z</time>
      </trkpt>
      <trkpt lat="43.58829" lon="3.73722">
        <ele>128.2</ele>
        <time>2019-09-08T07:06:59Z</time>
      </trkpt>
      <trkpt lat="43.58827" lon="3.73719">
        <ele>127.7</ele>
        <time>2019-09-08T07:07:00Z</time>
      </trkpt>
      <trkpt lat="43.58826" lon="3.73715">
        <ele>127.4</ele>
        <time>2019-09-08T07:07:01Z</time>
      </trkpt>
      <trkpt lat="43.58825" lon="3.7371">
        <ele>126.9</ele>
        <time>2019-09-08T07:07:02Z</time>
      </trkpt>
      <trkpt lat="43.58826" lon="3.73705">
        <ele>126.9</ele>
        <time>2019-09-08T07:07:03Z</time>
      </trkpt>
      <trkpt lat="43.58827" lon="3.73702">
        <ele>127</ele>
        <time>2019-09-08T07:07:04Z</time>
      </trkpt>
      <trkpt lat="43.58828" lon="3.73699">
        <ele>127</ele>
        <time>2019-09-08T07:07:05Z</time>
      </trkpt>
      <trkpt lat="43.58829" lon="3.73697">
        <ele>127.2</ele>
        <time>2019-09-08T07:07:06Z</time>
      </trkpt>
      <trkpt lat="43.58831" lon="3.73695">
        <ele>127.5</ele>
        <time>2019-09-08T07:07:07Z</time>
      </trkpt>
      <trkpt lat="43.58832" lon="3.73692">
        <ele>127.5</ele>
        <time>2019-09-08T07:07:08Z</time>
      </trkpt>
      <trkpt lat="43.58834" lon="3.73688">
        <ele>127.6</ele>
        <time>2019-09-08T07:07:09Z</time>
      </trkpt>
      <trkpt lat="43.58839" lon="3.73644">
        <ele>123.7</ele>
        <time>2019-09-08T07:07:18Z</time>
      </trkpt>
      <trkpt lat="43.58839" lon="3.7364">
        <ele>123.2</ele>
        <time>2019-09-08T07:07:19Z</time>
      </trkpt>
      <trkpt lat="43.5884" lon="3.73638">
        <ele>123.2</ele>
        <time>2019-09-08T07:07:20Z</time>
      </trkpt>
      <trkpt lat="43.58841" lon="3.73636">
        <ele>123.4</ele>
        <time>2019-09-08T07:07:21Z</time>
      </trkpt>
      <trkpt lat="43.58842" lon="3.73634">
        <ele>123.6</ele>
        <time>2019-09-08T07:07:22Z</time>
      </trkpt>
      <trkpt lat="43.58844" lon="3.73632">
        <ele>124</ele>
        <time>2019-09-08T07:07:23Z</time>
      </trkpt>
      <trkpt lat="43.58846" lon="3.7363">
        <ele>124.3</ele>
        <time>2019-09-08T07:07:24Z</time>
      </trkpt>
      <trkpt lat="43.5886" lon="3.7361">
        <ele>125.9</ele>
        <time>2019-09-08T07:07:32Z</time>
      </trkpt>
      <trkpt lat="43.58861" lon="3.73607">
        <ele>126.1</ele>
        <time>2019-09-08T07:07:33Z</time>
      </trkpt>
      <trkpt lat="43.58863" lon="3.73604">
        <ele>126.4</ele>
        <time>2019-09-08T07:07:34Z</time>
      </trkpt>
      <trkpt lat="43.58864" lon="3.73602">
        <ele>126.6</ele>
        <time>2019-09-08T07:07:35Z</time>
      </trkpt>
      <trkpt lat="43.58866" lon="3.73599">
        <ele>126.9</ele>
        <time>2019-09-08T07:07:36Z</time>
      </trkpt>
      <trkpt lat="43.58886" lon="3.73566">
        <ele>129.8</ele>
        <time>2019-09-08T07:07:49Z</time>
      </trkpt>
      <trkpt lat="43.58906" lon="3.73528">
        <ele>130.2</ele>
        <time>2019-09-08T07:08:02Z</time>
      </trkpt>
      <trkpt lat="43.58936" lon="3.73478">
        <ele>129.4</ele>
        <time>2019-09-08T07:08:14Z</time>
      </trkpt>
      <trkpt lat="43.58941" lon="3.73468">
        <ele>129</ele>
        <time>2019-09-08T07:08:16Z</time>
      </trkpt>
      <trkpt lat="43.58982" lon="3.73435">
        <ele>127.3</ele>
        <time>2019-09-08T07:08:28Z</time>
      </trkpt>
      <trkpt lat="43.59015" lon="3.73438">
        <ele>126.8</ele>
        <time>2019-09-08T07:08:36Z</time>
      </trkpt>
      <trkpt lat="43.59032" lon="3.73437">
        <ele>126.6</ele>
        <time>2019-09-08T07:08:40Z</time>
      </trkpt>
      <trkpt lat="43.59041" lon="3.73434">
        <ele>126.7</ele>
        <time>2019-09-08T07:08:42Z</time>
      </trkpt>
      <trkpt lat="43.59049" lon="3.73429">
        <ele>126.7</ele>
        <time>2019-09-08T07:08:44Z</time>
      </trkpt>
      <trkpt lat="43.59092" lon="3.73407">
        <ele>128.6</ele>
        <time>2019-09-08T07:08:56Z</time>
      </trkpt>
      <trkpt lat="43.59125" lon="3.73388">
        <ele>130</ele>
        <time>2019-09-08T07:09:09Z</time>
      </trkpt>
      <trkpt lat="43.59157" lon="3.7337">
        <ele>132.6</ele>
        <time>2019-09-08T07:09:22Z</time>
      </trkpt>
      <trkpt lat="43.5918" lon="3.73356">
        <ele>133.3</ele>
        <time>2019-09-08T07:09:32Z</time>
      </trkpt>
      <trkpt lat="43.59199" lon="3.73361">
        <ele>135.2</ele>
        <time>2019-09-08T07:09:44Z</time>
      </trkpt>
      <trkpt lat="43.59222" lon="3.73367">
        <ele>137.1</ele>
        <time>2019-09-08T07:09:55Z</time>
      </trkpt>
      <trkpt lat="43.5924" lon="3.7338">
        <ele>139.6</ele>
        <time>2019-09-08T07:10:06Z</time>
      </trkpt>
      <trkpt lat="43.59244" lon="3.73384">
        <ele>140.3</ele>
        <time>2019-09-08T07:10:08Z</time>
      </trkpt>
      <trkpt lat="43.59272" lon="3.73399">
        <ele>142.9</ele>
        <time>2019-09-08T07:10:22Z</time>
      </trkpt>
      <trkpt lat="43.59302" lon="3.7341">
        <ele>144.8</ele>
        <time>2019-09-08T07:10:35Z</time>
      </trkpt>
      <trkpt lat="43.59306" lon="3.7341">
        <ele>144.8</ele>
        <time>2019-09-08T07:10:37Z</time>
      </trkpt>
      <trkpt lat="43.59319" lon="3.73394">
        <ele>142.2</ele>
        <time>2019-09-08T07:10:41Z</time>
      </trkpt>
      <trkpt lat="43.59327" lon="3.73384">
        <ele>141.7</ele>
        <time>2019-09-08T07:10:44Z</time>
      </trkpt>
      <trkpt lat="43.59327" lon="3.73374">
        <ele>141.6</ele>
        <time>2019-09-08T07:10:48Z</time>
      </trkpt>
      <trkpt lat="43.5931" lon="3.73364">
        <ele>140.4</ele>
        <time>2019-09-08T07:10:53Z</time>
      </trkpt>
      <trkpt lat="43.59287" lon="3.73351">
        <ele>139.3</ele>
        <time>2019-09-08T07:10:59Z</time>
      </trkpt>
      <trkpt lat="43.59273" lon="3.73348">
        <ele>138.2</ele>
        <time>2019-09-08T07:11:02Z</time>
      </trkpt>
      <trkpt lat="43.59251" lon="3.73336">
        <ele>137.1</ele>
        <time>2019-09-08T07:11:10Z</time>
      </trkpt>
      <trkpt lat="43.59248" lon="3.73334">
        <ele>136.9</ele>
        <time>2019-09-08T07:11:11Z</time>
      </trkpt>
      <trkpt lat="43.59229" lon="3.7332">
        <ele>136.2</ele>
        <time>2019-09-08T07:11:20Z</time>
      </trkpt>
      <trkpt lat="43.59229" lon="3.73315">
        <ele>136.5</ele>
        <time>2019-09-08T07:11:23Z</time>
      </trkpt>
      <trkpt lat="43.59236" lon="3.73298">
        <ele>138.8</ele>
        <time>2019-09-08T07:11:32Z</time>
      </trkpt>
      <trkpt lat="43.59245" lon="3.73274">
        <ele>143</ele>
        <time>2019-09-08T07:11:43Z</time>
      </trkpt>
      <trkpt lat="43.59252" lon="3.73262">
        <ele>144.4</ele>
        <time>2019-09-08T07:11:51Z</time>
      </trkpt>
      <trkpt lat="43.59264" lon="3.73235">
        <ele>147.1</ele>
        <time>2019-09-08T07:12:06Z</time>
      </trkpt>
      <trkpt lat="43.59265" lon="3.73231">
        <ele>147.3</ele>
        <time>2019-09-08T07:12:08Z</time>
      </trkpt>
      <trkpt lat="43.59269" lon="3.73223">
        <ele>148</ele>
        <time>2019-09-08T07:12:12Z</time>
      </trkpt>
      <trkpt lat="43.59286" lon="3.73182">
        <ele>149.8</ele>
        <time>2019-09-08T07:12:28Z</time>
      </trkpt>
      <trkpt lat="43.5931" lon="3.73137">
        <ele>149.2</ele>
        <time>2019-09-08T07:12:43Z</time>
      </trkpt>
      <trkpt lat="43.59354" lon="3.73127">
        <ele>149</ele>
        <time>2019-09-08T07:12:56Z</time>
      </trkpt>
      <trkpt lat="43.59424" lon="3.73102">
        <ele>148</ele>
        <time>2019-09-08T07:13:10Z</time>
      </trkpt>
      <trkpt lat="43.59474" lon="3.73075">
        <ele>147.8</ele>
        <time>2019-09-08T07:13:22Z</time>
      </trkpt>
      <trkpt lat="43.59531" lon="3.7304">
        <ele>146.9</ele>
        <time>2019-09-08T07:13:34Z</time>
      </trkpt>
      <trkpt lat="43.59534" lon="3.73036">
        <ele>146.7</ele>
        <time>2019-09-08T07:13:35Z</time>
      </trkpt>
      <trkpt lat="43.59535" lon="3.73032">
        <ele>146.5</ele>
        <time>2019-09-08T07:13:36Z</time>
      </trkpt>
      <trkpt lat="43.59536" lon="3.73028">
        <ele>146.3</ele>
        <time>2019-09-08T07:13:37Z</time>
      </trkpt>
      <trkpt lat="43.59536" lon="3.73025">
        <ele>146.1</ele>
        <time>2019-09-08T07:13:38Z</time>
      </trkpt>
      <trkpt lat="43.59534" lon="3.73021">
        <ele>145.7</ele>
        <time>2019-09-08T07:13:39Z</time>
      </trkpt>
      <trkpt lat="43.59531" lon="3.73018">
        <ele>145.4</ele>
        <time>2019-09-08T07:13:40Z</time>
      </trkpt>
      <trkpt lat="43.59528" lon="3.73016">
        <ele>145.2</ele>
        <time>2019-09-08T07:13:41Z</time>
      </trkpt>
      <trkpt lat="43.59524" lon="3.73014">
        <ele>144.9</ele>
        <time>2019-09-08T07:13:42Z</time>
      </trkpt>
      <trkpt lat="43.59466" lon="3.72994">
        <ele>141.2</ele>
        <time>2019-09-08T07:13:53Z</time>
      </trkpt>
      <trkpt lat="43.59462" lon="3.72992">
        <ele>140.8</ele>
        <time>2019-09-08T07:13:54Z</time>
      </trkpt>
      <trkpt lat="43.59459" lon="3.72987">
        <ele>140.3</ele>
        <time>2019-09-08T07:13:55Z</time>
      </trkpt>
      <trkpt lat="43.59457" lon="3.72981">
        <ele>139.9</ele>
        <time>2019-09-08T07:13:56Z</time>
      </trkpt>
      <trkpt lat="43.59456" lon="3.72974">
        <ele>139.5</ele>
        <time>2019-09-08T07:13:57Z</time>
      </trkpt>
      <trkpt lat="43.59456" lon="3.72965">
        <ele>139</ele>
        <time>2019-09-08T07:13:58Z</time>
      </trkpt>
      <trkpt lat="43.59456" lon="3.72956">
        <ele>138.5</ele>
        <time>2019-09-08T07:13:59Z</time>
      </trkpt>
      <trkpt lat="43.59455" lon="3.72937">
        <ele>137.2</ele>
        <time>2019-09-08T07:14:01Z</time>
      </trkpt>
      <trkpt lat="43.59456" lon="3.72927">
        <ele>136.6</ele>
        <time>2019-09-08T07:14:02Z</time>
      </trkpt>
      <trkpt lat="43.59458" lon="3.72917">
        <ele>136</ele>
        <time>2019-09-08T07:14:03Z</time>
      </trkpt>
      <trkpt lat="43.59461" lon="3.72908">
        <ele>135.9</ele>
        <time>2019-09-08T07:14:04Z</time>
      </trkpt>
      <trkpt lat="43.59464" lon="3.729">
        <ele>135.8</ele>
        <time>2019-09-08T07:14:05Z</time>
      </trkpt>
      <trkpt lat="43.59487" lon="3.72835">
        <ele>135.2</ele>
        <time>2019-09-08T07:14:16Z</time>
      </trkpt>
      <trkpt lat="43.59498" lon="3.72806">
        <ele>133</ele>
        <time>2019-09-08T07:14:23Z</time>
      </trkpt>
      <trkpt lat="43.59499" lon="3.72806">
        <ele>133</ele>
        <time>2019-09-08T07:14:24Z</time>
      </trkpt>
      <trkpt lat="43.59507" lon="3.72801">
        <ele>132.9</ele>
        <time>2019-09-08T07:14:28Z</time>
      </trkpt>
      <trkpt lat="43.59509" lon="3.72798">
        <ele>132.8</ele>
        <time>2019-09-08T07:14:29Z</time>
      </trkpt>
      <trkpt lat="43.59511" lon="3.72794">
        <ele>132.6</ele>
        <time>2019-09-08T07:14:30Z</time>
      </trkpt>
      <trkpt lat="43.59539" lon="3.72769">
        <ele>133.1</ele>
        <time>2019-09-08T07:14:40Z</time>
      </trkpt>
      <trkpt lat="43.59581" lon="3.7276">
        <ele>135.9</ele>
        <time>2019-09-08T07:14:53Z</time>
      </trkpt>
      <trkpt lat="43.59623" lon="3.72743">
        <ele>139.5</ele>
        <time>2019-09-08T07:15:08Z</time>
      </trkpt>
      <trkpt lat="43.59642" lon="3.72728">
        <ele>141</ele>
        <time>2019-09-08T07:15:17Z</time>
      </trkpt>
      <trkpt lat="43.59641" lon="3.72725">
        <ele>141</ele>
        <time>2019-09-08T07:15:18Z</time>
      </trkpt>
      <trkpt lat="43.59641" lon="3.72722">
        <ele>141.1</ele>
        <time>2019-09-08T07:15:19Z</time>
      </trkpt>
      <trkpt lat="43.59641" lon="3.72697">
        <ele>142.8</ele>
        <time>2019-09-08T07:15:27Z</time>
      </trkpt>
      <trkpt lat="43.5964" lon="3.72695">
        <ele>142.9</ele>
        <time>2019-09-08T07:15:28Z</time>
      </trkpt>
      <trkpt lat="43.59617" lon="3.7267">
        <ele>144.7</ele>
        <time>2019-09-08T07:15:41Z</time>
      </trkpt>
      <trkpt lat="43.59611" lon="3.72668">
        <ele>145</ele>
        <time>2019-09-08T07:15:43Z</time>
      </trkpt>
      <trkpt lat="43.59611" lon="3.72659">
        <ele>145.3</ele>
        <time>2019-09-08T07:15:47Z</time>
      </trkpt>
      <trkpt lat="43.59623" lon="3.72617">
        <ele>145.7</ele>
        <time>2019-09-08T07:15:57Z</time>
      </trkpt>
      <trkpt lat="43.59622" lon="3.7258">
        <ele>145.8</ele>
        <time>2019-09-08T07:16:05Z</time>
      </trkpt>
      <trkpt lat="43.59633" lon="3.72571">
        <ele>144.6</ele>
        <time>2019-09-08T07:16:09Z</time>
      </trkpt>
      <trkpt lat="43.5964" lon="3.72571">
        <ele>144</ele>
        <time>2019-09-08T07:16:11Z</time>
      </trkpt>
      <trkpt lat="43.59656" lon="3.7256">
        <ele>143.4</ele>
        <time>2019-09-08T07:16:20Z</time>
      </trkpt>
      <trkpt lat="43.59657" lon="3.72557">
        <ele>143.3</ele>
        <time>2019-09-08T07:16:21Z</time>
      </trkpt>
      <trkpt lat="43.59659" lon="3.72546">
        <ele>143.3</ele>
        <time>2019-09-08T07:16:24Z</time>
      </trkpt>
      <trkpt lat="43.59673" lon="3.72532">
        <ele>143</ele>
        <time>2019-09-08T07:16:29Z</time>
      </trkpt>
      <trkpt lat="43.59678" lon="3.72501">
        <ele>144</ele>
        <time>2019-09-08T07:16:37Z</time>
      </trkpt>
      <trkpt lat="43.59678" lon="3.72481">
        <ele>145.4</ele>
        <time>2019-09-08T07:16:44Z</time>
      </trkpt>
      <trkpt lat="43.59682" lon="3.72465">
        <ele>146.3</ele>
        <time>2019-09-08T07:16:50Z</time>
      </trkpt>
      <trkpt lat="43.59693" lon="3.72456">
        <ele>146.6</ele>
        <time>2019-09-08T07:16:56Z</time>
      </trkpt>
      <trkpt lat="43.59699" lon="3.72412">
        <ele>148.2</ele>
        <time>2019-09-08T07:17:08Z</time>
      </trkpt>
      <trkpt lat="43.59714" lon="3.72376">
        <ele>149.8</ele>
        <time>2019-09-08T07:17:20Z</time>
      </trkpt>
      <trkpt lat="43.59735" lon="3.72353">
        <ele>151.9</ele>
        <time>2019-09-08T07:17:33Z</time>
      </trkpt>
      <trkpt lat="43.59725" lon="3.72275">
        <ele>154.6</ele>
        <time>2019-09-08T07:17:51Z</time>
      </trkpt>
      <trkpt lat="43.59719" lon="3.72178">
        <ele>156.6</ele>
        <time>2019-09-08T07:18:13Z</time>
      </trkpt>
      <trkpt lat="43.59712" lon="3.72129">
        <ele>160.2</ele>
        <time>2019-09-08T07:18:27Z</time>
      </trkpt>
      <trkpt lat="43.59721" lon="3.72092">
        <ele>163.3</ele>
        <time>2019-09-08T07:18:39Z</time>
      </trkpt>
      <trkpt lat="43.59717" lon="3.72052">
        <ele>165.9</ele>
        <time>2019-09-08T07:18:53Z</time>
      </trkpt>
      <trkpt lat="43.59718" lon="3.72003">
        <ele>169.5</ele>
        <time>2019-09-08T07:19:10Z</time>
      </trkpt>
      <trkpt lat="43.59723" lon="3.71967">
        <ele>172.5</ele>
        <time>2019-09-08T07:19:23Z</time>
      </trkpt>
      <trkpt lat="43.59725" lon="3.71937">
        <ele>175.6</ele>
        <time>2019-09-08T07:19:35Z</time>
      </trkpt>
      <trkpt lat="43.59729" lon="3.71904">
        <ele>178.3</ele>
        <time>2019-09-08T07:19:48Z</time>
      </trkpt>
      <trkpt lat="43.59739" lon="3.71867">
        <ele>180.8</ele>
        <time>2019-09-08T07:20:03Z</time>
      </trkpt>
      <trkpt lat="43.59763" lon="3.71815">
        <ele>183.1</ele>
        <time>2019-09-08T07:20:22Z</time>
      </trkpt>
      <trkpt lat="43.59786" lon="3.71767">
        <ele>187.5</ele>
        <time>2019-09-08T07:20:39Z</time>
      </trkpt>
      <trkpt lat="43.59827" lon="3.71754">
        <ele>188.6</ele>
        <time>2019-09-08T07:20:54Z</time>
      </trkpt>
      <trkpt lat="43.59839" lon="3.71764">
        <ele>189</ele>
        <time>2019-09-08T07:20:58Z</time>
      </trkpt>
      <trkpt lat="43.59847" lon="3.71781">
        <ele>190</ele>
        <time>2019-09-08T07:21:02Z</time>
      </trkpt>
      <trkpt lat="43.59852" lon="3.71852">
        <ele>192.7</ele>
        <time>2019-09-08T07:21:21Z</time>
      </trkpt>
      <trkpt lat="43.59853" lon="3.71866">
        <ele>193.2</ele>
        <time>2019-09-08T07:21:25Z</time>
      </trkpt>
      <trkpt lat="43.59863" lon="3.71858">
        <ele>195.7</ele>
        <time>2019-09-08T07:21:31Z</time>
      </trkpt>
      <trkpt lat="43.59875" lon="3.71805">
        <ele>197.5</ele>
        <time>2019-09-08T07:21:45Z</time>
      </trkpt>
      <trkpt lat="43.599" lon="3.71764">
        <ele>200.7</ele>
        <time>2019-09-08T07:21:59Z</time>
      </trkpt>
      <trkpt lat="43.5993" lon="3.71737">
        <ele>204</ele>
        <time>2019-09-08T07:22:13Z</time>
      </trkpt>
      <trkpt lat="43.59954" lon="3.71761">
        <ele>206.6</ele>
        <time>2019-09-08T07:22:25Z</time>
      </trkpt>
      <trkpt lat="43.59993" lon="3.71802">
        <ele>209.8</ele>
        <time>2019-09-08T07:22:43Z</time>
      </trkpt>
      <trkpt lat="43.60026" lon="3.71828">
        <ele>213.1</ele>
        <time>2019-09-08T07:22:56Z</time>
      </trkpt>
      <trkpt lat="43.60063" lon="3.71843">
        <ele>216.6</ele>
        <time>2019-09-08T07:23:10Z</time>
      </trkpt>
      <trkpt lat="43.60089" lon="3.71859">
        <ele>218.5</ele>
        <time>2019-09-08T07:23:21Z</time>
      </trkpt>
      <trkpt lat="43.60122" lon="3.71901">
        <ele>220.7</ele>
        <time>2019-09-08T07:23:38Z</time>
      </trkpt>
      <trkpt lat="43.60154" lon="3.7199">
        <ele>225.4</ele>
        <time>2019-09-08T07:23:58Z</time>
      </trkpt>
      <trkpt lat="43.60188" lon="3.72029">
        <ele>226.6</ele>
        <time>2019-09-08T07:24:11Z</time>
      </trkpt>
      <trkpt lat="43.60223" lon="3.72002">
        <ele>230.1</ele>
        <time>2019-09-08T07:24:24Z</time>
      </trkpt>
      <trkpt lat="43.60251" lon="3.7201">
        <ele>232.3</ele>
        <time>2019-09-08T07:24:35Z</time>
      </trkpt>
      <trkpt lat="43.6027" lon="3.72027">
        <ele>232.3</ele>
        <time>2019-09-08T07:24:44Z</time>
      </trkpt>
      <trkpt lat="43.60279" lon="3.72007">
        <ele>231.9</ele>
        <time>2019-09-08T07:24:50Z</time>
      </trkpt>
      <trkpt lat="43.60328" lon="3.7193">
        <ele>227.5</ele>
        <time>2019-09-08T07:25:06Z</time>
      </trkpt>
      <trkpt lat="43.60342" lon="3.71907">
        <ele>225.9</ele>
        <time>2019-09-08T07:25:10Z</time>
      </trkpt>
      <trkpt lat="43.60382" lon="3.71845">
        <ele>222</ele>
        <time>2019-09-08T07:25:20Z</time>
      </trkpt>
      <trkpt lat="43.60404" lon="3.71809">
        <ele>221</ele>
        <time>2019-09-08T07:25:25Z</time>
      </trkpt>
      <trkpt lat="43.60431" lon="3.71779">
        <ele>220.8</ele>
        <time>2019-09-08T07:25:31Z</time>
      </trkpt>
      <trkpt lat="43.60453" lon="3.71771">
        <ele>218.6</ele>
        <time>2019-09-08T07:25:35Z</time>
      </trkpt>
      <trkpt lat="43.60467" lon="3.71769">
        <ele>217</ele>
        <time>2019-09-08T07:25:37Z</time>
      </trkpt>
      <trkpt lat="43.60507" lon="3.71778">
        <ele>212.5</ele>
        <time>2019-09-08T07:25:43Z</time>
      </trkpt>
      <trkpt lat="43.60531" lon="3.71789">
        <ele>209.6</ele>
        <time>2019-09-08T07:25:48Z</time>
      </trkpt>
      <trkpt lat="43.60537" lon="3.71793">
        <ele>208.7</ele>
        <time>2019-09-08T07:25:49Z</time>
      </trkpt>
      <trkpt lat="43.60565" lon="3.71812">
        <ele>205.3</ele>
        <time>2019-09-08T07:25:54Z</time>
      </trkpt>
      <trkpt lat="43.60574" lon="3.71824">
        <ele>204.4</ele>
        <time>2019-09-08T07:26:00Z</time>
      </trkpt>
      <trkpt lat="43.60571" lon="3.71826">
        <ele>204.4</ele>
        <time>2019-09-08T07:26:01Z</time>
      </trkpt>
      <trkpt lat="43.60565" lon="3.71831">
        <ele>204.1</ele>
        <time>2019-09-08T07:26:03Z</time>
      </trkpt>
      <trkpt lat="43.60553" lon="3.71845">
        <ele>201.7</ele>
        <time>2019-09-08T07:26:07Z</time>
      </trkpt>
      <trkpt lat="43.60541" lon="3.71856">
        <ele>198.5</ele>
        <time>2019-09-08T07:26:11Z</time>
      </trkpt>
      <trkpt lat="43.60521" lon="3.71863">
        <ele>194.2</ele>
        <time>2019-09-08T07:26:17Z</time>
      </trkpt>
      <trkpt lat="43.6051" lon="3.71869">
        <ele>190.5</ele>
        <time>2019-09-08T07:26:20Z</time>
      </trkpt>
      <trkpt lat="43.60487" lon="3.71877">
        <ele>186.9</ele>
        <time>2019-09-08T07:26:25Z</time>
      </trkpt>
      <trkpt lat="43.60476" lon="3.71893">
        <ele>182.9</ele>
        <time>2019-09-08T07:26:28Z</time>
      </trkpt>
      <trkpt lat="43.60475" lon="3.71911">
        <ele>179</ele>
        <time>2019-09-08T07:26:31Z</time>
      </trkpt>
      <trkpt lat="43.60487" lon="3.71929">
        <ele>174.8</ele>
        <time>2019-09-08T07:26:34Z</time>
      </trkpt>
      <trkpt lat="43.60512" lon="3.71956">
        <ele>169.5</ele>
        <time>2019-09-08T07:26:39Z</time>
      </trkpt>
      <trkpt lat="43.60515" lon="3.71963">
        <ele>168.7</ele>
        <time>2019-09-08T07:26:40Z</time>
      </trkpt>
      <trkpt lat="43.60521" lon="3.7198">
        <ele>166.5</ele>
        <time>2019-09-08T07:26:43Z</time>
      </trkpt>
      <trkpt lat="43.6053" lon="3.71984">
        <ele>166</ele>
        <time>2019-09-08T07:26:47Z</time>
      </trkpt>
      <trkpt lat="43.60553" lon="3.72">
        <ele>165.8</ele>
        <time>2019-09-08T07:26:57Z</time>
      </trkpt>
      <trkpt lat="43.60563" lon="3.72014">
        <ele>166.4</ele>
        <time>2019-09-08T07:27:00Z</time>
      </trkpt>
      <trkpt lat="43.60587" lon="3.7205">
        <ele>167.8</ele>
        <time>2019-09-08T07:27:08Z</time>
      </trkpt>
      <trkpt lat="43.60604" lon="3.72077">
        <ele>167.5</ele>
        <time>2019-09-08T07:27:14Z</time>
      </trkpt>
      <trkpt lat="43.6061" lon="3.72086">
        <ele>167.4</ele>
        <time>2019-09-08T07:27:16Z</time>
      </trkpt>
      <trkpt lat="43.60618" lon="3.72094">
        <ele>167</ele>
        <time>2019-09-08T07:27:18Z</time>
      </trkpt>
      <trkpt lat="43.6064" lon="3.72108">
        <ele>166.6</ele>
        <time>2019-09-08T07:27:23Z</time>
      </trkpt>
      <trkpt lat="43.60662" lon="3.72147">
        <ele>167.5</ele>
        <time>2019-09-08T07:27:32Z</time>
      </trkpt>
      <trkpt lat="43.60681" lon="3.72191">
        <ele>170.3</ele>
        <time>2019-09-08T07:27:43Z</time>
      </trkpt>
      <trkpt lat="43.60688" lon="3.72228">
        <ele>171.6</ele>
        <time>2019-09-08T07:27:53Z</time>
      </trkpt>
      <trkpt lat="43.60682" lon="3.72275">
        <ele>174.4</ele>
        <time>2019-09-08T07:28:07Z</time>
      </trkpt>
      <trkpt lat="43.60677" lon="3.72291">
        <ele>175.1</ele>
        <time>2019-09-08T07:28:12Z</time>
      </trkpt>
      <trkpt lat="43.60678" lon="3.72302">
        <ele>176.1</ele>
        <time>2019-09-08T07:28:17Z</time>
      </trkpt>
      <trkpt lat="43.60688" lon="3.72312">
        <ele>176.9</ele>
        <time>2019-09-08T07:28:26Z</time>
      </trkpt>
      <trkpt lat="43.60691" lon="3.72315">
        <ele>177</ele>
        <time>2019-09-08T07:28:40Z</time>
      </trkpt>
      <trkpt lat="43.6069" lon="3.72315">
        <ele>176.9</ele>
        <time>2019-09-08T07:29:22Z</time>
      </trkpt>
      <trkpt lat="43.60687" lon="3.72311">
        <ele>176.8</ele>
        <time>2019-09-08T07:30:05Z</time>
      </trkpt>
      <trkpt lat="43.60685" lon="3.7231">
        <ele>176.8</ele>
        <time>2019-09-08T07:30:48Z</time>
      </trkpt>
      <trkpt lat="43.60686" lon="3.72313">
        <ele>176.9</ele>
        <time>2019-09-08T07:31:45Z</time>
      </trkpt>
      <trkpt lat="43.60688" lon="3.72315">
        <ele>176.9</ele>
        <time>2019-09-08T07:32:53Z</time>
      </trkpt>
      <trkpt lat="43.60689" lon="3.72314">
        <ele>176.9</ele>
        <time>2019-09-08T07:33:40Z</time>
      </trkpt>
      <trkpt lat="43.60688" lon="3.72314">
        <ele>176.9</ele>
        <time>2019-09-08T07:34:24Z</time>
      </trkpt>
      <trkpt lat="43.60689" lon="3.72314">
        <ele>176.9</ele>
        <time>2019-09-08T07:34:57Z</time>
      </trkpt>
      <trkpt lat="43.60689" lon="3.72315">
        <ele>176.9</ele>
        <time>2019-09-08T07:35:22Z</time>
      </trkpt>
      <trkpt lat="43.60689" lon="3.72313">
        <ele>176.9</ele>
        <time>2019-09-08T07:36:12Z</time>
      </trkpt>
      <trkpt lat="43.60688" lon="3.7231">
        <ele>176.8</ele>
        <time>2019-09-08T07:36:47Z</time>
      </trkpt>
      <trkpt lat="43.60687" lon="3.7231">
        <ele>176.8</ele>
        <time>2019-09-08T07:37:21Z</time>
      </trkpt>
      <trkpt lat="43.60688" lon="3.72311">
        <ele>176.9</ele>
        <time>2019-09-08T07:37:54Z</time>
      </trkpt>
      <trkpt lat="43.60688" lon="3.72312">
        <ele>176.9</ele>
        <time>2019-09-08T07:39:19Z</time>
      </trkpt>
      <trkpt lat="43.6069" lon="3.72316">
        <ele>177</ele>
        <time>2019-09-08T07:39:54Z</time>
      </trkpt>
      <trkpt lat="43.60688" lon="3.72315">
        <ele>176.9</ele>
        <time>2019-09-08T07:41:26Z</time>
      </trkpt>
      <trkpt lat="43.60689" lon="3.72314">
        <ele>176.9</ele>
        <time>2019-09-08T07:42:09Z</time>
      </trkpt>
      <trkpt lat="43.6069" lon="3.72315">
        <ele>176.9</ele>
        <time>2019-09-08T07:42:25Z</time>
      </trkpt>
      <trkpt lat="43.60692" lon="3.72314">
        <ele>177</ele>
        <time>2019-09-08T07:42:41Z</time>
      </trkpt>
      <trkpt lat="43.60695" lon="3.72306">
        <ele>177</ele>
        <time>2019-09-08T07:42:46Z</time>
      </trkpt>
      <trkpt lat="43.60696" lon="3.72303">
        <ele>176.9</ele>
        <time>2019-09-08T07:42:47Z</time>
      </trkpt>
      <trkpt lat="43.60698" lon="3.72299">
        <ele>176.8</ele>
        <time>2019-09-08T07:42:48Z</time>
      </trkpt>
      <trkpt lat="43.607" lon="3.72297">
        <ele>176.8</ele>
        <time>2019-09-08T07:42:49Z</time>
      </trkpt>
      <trkpt lat="43.60701" lon="3.72294">
        <ele>176.8</ele>
        <time>2019-09-08T07:42:50Z</time>
      </trkpt>
      <trkpt lat="43.60703" lon="3.72292">
        <ele>176.8</ele>
        <time>2019-09-08T07:42:51Z</time>
      </trkpt>
      <trkpt lat="43.60704" lon="3.72289">
        <ele>176.9</ele>
        <time>2019-09-08T07:42:52Z</time>
      </trkpt>
      <trkpt lat="43.60705" lon="3.72286">
        <ele>177</ele>
        <time>2019-09-08T07:42:53Z</time>
      </trkpt>
      <trkpt lat="43.6072" lon="3.72246">
        <ele>179.6</ele>
        <time>2019-09-08T07:43:07Z</time>
      </trkpt>
      <trkpt lat="43.60721" lon="3.72189">
        <ele>182.2</ele>
        <time>2019-09-08T07:43:23Z</time>
      </trkpt>
      <trkpt lat="43.60717" lon="3.72145">
        <ele>185</ele>
        <time>2019-09-08T07:43:37Z</time>
      </trkpt>
      <trkpt lat="43.60715" lon="3.72112">
        <ele>188.3</ele>
        <time>2019-09-08T07:43:48Z</time>
      </trkpt>
      <trkpt lat="43.60721" lon="3.72062">
        <ele>191.6</ele>
        <time>2019-09-08T07:44:06Z</time>
      </trkpt>
      <trkpt lat="43.60717" lon="3.7202">
        <ele>194.6</ele>
        <time>2019-09-08T07:44:24Z</time>
      </trkpt>
      <trkpt lat="43.60701" lon="3.71995">
        <ele>197.2</ele>
        <time>2019-09-08T07:44:39Z</time>
      </trkpt>
      <trkpt lat="43.60684" lon="3.7197">
        <ele>200.2</ele>
        <time>2019-09-08T07:44:54Z</time>
      </trkpt>
      <trkpt lat="43.60678" lon="3.71941">
        <ele>203.6</ele>
        <time>2019-09-08T07:45:06Z</time>
      </trkpt>
      <trkpt lat="43.60672" lon="3.71904">
        <ele>206</ele>
        <time>2019-09-08T07:45:21Z</time>
      </trkpt>
      <trkpt lat="43.60667" lon="3.7187">
        <ele>205.3</ele>
        <time>2019-09-08T07:45:33Z</time>
      </trkpt>
      <trkpt lat="43.60689" lon="3.7186">
        <ele>206.5</ele>
        <time>2019-09-08T07:45:42Z</time>
      </trkpt>
      <trkpt lat="43.60728" lon="3.71875">
        <ele>209.8</ele>
        <time>2019-09-08T07:46:01Z</time>
      </trkpt>
      <trkpt lat="43.60751" lon="3.71904">
        <ele>211.9</ele>
        <time>2019-09-08T07:46:17Z</time>
      </trkpt>
      <trkpt lat="43.60782" lon="3.71946">
        <ele>210.3</ele>
        <time>2019-09-08T07:46:30Z</time>
      </trkpt>
      <trkpt lat="43.6079" lon="3.71958">
        <ele>209.2</ele>
        <time>2019-09-08T07:46:33Z</time>
      </trkpt>
      <trkpt lat="43.60803" lon="3.71982">
        <ele>208.2</ele>
        <time>2019-09-08T07:46:43Z</time>
      </trkpt>
      <trkpt lat="43.60806" lon="3.71988">
        <ele>207.9</ele>
        <time>2019-09-08T07:46:45Z</time>
      </trkpt>
      <trkpt lat="43.60812" lon="3.72009">
        <ele>205.8</ele>
        <time>2019-09-08T07:46:49Z</time>
      </trkpt>
      <trkpt lat="43.60829" lon="3.72014">
        <ele>200.7</ele>
        <time>2019-09-08T07:46:56Z</time>
      </trkpt>
      <trkpt lat="43.60835" lon="3.7202">
        <ele>198.8</ele>
        <time>2019-09-08T07:46:58Z</time>
      </trkpt>
      <trkpt lat="43.60849" lon="3.7203">
        <ele>194.4</ele>
        <time>2019-09-08T07:47:03Z</time>
      </trkpt>
      <trkpt lat="43.60856" lon="3.72024">
        <ele>192.4</ele>
        <time>2019-09-08T07:47:07Z</time>
      </trkpt>
      <trkpt lat="43.60857" lon="3.72015">
        <ele>191.9</ele>
        <time>2019-09-08T07:47:09Z</time>
      </trkpt>
      <trkpt lat="43.60881" lon="3.72007">
        <ele>185.4</ele>
        <time>2019-09-08T07:47:16Z</time>
      </trkpt>
      <trkpt lat="43.60893" lon="3.71997">
        <ele>182.4</ele>
        <time>2019-09-08T07:47:19Z</time>
      </trkpt>
      <trkpt lat="43.60905" lon="3.72">
        <ele>181.3</ele>
        <time>2019-09-08T07:47:23Z</time>
      </trkpt>
      <trkpt lat="43.60909" lon="3.71999">
        <ele>180.8</ele>
        <time>2019-09-08T07:47:25Z</time>
      </trkpt>
      <trkpt lat="43.60912" lon="3.71989">
        <ele>180.1</ele>
        <time>2019-09-08T07:47:29Z</time>
      </trkpt>
      <trkpt lat="43.60909" lon="3.71962">
        <ele>179.7</ele>
        <time>2019-09-08T07:47:35Z</time>
      </trkpt>
      <trkpt lat="43.60909" lon="3.7193">
        <ele>179</ele>
        <time>2019-09-08T07:47:40Z</time>
      </trkpt>
      <trkpt lat="43.60911" lon="3.71917">
        <ele>178.2</ele>
        <time>2019-09-08T07:47:42Z</time>
      </trkpt>
      <trkpt lat="43.60925" lon="3.71887">
        <ele>176.5</ele>
        <time>2019-09-08T07:47:50Z</time>
      </trkpt>
      <trkpt lat="43.60931" lon="3.71877">
        <ele>176.4</ele>
        <time>2019-09-08T07:47:54Z</time>
      </trkpt>
      <trkpt lat="43.6094" lon="3.71867">
        <ele>176.8</ele>
        <time>2019-09-08T07:47:59Z</time>
      </trkpt>
      <trkpt lat="43.60937" lon="3.71853">
        <ele>176.6</ele>
        <time>2019-09-08T07:48:03Z</time>
      </trkpt>
      <trkpt lat="43.60886" lon="3.71771">
        <ele>172.5</ele>
        <time>2019-09-08T07:48:20Z</time>
      </trkpt>
      <trkpt lat="43.60853" lon="3.71719">
        <ele>169.7</ele>
        <time>2019-09-08T07:48:32Z</time>
      </trkpt>
      <trkpt lat="43.60853" lon="3.71711">
        <ele>169.6</ele>
        <time>2019-09-08T07:48:36Z</time>
      </trkpt>
      <trkpt lat="43.60848" lon="3.71707">
        <ele>169.3</ele>
        <time>2019-09-08T07:48:41Z</time>
      </trkpt>
      <trkpt lat="43.608" lon="3.71716">
        <ele>170.4</ele>
        <time>2019-09-08T07:48:59Z</time>
      </trkpt>
      <trkpt lat="43.60755" lon="3.7172">
        <ele>172.5</ele>
        <time>2019-09-08T07:49:15Z</time>
      </trkpt>
      <trkpt lat="43.60758" lon="3.71686">
        <ele>170.6</ele>
        <time>2019-09-08T07:49:23Z</time>
      </trkpt>
      <trkpt lat="43.60759" lon="3.71679">
        <ele>170.5</ele>
        <time>2019-09-08T07:49:24Z</time>
      </trkpt>
      <trkpt lat="43.60762" lon="3.71629">
        <ele>169.9</ele>
        <time>2019-09-08T07:49:31Z</time>
      </trkpt>
      <trkpt lat="43.60767" lon="3.71592">
        <ele>169</ele>
        <time>2019-09-08T07:49:37Z</time>
      </trkpt>
      <trkpt lat="43.60775" lon="3.71554">
        <ele>166.9</ele>
        <time>2019-09-08T07:49:46Z</time>
      </trkpt>
      <trkpt lat="43.6078" lon="3.71539">
        <ele>166.9</ele>
        <time>2019-09-08T07:49:49Z</time>
      </trkpt>
      <trkpt lat="43.60777" lon="3.71493">
        <ele>167.1</ele>
        <time>2019-09-08T07:49:58Z</time>
      </trkpt>
      <trkpt lat="43.60743" lon="3.71472">
        <ele>169.7</ele>
        <time>2019-09-08T07:50:09Z</time>
      </trkpt>
      <trkpt lat="43.60715" lon="3.71455">
        <ele>171</ele>
        <time>2019-09-08T07:50:20Z</time>
      </trkpt>
      <trkpt lat="43.60689" lon="3.71419">
        <ele>171.6</ele>
        <time>2019-09-08T07:50:35Z</time>
      </trkpt>
      <trkpt lat="43.60686" lon="3.71417">
        <ele>171.6</ele>
        <time>2019-09-08T07:50:37Z</time>
      </trkpt>
      <trkpt lat="43.60685" lon="3.71417">
        <ele>171.7</ele>
        <time>2019-09-08T07:50:38Z</time>
      </trkpt>
      <trkpt lat="43.60684" lon="3.71418">
        <ele>171.9</ele>
        <time>2019-09-08T07:50:39Z</time>
      </trkpt>
      <trkpt lat="43.60683" lon="3.7142">
        <ele>172.2</ele>
        <time>2019-09-08T07:50:40Z</time>
      </trkpt>
      <trkpt lat="43.60683" lon="3.71422">
        <ele>172.4</ele>
        <time>2019-09-08T07:50:41Z</time>
      </trkpt>
      <trkpt lat="43.60684" lon="3.71425">
        <ele>172.7</ele>
        <time>2019-09-08T07:50:42Z</time>
      </trkpt>
      <trkpt lat="43.60684" lon="3.71427">
        <ele>172.9</ele>
        <time>2019-09-08T07:50:43Z</time>
      </trkpt>
      <trkpt lat="43.60685" lon="3.7143">
        <ele>173.1</ele>
        <time>2019-09-08T07:50:44Z</time>
      </trkpt>
      <trkpt lat="43.60685" lon="3.71433">
        <ele>173.4</ele>
        <time>2019-09-08T07:50:45Z</time>
      </trkpt>
      <trkpt lat="43.60685" lon="3.71435">
        <ele>173.7</ele>
        <time>2019-09-08T07:50:46Z</time>
      </trkpt>
      <trkpt lat="43.60685" lon="3.71438">
        <ele>174</ele>
        <time>2019-09-08T07:50:47Z</time>
      </trkpt>
      <trkpt lat="43.60689" lon="3.71461">
        <ele>176.3</ele>
        <time>2019-09-08T07:50:56Z</time>
      </trkpt>
      <trkpt lat="43.60688" lon="3.71463">
        <ele>176.6</ele>
        <time>2019-09-08T07:50:57Z</time>
      </trkpt>
      <trkpt lat="43.6067" lon="3.71473">
        <ele>179.8</ele>
        <time>2019-09-08T07:51:08Z</time>
      </trkpt>
      <trkpt lat="43.60667" lon="3.71473">
        <ele>180.2</ele>
        <time>2019-09-08T07:51:09Z</time>
      </trkpt>
      <trkpt lat="43.60638" lon="3.71449">
        <ele>177.3</ele>
        <time>2019-09-08T07:51:20Z</time>
      </trkpt>
      <trkpt lat="43.60612" lon="3.71431">
        <ele>177</ele>
        <time>2019-09-08T07:51:29Z</time>
      </trkpt>
      <trkpt lat="43.60594" lon="3.71393">
        <ele>175.1</ele>
        <time>2019-09-08T07:51:39Z</time>
      </trkpt>
      <trkpt lat="43.60589" lon="3.71385">
        <ele>174.8</ele>
        <time>2019-09-08T07:51:41Z</time>
      </trkpt>
      <trkpt lat="43.60582" lon="3.71365">
        <ele>172.1</ele>
        <time>2019-09-08T07:51:44Z</time>
      </trkpt>
      <trkpt lat="43.60569" lon="3.71313">
        <ele>169.9</ele>
        <time>2019-09-08T07:51:52Z</time>
      </trkpt>
      <trkpt lat="43.60549" lon="3.71263">
        <ele>169.4</ele>
        <time>2019-09-08T07:52:03Z</time>
      </trkpt>
      <trkpt lat="43.60523" lon="3.71219">
        <ele>165.9</ele>
        <time>2019-09-08T07:52:12Z</time>
      </trkpt>
      <trkpt lat="43.6052" lon="3.71214">
        <ele>165.3</ele>
        <time>2019-09-08T07:52:13Z</time>
      </trkpt>
      <trkpt lat="43.60498" lon="3.71191">
        <ele>162.4</ele>
        <time>2019-09-08T07:52:19Z</time>
      </trkpt>
      <trkpt lat="43.60489" lon="3.71181">
        <ele>160.7</ele>
        <time>2019-09-08T07:52:22Z</time>
      </trkpt>
      <trkpt lat="43.60467" lon="3.71162">
        <ele>157.5</ele>
        <time>2019-09-08T07:52:27Z</time>
      </trkpt>
      <trkpt lat="43.60448" lon="3.71155">
        <ele>156.9</ele>
        <time>2019-09-08T07:52:31Z</time>
      </trkpt>
      <trkpt lat="43.60441" lon="3.71147">
        <ele>155.1</ele>
        <time>2019-09-08T07:52:33Z</time>
      </trkpt>
      <trkpt lat="43.60423" lon="3.71135">
        <ele>151.9</ele>
        <time>2019-09-08T07:52:37Z</time>
      </trkpt>
      <trkpt lat="43.60399" lon="3.71132">
        <ele>149.9</ele>
        <time>2019-09-08T07:52:42Z</time>
      </trkpt>
      <trkpt lat="43.60403" lon="3.71112">
        <ele>144.7</ele>
        <time>2019-09-08T07:52:50Z</time>
      </trkpt>
      <trkpt lat="43.60407" lon="3.71111">
        <ele>144.6</ele>
        <time>2019-09-08T07:52:51Z</time>
      </trkpt>
      <trkpt lat="43.60435" lon="3.71105">
        <ele>145.1</ele>
        <time>2019-09-08T07:52:59Z</time>
      </trkpt>
      <trkpt lat="43.60451" lon="3.71085">
        <ele>143.9</ele>
        <time>2019-09-08T07:53:04Z</time>
      </trkpt>
      <trkpt lat="43.60458" lon="3.71067">
        <ele>143.9</ele>
        <time>2019-09-08T07:53:07Z</time>
      </trkpt>
      <trkpt lat="43.60471" lon="3.71047">
        <ele>144.3</ele>
        <time>2019-09-08T07:53:11Z</time>
      </trkpt>
      <trkpt lat="43.60512" lon="3.71004">
        <ele>145.1</ele>
        <time>2019-09-08T07:53:23Z</time>
      </trkpt>
      <trkpt lat="43.60527" lon="3.70997">
        <ele>145.1</ele>
        <time>2019-09-08T07:53:27Z</time>
      </trkpt>
      <trkpt lat="43.60535" lon="3.70997">
        <ele>144.9</ele>
        <time>2019-09-08T07:53:29Z</time>
      </trkpt>
      <trkpt lat="43.60548" lon="3.70998">
        <ele>144.4</ele>
        <time>2019-09-08T07:53:32Z</time>
      </trkpt>
      <trkpt lat="43.60569" lon="3.71002">
        <ele>145.2</ele>
        <time>2019-09-08T07:53:37Z</time>
      </trkpt>
      <trkpt lat="43.60573" lon="3.71001">
        <ele>145.4</ele>
        <time>2019-09-08T07:53:38Z</time>
      </trkpt>
      <trkpt lat="43.60577" lon="3.71001">
        <ele>145.6</ele>
        <time>2019-09-08T07:53:39Z</time>
      </trkpt>
      <trkpt lat="43.60581" lon="3.70999">
        <ele>145.9</ele>
        <time>2019-09-08T07:53:40Z</time>
      </trkpt>
      <trkpt lat="43.60585" lon="3.70997">
        <ele>146.3</ele>
        <time>2019-09-08T07:53:41Z</time>
      </trkpt>
      <trkpt lat="43.60589" lon="3.70994">
        <ele>146.7</ele>
        <time>2019-09-08T07:53:42Z</time>
      </trkpt>
      <trkpt lat="43.60592" lon="3.70991">
        <ele>147</ele>
        <time>2019-09-08T07:53:43Z</time>
      </trkpt>
      <trkpt lat="43.60596" lon="3.70989">
        <ele>147.2</ele>
        <time>2019-09-08T07:53:44Z</time>
      </trkpt>
      <trkpt lat="43.606" lon="3.70986">
        <ele>147.3</ele>
        <time>2019-09-08T07:53:45Z</time>
      </trkpt>
      <trkpt lat="43.60648" lon="3.70989">
        <ele>148.1</ele>
        <time>2019-09-08T07:53:58Z</time>
      </trkpt>
      <trkpt lat="43.60697" lon="3.71015">
        <ele>149.5</ele>
        <time>2019-09-08T07:54:13Z</time>
      </trkpt>
      <trkpt lat="43.60717" lon="3.71021">
        <ele>149.1</ele>
        <time>2019-09-08T07:54:21Z</time>
      </trkpt>
      <trkpt lat="43.60719" lon="3.7102">
        <ele>149.1</ele>
        <time>2019-09-08T07:54:22Z</time>
      </trkpt>
      <trkpt lat="43.60755" lon="3.7103">
        <ele>151.3</ele>
        <time>2019-09-08T07:54:36Z</time>
      </trkpt>
      <trkpt lat="43.6076" lon="3.71033">
        <ele>151.5</ele>
        <time>2019-09-08T07:54:38Z</time>
      </trkpt>
      <trkpt lat="43.60798" lon="3.71017">
        <ele>151.6</ele>
        <time>2019-09-08T07:54:51Z</time>
      </trkpt>
      <trkpt lat="43.60839" lon="3.70993">
        <ele>154.1</ele>
        <time>2019-09-08T07:55:03Z</time>
      </trkpt>
      <trkpt lat="43.60882" lon="3.7097">
        <ele>155.4</ele>
        <time>2019-09-08T07:55:17Z</time>
      </trkpt>
      <trkpt lat="43.60889" lon="3.70965">
        <ele>156.3</ele>
        <time>2019-09-08T07:55:20Z</time>
      </trkpt>
      <trkpt lat="43.60891" lon="3.70964">
        <ele>156.5</ele>
        <time>2019-09-08T07:55:21Z</time>
      </trkpt>
      <trkpt lat="43.60893" lon="3.70962">
        <ele>156.7</ele>
        <time>2019-09-08T07:55:22Z</time>
      </trkpt>
      <trkpt lat="43.60895" lon="3.70962">
        <ele>156.8</ele>
        <time>2019-09-08T07:55:23Z</time>
      </trkpt>
      <trkpt lat="43.60896" lon="3.70963">
        <ele>156.9</ele>
        <time>2019-09-08T07:55:24Z</time>
      </trkpt>
      <trkpt lat="43.60897" lon="3.70964">
        <ele>157</ele>
        <time>2019-09-08T07:55:25Z</time>
      </trkpt>
      <trkpt lat="43.60898" lon="3.70966">
        <ele>157.2</ele>
        <time>2019-09-08T07:55:26Z</time>
      </trkpt>
      <trkpt lat="43.60896" lon="3.7097">
        <ele>157</ele>
        <time>2019-09-08T07:55:28Z</time>
      </trkpt>
      <trkpt lat="43.60894" lon="3.70974">
        <ele>157.1</ele>
        <time>2019-09-08T07:55:30Z</time>
      </trkpt>
      <trkpt lat="43.60887" lon="3.70985">
        <ele>158.5</ele>
        <time>2019-09-08T07:55:35Z</time>
      </trkpt>
      <trkpt lat="43.60886" lon="3.70987">
        <ele>158.7</ele>
        <time>2019-09-08T07:55:36Z</time>
      </trkpt>
      <trkpt lat="43.60884" lon="3.7099">
        <ele>159</ele>
        <time>2019-09-08T07:55:37Z</time>
      </trkpt>
      <trkpt lat="43.60867" lon="3.71021">
        <ele>161.6</ele>
        <time>2019-09-08T07:55:51Z</time>
      </trkpt>
      <trkpt lat="43.60867" lon="3.71028">
        <ele>163.1</ele>
        <time>2019-09-08T07:55:57Z</time>
      </trkpt>
      <trkpt lat="43.60869" lon="3.71028">
        <ele>163.5</ele>
        <time>2019-09-08T07:55:58Z</time>
      </trkpt>
      <trkpt lat="43.6087" lon="3.71027">
        <ele>163.4</ele>
        <time>2019-09-08T07:55:59Z</time>
      </trkpt>
      <trkpt lat="43.60884" lon="3.71022">
        <ele>165</ele>
        <time>2019-09-08T07:56:07Z</time>
      </trkpt>
      <trkpt lat="43.60914" lon="3.71013">
        <ele>168.4</ele>
        <time>2019-09-08T07:56:21Z</time>
      </trkpt>
      <trkpt lat="43.60959" lon="3.71005">
        <ele>169.5</ele>
        <time>2019-09-08T07:56:40Z</time>
      </trkpt>
      <trkpt lat="43.60988" lon="3.71021">
        <ele>172.9</ele>
        <time>2019-09-08T07:56:54Z</time>
      </trkpt>
      <trkpt lat="43.61012" lon="3.71038">
        <ele>175.5</ele>
        <time>2019-09-08T07:57:06Z</time>
      </trkpt>
      <trkpt lat="43.61028" lon="3.71062">
        <ele>178.9</ele>
        <time>2019-09-08T07:57:18Z</time>
      </trkpt>
      <trkpt lat="43.61041" lon="3.7108">
        <ele>181</ele>
        <time>2019-09-08T07:57:28Z</time>
      </trkpt>
      <trkpt lat="43.61065" lon="3.71107">
        <ele>183.4</ele>
        <time>2019-09-08T07:57:43Z</time>
      </trkpt>
      <trkpt lat="43.61096" lon="3.71146">
        <ele>186.3</ele>
        <time>2019-09-08T07:58:01Z</time>
      </trkpt>
      <trkpt lat="43.61123" lon="3.71185">
        <ele>189.9</ele>
        <time>2019-09-08T07:58:17Z</time>
      </trkpt>
      <trkpt lat="43.61136" lon="3.71209">
        <ele>191.8</ele>
        <time>2019-09-08T07:58:26Z</time>
      </trkpt>
      <trkpt lat="43.61145" lon="3.71206">
        <ele>191.2</ele>
        <time>2019-09-08T07:58:30Z</time>
      </trkpt>
      <trkpt lat="43.61206" lon="3.71115">
        <ele>183.8</ele>
        <time>2019-09-08T07:58:47Z</time>
      </trkpt>
      <trkpt lat="43.61235" lon="3.71074">
        <ele>181.9</ele>
        <time>2019-09-08T07:58:54Z</time>
      </trkpt>
      <trkpt lat="43.61248" lon="3.71052">
        <ele>180.5</ele>
        <time>2019-09-08T07:58:58Z</time>
      </trkpt>
      <trkpt lat="43.61266" lon="3.71027">
        <ele>177.9</ele>
        <time>2019-09-08T07:59:02Z</time>
      </trkpt>
      <trkpt lat="43.61284" lon="3.71001">
        <ele>176.5</ele>
        <time>2019-09-08T07:59:06Z</time>
      </trkpt>
      <trkpt lat="43.61312" lon="3.70991">
        <ele>178.6</ele>
        <time>2019-09-08T07:59:14Z</time>
      </trkpt>
      <trkpt lat="43.61317" lon="3.70993">
        <ele>179.4</ele>
        <time>2019-09-08T07:59:16Z</time>
      </trkpt>
      <trkpt lat="43.61347" lon="3.70993">
        <ele>183.2</ele>
        <time>2019-09-08T07:59:29Z</time>
      </trkpt>
      <trkpt lat="43.61355" lon="3.71001">
        <ele>184.4</ele>
        <time>2019-09-08T07:59:34Z</time>
      </trkpt>
      <trkpt lat="43.61356" lon="3.71004">
        <ele>184.6</ele>
        <time>2019-09-08T07:59:35Z</time>
      </trkpt>
      <trkpt lat="43.61356" lon="3.71008">
        <ele>184.7</ele>
        <time>2019-09-08T07:59:36Z</time>
      </trkpt>
      <trkpt lat="43.61355" lon="3.71011">
        <ele>184.7</ele>
        <time>2019-09-08T07:59:37Z</time>
      </trkpt>
      <trkpt lat="43.61355" lon="3.71015">
        <ele>184.9</ele>
        <time>2019-09-08T07:59:38Z</time>
      </trkpt>
      <trkpt lat="43.61355" lon="3.71019">
        <ele>185</ele>
        <time>2019-09-08T07:59:39Z</time>
      </trkpt>
      <trkpt lat="43.61348" lon="3.71086">
        <ele>187.2</ele>
        <time>2019-09-08T07:59:56Z</time>
      </trkpt>
      <trkpt lat="43.61324" lon="3.71139">
        <ele>189.7</ele>
        <time>2019-09-08T08:00:12Z</time>
      </trkpt>
      <trkpt lat="43.6131" lon="3.71165">
        <ele>190.9</ele>
        <time>2019-09-08T08:00:21Z</time>
      </trkpt>
      <trkpt lat="43.61311" lon="3.71167">
        <ele>191</ele>
        <time>2019-09-08T08:00:22Z</time>
      </trkpt>
      <trkpt lat="43.61313" lon="3.71169">
        <ele>191.1</ele>
        <time>2019-09-08T08:00:23Z</time>
      </trkpt>
      <trkpt lat="43.61327" lon="3.71178">
        <ele>191.5</ele>
        <time>2019-09-08T08:00:29Z</time>
      </trkpt>
      <trkpt lat="43.61328" lon="3.71181">
        <ele>191.6</ele>
        <time>2019-09-08T08:00:30Z</time>
      </trkpt>
      <trkpt lat="43.61328" lon="3.71184">
        <ele>191.7</ele>
        <time>2019-09-08T08:00:31Z</time>
      </trkpt>
      <trkpt lat="43.61328" lon="3.71187">
        <ele>191.9</ele>
        <time>2019-09-08T08:00:32Z</time>
      </trkpt>
      <trkpt lat="43.61327" lon="3.71191">
        <ele>192.1</ele>
        <time>2019-09-08T08:00:33Z</time>
      </trkpt>
      <trkpt lat="43.61326" lon="3.71194">
        <ele>192.2</ele>
        <time>2019-09-08T08:00:34Z</time>
      </trkpt>
      <trkpt lat="43.61311" lon="3.71237">
        <ele>195.2</ele>
        <time>2019-09-08T08:00:48Z</time>
      </trkpt>
      <trkpt lat="43.61311" lon="3.71306">
        <ele>196.6</ele>
        <time>2019-09-08T08:01:07Z</time>
      </trkpt>
      <trkpt lat="43.61307" lon="3.71375">
        <ele>196.4</ele>
        <time>2019-09-08T08:01:22Z</time>
      </trkpt>
      <trkpt lat="43.61322" lon="3.71444">
        <ele>195</ele>
        <time>2019-09-08T08:01:35Z</time>
      </trkpt>
      <trkpt lat="43.6134" lon="3.71525">
        <ele>193.5</ele>
        <time>2019-09-08T08:01:51Z</time>
      </trkpt>
      <trkpt lat="43.61349" lon="3.71588">
        <ele>191.9</ele>
        <time>2019-09-08T08:02:04Z</time>
      </trkpt>
      <trkpt lat="43.61367" lon="3.71682">
        <ele>189.4</ele>
        <time>2019-09-08T08:02:22Z</time>
      </trkpt>
      <trkpt lat="43.6137" lon="3.71748">
        <ele>186.4</ele>
        <time>2019-09-08T08:02:34Z</time>
      </trkpt>
      <trkpt lat="43.61366" lon="3.71806">
        <ele>182.1</ele>
        <time>2019-09-08T08:02:42Z</time>
      </trkpt>
      <trkpt lat="43.61366" lon="3.71844">
        <ele>177.6</ele>
        <time>2019-09-08T08:02:49Z</time>
      </trkpt>
      <trkpt lat="43.61362" lon="3.71867">
        <ele>174</ele>
        <time>2019-09-08T08:02:55Z</time>
      </trkpt>
      <trkpt lat="43.6136" lon="3.71877">
        <ele>172</ele>
        <time>2019-09-08T08:02:57Z</time>
      </trkpt>
      <trkpt lat="43.61349" lon="3.71904">
        <ele>166.6</ele>
        <time>2019-09-08T08:03:02Z</time>
      </trkpt>
      <trkpt lat="43.61339" lon="3.7193">
        <ele>163</ele>
        <time>2019-09-08T08:03:06Z</time>
      </trkpt>
      <trkpt lat="43.61328" lon="3.71964">
        <ele>163.7</ele>
        <time>2019-09-08T08:03:10Z</time>
      </trkpt>
      <trkpt lat="43.61316" lon="3.71993">
        <ele>167.4</ele>
        <time>2019-09-08T08:03:19Z</time>
      </trkpt>
      <trkpt lat="43.61302" lon="3.72022">
        <ele>170.5</ele>
        <time>2019-09-08T08:03:31Z</time>
      </trkpt>
      <trkpt lat="43.61288" lon="3.72045">
        <ele>173.7</ele>
        <time>2019-09-08T08:03:42Z</time>
      </trkpt>
      <trkpt lat="43.61274" lon="3.72071">
        <ele>176.6</ele>
        <time>2019-09-08T08:03:54Z</time>
      </trkpt>
      <trkpt lat="43.61261" lon="3.72102">
        <ele>180</ele>
        <time>2019-09-08T08:04:08Z</time>
      </trkpt>
      <trkpt lat="43.61261" lon="3.72112">
        <ele>181.1</ele>
        <time>2019-09-08T08:04:12Z</time>
      </trkpt>
      <trkpt lat="43.61283" lon="3.72133">
        <ele>182.7</ele>
        <time>2019-09-08T08:04:25Z</time>
      </trkpt>
      <trkpt lat="43.61322" lon="3.72163">
        <ele>185.5</ele>
        <time>2019-09-08T08:04:43Z</time>
      </trkpt>
      <trkpt lat="43.61366" lon="3.72187">
        <ele>189.1</ele>
        <time>2019-09-08T08:05:01Z</time>
      </trkpt>
      <trkpt lat="43.61406" lon="3.72213">
        <ele>192.8</ele>
        <time>2019-09-08T08:05:19Z</time>
      </trkpt>
      <trkpt lat="43.61434" lon="3.72242">
        <ele>195.2</ele>
        <time>2019-09-08T08:05:33Z</time>
      </trkpt>
      <trkpt lat="43.61483" lon="3.72294">
        <ele>197.8</ele>
        <time>2019-09-08T08:05:54Z</time>
      </trkpt>
      <trkpt lat="43.61534" lon="3.72361">
        <ele>199.7</ele>
        <time>2019-09-08T08:06:14Z</time>
      </trkpt>
      <trkpt lat="43.6158" lon="3.72445">
        <ele>201.6</ele>
        <time>2019-09-08T08:06:33Z</time>
      </trkpt>
      <trkpt lat="43.61608" lon="3.72506">
        <ele>201.6</ele>
        <time>2019-09-08T08:06:45Z</time>
      </trkpt>
      <trkpt lat="43.61614" lon="3.72531">
        <ele>200.9</ele>
        <time>2019-09-08T08:06:49Z</time>
      </trkpt>
      <trkpt lat="43.61623" lon="3.72558">
        <ele>199.8</ele>
        <time>2019-09-08T08:06:53Z</time>
      </trkpt>
      <trkpt lat="43.61685" lon="3.72648">
        <ele>191.6</ele>
        <time>2019-09-08T08:07:05Z</time>
      </trkpt>
      <trkpt lat="43.6172" lon="3.72712">
        <ele>188.2</ele>
        <time>2019-09-08T08:07:11Z</time>
      </trkpt>
      <trkpt lat="43.61726" lon="3.72722">
        <ele>188</ele>
        <time>2019-09-08T08:07:12Z</time>
      </trkpt>
      <trkpt lat="43.61736" lon="3.72743">
        <ele>187.3</ele>
        <time>2019-09-08T08:07:14Z</time>
      </trkpt>
      <trkpt lat="43.61746" lon="3.72761">
        <ele>186.9</ele>
        <time>2019-09-08T08:07:16Z</time>
      </trkpt>
      <trkpt lat="43.61759" lon="3.72787">
        <ele>186.7</ele>
        <time>2019-09-08T08:07:19Z</time>
      </trkpt>
      <trkpt lat="43.6177" lon="3.72821">
        <ele>186.3</ele>
        <time>2019-09-08T08:07:23Z</time>
      </trkpt>
      <trkpt lat="43.61763" lon="3.72854">
        <ele>185.4</ele>
        <time>2019-09-08T08:07:29Z</time>
      </trkpt>
      <trkpt lat="43.61716" lon="3.72924">
        <ele>183.5</ele>
        <time>2019-09-08T08:07:45Z</time>
      </trkpt>
      <trkpt lat="43.61694" lon="3.72983">
        <ele>179.8</ele>
        <time>2019-09-08T08:07:55Z</time>
      </trkpt>
      <trkpt lat="43.61684" lon="3.73014">
        <ele>176.9</ele>
        <time>2019-09-08T08:07:59Z</time>
      </trkpt>
      <trkpt lat="43.61649" lon="3.73059">
        <ele>174.1</ele>
        <time>2019-09-08T08:08:07Z</time>
      </trkpt>
      <trkpt lat="43.61624" lon="3.73111">
        <ele>171</ele>
        <time>2019-09-08T08:08:17Z</time>
      </trkpt>
      <trkpt lat="43.61622" lon="3.73116">
        <ele>170.6</ele>
        <time>2019-09-08T08:08:18Z</time>
      </trkpt>
      <trkpt lat="43.61603" lon="3.73136">
        <ele>169.7</ele>
        <time>2019-09-08T08:08:23Z</time>
      </trkpt>
      <trkpt lat="43.61573" lon="3.73172">
        <ele>168.3</ele>
        <time>2019-09-08T08:08:33Z</time>
      </trkpt>
      <trkpt lat="43.61543" lon="3.73195">
        <ele>165.3</ele>
        <time>2019-09-08T08:08:42Z</time>
      </trkpt>
      <trkpt lat="43.61536" lon="3.73244">
        <ele>161.2</ele>
        <time>2019-09-08T08:08:50Z</time>
      </trkpt>
      <trkpt lat="43.61548" lon="3.73284">
        <ele>157.1</ele>
        <time>2019-09-08T08:08:59Z</time>
      </trkpt>
      <trkpt lat="43.61543" lon="3.73287">
        <ele>156.1</ele>
        <time>2019-09-08T08:09:01Z</time>
      </trkpt>
      <trkpt lat="43.61521" lon="3.73292">
        <ele>152.4</ele>
        <time>2019-09-08T08:09:06Z</time>
      </trkpt>
      <trkpt lat="43.61519" lon="3.73305">
        <ele>150.2</ele>
        <time>2019-09-08T08:09:10Z</time>
      </trkpt>
      <trkpt lat="43.61532" lon="3.73325">
        <ele>149.4</ele>
        <time>2019-09-08T08:09:15Z</time>
      </trkpt>
      <trkpt lat="43.61548" lon="3.73338">
        <ele>147.9</ele>
        <time>2019-09-08T08:09:19Z</time>
      </trkpt>
      <trkpt lat="43.61564" lon="3.73346">
        <ele>144.9</ele>
        <time>2019-09-08T08:09:22Z</time>
      </trkpt>
      <trkpt lat="43.61599" lon="3.73337">
        <ele>139.1</ele>
        <time>2019-09-08T08:09:29Z</time>
      </trkpt>
      <trkpt lat="43.61613" lon="3.73326">
        <ele>137.1</ele>
        <time>2019-09-08T08:09:32Z</time>
      </trkpt>
      <trkpt lat="43.61635" lon="3.73319">
        <ele>138</ele>
        <time>2019-09-08T08:09:38Z</time>
      </trkpt>
      <trkpt lat="43.61635" lon="3.73323">
        <ele>137.9</ele>
        <time>2019-09-08T08:09:39Z</time>
      </trkpt>
      <trkpt lat="43.61635" lon="3.73333">
        <ele>137.7</ele>
        <time>2019-09-08T08:09:41Z</time>
      </trkpt>
      <trkpt lat="43.61635" lon="3.73363">
        <ele>136.5</ele>
        <time>2019-09-08T08:09:48Z</time>
      </trkpt>
      <trkpt lat="43.61652" lon="3.73409">
        <ele>137.1</ele>
        <time>2019-09-08T08:10:00Z</time>
      </trkpt>
      <trkpt lat="43.61655" lon="3.73424">
        <ele>138.3</ele>
        <time>2019-09-08T08:10:04Z</time>
      </trkpt>
      <trkpt lat="43.61642" lon="3.73451">
        <ele>140.8</ele>
        <time>2019-09-08T08:10:14Z</time>
      </trkpt>
      <trkpt lat="43.61642" lon="3.73463">
        <ele>143.4</ele>
        <time>2019-09-08T08:10:21Z</time>
      </trkpt>
      <trkpt lat="43.61662" lon="3.73467">
        <ele>146.5</ele>
        <time>2019-09-08T08:10:34Z</time>
      </trkpt>
      <trkpt lat="43.61662" lon="3.73469">
        <ele>146.9</ele>
        <time>2019-09-08T08:10:37Z</time>
      </trkpt>
      <trkpt lat="43.61652" lon="3.73473">
        <ele>146.6</ele>
        <time>2019-09-08T08:10:42Z</time>
      </trkpt>
      <trkpt lat="43.61614" lon="3.7352">
        <ele>146.9</ele>
        <time>2019-09-08T08:10:58Z</time>
      </trkpt>
      <trkpt lat="43.61596" lon="3.73549">
        <ele>146.4</ele>
        <time>2019-09-08T08:11:05Z</time>
      </trkpt>
      <trkpt lat="43.6159" lon="3.73594">
        <ele>144.6</ele>
        <time>2019-09-08T08:11:14Z</time>
      </trkpt>
      <trkpt lat="43.6159" lon="3.7361">
        <ele>142.1</ele>
        <time>2019-09-08T08:11:19Z</time>
      </trkpt>
      <trkpt lat="43.61574" lon="3.73633">
        <ele>135.2</ele>
        <time>2019-09-08T08:11:26Z</time>
      </trkpt>
      <trkpt lat="43.61564" lon="3.7365">
        <ele>130.7</ele>
        <time>2019-09-08T08:11:30Z</time>
      </trkpt>
      <trkpt lat="43.61563" lon="3.73655">
        <ele>129.7</ele>
        <time>2019-09-08T08:11:31Z</time>
      </trkpt>
      <trkpt lat="43.61563" lon="3.73661">
        <ele>128.7</ele>
        <time>2019-09-08T08:11:32Z</time>
      </trkpt>
      <trkpt lat="43.61564" lon="3.73667">
        <ele>127.9</ele>
        <time>2019-09-08T08:11:33Z</time>
      </trkpt>
      <trkpt lat="43.61567" lon="3.73684">
        <ele>125.2</ele>
        <time>2019-09-08T08:11:37Z</time>
      </trkpt>
      <trkpt lat="43.61573" lon="3.73696">
        <ele>123.6</ele>
        <time>2019-09-08T08:11:41Z</time>
      </trkpt>
      <trkpt lat="43.61576" lon="3.73698">
        <ele>123.8</ele>
        <time>2019-09-08T08:11:42Z</time>
      </trkpt>
      <trkpt lat="43.61588" lon="3.73693">
        <ele>124.6</ele>
        <time>2019-09-08T08:11:48Z</time>
      </trkpt>
      <trkpt lat="43.61621" lon="3.7368">
        <ele>128.8</ele>
        <time>2019-09-08T08:12:04Z</time>
      </trkpt>
      <trkpt lat="43.61634" lon="3.73676">
        <ele>130</ele>
        <time>2019-09-08T08:12:10Z</time>
      </trkpt>
      <trkpt lat="43.61666" lon="3.73675">
        <ele>132.6</ele>
        <time>2019-09-08T08:12:25Z</time>
      </trkpt>
      <trkpt lat="43.61689" lon="3.7368">
        <ele>135.7</ele>
        <time>2019-09-08T08:12:38Z</time>
      </trkpt>
      <trkpt lat="43.61697" lon="3.7371">
        <ele>137.6</ele>
        <time>2019-09-08T08:12:51Z</time>
      </trkpt>
      <trkpt lat="43.61705" lon="3.73735">
        <ele>142.1</ele>
        <time>2019-09-08T08:13:02Z</time>
      </trkpt>
      <trkpt lat="43.61712" lon="3.73756">
        <ele>145.3</ele>
        <time>2019-09-08T08:13:12Z</time>
      </trkpt>
      <trkpt lat="43.61714" lon="3.73762">
        <ele>145.8</ele>
        <time>2019-09-08T08:13:15Z</time>
      </trkpt>
      <trkpt lat="43.61717" lon="3.7377">
        <ele>146.4</ele>
        <time>2019-09-08T08:13:20Z</time>
      </trkpt>
      <trkpt lat="43.61726" lon="3.73782">
        <ele>147.2</ele>
        <time>2019-09-08T08:13:27Z</time>
      </trkpt>
      <trkpt lat="43.61726" lon="3.738">
        <ele>145.3</ele>
        <time>2019-09-08T08:13:32Z</time>
      </trkpt>
      <trkpt lat="43.61726" lon="3.73834">
        <ele>141.8</ele>
        <time>2019-09-08T08:13:37Z</time>
      </trkpt>
      <trkpt lat="43.6172" lon="3.73877">
        <ele>138.2</ele>
        <time>2019-09-08T08:13:42Z</time>
      </trkpt>
      <trkpt lat="43.61716" lon="3.73893">
        <ele>137.3</ele>
        <time>2019-09-08T08:13:44Z</time>
      </trkpt>
      <trkpt lat="43.61697" lon="3.73925">
        <ele>135.7</ele>
        <time>2019-09-08T08:13:49Z</time>
      </trkpt>
      <trkpt lat="43.61684" lon="3.73959">
        <ele>137.8</ele>
        <time>2019-09-08T08:13:58Z</time>
      </trkpt>
      <trkpt lat="43.61699" lon="3.73973">
        <ele>140.4</ele>
        <time>2019-09-08T08:14:11Z</time>
      </trkpt>
      <trkpt lat="43.61737" lon="3.73987">
        <ele>142.2</ele>
        <time>2019-09-08T08:14:26Z</time>
      </trkpt>
      <trkpt lat="43.61789" lon="3.74017">
        <ele>145.7</ele>
        <time>2019-09-08T08:14:41Z</time>
      </trkpt>
      <trkpt lat="43.61818" lon="3.74051">
        <ele>147.5</ele>
        <time>2019-09-08T08:14:55Z</time>
      </trkpt>
      <trkpt lat="43.61847" lon="3.74082">
        <ele>149.6</ele>
        <time>2019-09-08T08:15:09Z</time>
      </trkpt>
      <trkpt lat="43.6188" lon="3.74096">
        <ele>149.7</ele>
        <time>2019-09-08T08:15:21Z</time>
      </trkpt>
      <trkpt lat="43.61883" lon="3.74106">
        <ele>149.2</ele>
        <time>2019-09-08T08:15:24Z</time>
      </trkpt>
      <trkpt lat="43.61881" lon="3.74144">
        <ele>149.2</ele>
        <time>2019-09-08T08:15:32Z</time>
      </trkpt>
      <trkpt lat="43.61847" lon="3.74167">
        <ele>150.5</ele>
        <time>2019-09-08T08:15:44Z</time>
      </trkpt>
      <trkpt lat="43.61822" lon="3.74222">
        <ele>152.2</ele>
        <time>2019-09-08T08:15:57Z</time>
      </trkpt>
      <trkpt lat="43.61788" lon="3.74288">
        <ele>150.6</ele>
        <time>2019-09-08T08:16:11Z</time>
      </trkpt>
      <trkpt lat="43.61776" lon="3.74303">
        <ele>149.1</ele>
        <time>2019-09-08T08:16:14Z</time>
      </trkpt>
      <trkpt lat="43.61769" lon="3.74313">
        <ele>148.5</ele>
        <time>2019-09-08T08:16:16Z</time>
      </trkpt>
      <trkpt lat="43.61766" lon="3.74316">
        <ele>148.4</ele>
        <time>2019-09-08T08:16:17Z</time>
      </trkpt>
      <trkpt lat="43.61762" lon="3.74318">
        <ele>148.4</ele>
        <time>2019-09-08T08:16:18Z</time>
      </trkpt>
      <trkpt lat="43.61758" lon="3.74319">
        <ele>148.4</ele>
        <time>2019-09-08T08:16:19Z</time>
      </trkpt>
      <trkpt lat="43.61755" lon="3.74319">
        <ele>148.4</ele>
        <time>2019-09-08T08:16:20Z</time>
      </trkpt>
      <trkpt lat="43.61752" lon="3.74322">
        <ele>148.4</ele>
        <time>2019-09-08T08:16:24Z</time>
      </trkpt>
      <trkpt lat="43.61752" lon="3.74341">
        <ele>147.3</ele>
        <time>2019-09-08T08:16:29Z</time>
      </trkpt>
      <trkpt lat="43.61747" lon="3.74369">
        <ele>145.2</ele>
        <time>2019-09-08T08:16:33Z</time>
      </trkpt>
      <trkpt lat="43.61743" lon="3.74393">
        <ele>143.3</ele>
        <time>2019-09-08T08:16:36Z</time>
      </trkpt>
      <trkpt lat="43.61742" lon="3.74425">
        <ele>142.1</ele>
        <time>2019-09-08T08:16:40Z</time>
      </trkpt>
      <trkpt lat="43.61741" lon="3.74447">
        <ele>141.2</ele>
        <time>2019-09-08T08:16:43Z</time>
      </trkpt>
      <trkpt lat="43.6174" lon="3.74501">
        <ele>137.1</ele>
        <time>2019-09-08T08:16:51Z</time>
      </trkpt>
      <trkpt lat="43.6174" lon="3.74507">
        <ele>136.3</ele>
        <time>2019-09-08T08:16:52Z</time>
      </trkpt>
      <trkpt lat="43.61739" lon="3.74517">
        <ele>134.8</ele>
        <time>2019-09-08T08:16:54Z</time>
      </trkpt>
      <trkpt lat="43.61751" lon="3.74527">
        <ele>134</ele>
        <time>2019-09-08T08:16:58Z</time>
      </trkpt>
      <trkpt lat="43.6178" lon="3.74533">
        <ele>129.8</ele>
        <time>2019-09-08T08:17:06Z</time>
      </trkpt>
      <trkpt lat="43.61788" lon="3.74546">
        <ele>126.4</ele>
        <time>2019-09-08T08:17:10Z</time>
      </trkpt>
      <trkpt lat="43.61796" lon="3.74556">
        <ele>123.7</ele>
        <time>2019-09-08T08:17:14Z</time>
      </trkpt>
      <trkpt lat="43.61796" lon="3.7456">
        <ele>123.2</ele>
        <time>2019-09-08T08:17:15Z</time>
      </trkpt>
      <trkpt lat="43.61797" lon="3.74571">
        <ele>121.7</ele>
        <time>2019-09-08T08:17:18Z</time>
      </trkpt>
      <trkpt lat="43.61803" lon="3.74586">
        <ele>119.1</ele>
        <time>2019-09-08T08:17:22Z</time>
      </trkpt>
      <trkpt lat="43.61826" lon="3.74608">
        <ele>115.4</ele>
        <time>2019-09-08T08:17:28Z</time>
      </trkpt>
      <trkpt lat="43.61825" lon="3.74619">
        <ele>114.4</ele>
        <time>2019-09-08T08:17:32Z</time>
      </trkpt>
      <trkpt lat="43.618" lon="3.74627">
        <ele>114</ele>
        <time>2019-09-08T08:17:41Z</time>
      </trkpt>
      <trkpt lat="43.61786" lon="3.74633">
        <ele>113.7</ele>
        <time>2019-09-08T08:17:46Z</time>
      </trkpt>
      <trkpt lat="43.61764" lon="3.74643">
        <ele>112.3</ele>
        <time>2019-09-08T08:17:51Z</time>
      </trkpt>
      <trkpt lat="43.61742" lon="3.74638">
        <ele>112</ele>
        <time>2019-09-08T08:17:56Z</time>
      </trkpt>
      <trkpt lat="43.61727" lon="3.74626">
        <ele>112</ele>
        <time>2019-09-08T08:18:00Z</time>
      </trkpt>
      <trkpt lat="43.61709" lon="3.74607">
        <ele>112</ele>
        <time>2019-09-08T08:18:05Z</time>
      </trkpt>
      <trkpt lat="43.61696" lon="3.74598">
        <ele>110.7</ele>
        <time>2019-09-08T08:18:08Z</time>
      </trkpt>
      <trkpt lat="43.61683" lon="3.74586">
        <ele>109.3</ele>
        <time>2019-09-08T08:18:11Z</time>
      </trkpt>
      <trkpt lat="43.61661" lon="3.7456">
        <ele>108.1</ele>
        <time>2019-09-08T08:18:18Z</time>
      </trkpt>
      <trkpt lat="43.61656" lon="3.74563">
        <ele>106.9</ele>
        <time>2019-09-08T08:18:24Z</time>
      </trkpt>
      <trkpt lat="43.61677" lon="3.74599">
        <ele>106.2</ele>
        <time>2019-09-08T08:18:35Z</time>
      </trkpt>
      <trkpt lat="43.61694" lon="3.74621">
        <ele>106.5</ele>
        <time>2019-09-08T08:18:40Z</time>
      </trkpt>
      <trkpt lat="43.61704" lon="3.74633">
        <ele>106.6</ele>
        <time>2019-09-08T08:18:43Z</time>
      </trkpt>
      <trkpt lat="43.6172" lon="3.74656">
        <ele>106.3</ele>
        <time>2019-09-08T08:18:48Z</time>
      </trkpt>
      <trkpt lat="43.61726" lon="3.74666">
        <ele>105.5</ele>
        <time>2019-09-08T08:18:50Z</time>
      </trkpt>
      <trkpt lat="43.61733" lon="3.74685">
        <ele>105.2</ele>
        <time>2019-09-08T08:18:54Z</time>
      </trkpt>
      <trkpt lat="43.61728" lon="3.74723">
        <ele>104.5</ele>
        <time>2019-09-08T08:19:00Z</time>
      </trkpt>
      <trkpt lat="43.61722" lon="3.74757">
        <ele>103</ele>
        <time>2019-09-08T08:19:06Z</time>
      </trkpt>
      <trkpt lat="43.61728" lon="3.74813">
        <ele>103.2</ele>
        <time>2019-09-08T08:19:14Z</time>
      </trkpt>
      <trkpt lat="43.6174" lon="3.74872">
        <ele>99.9</ele>
        <time>2019-09-08T08:19:24Z</time>
      </trkpt>
      <trkpt lat="43.61742" lon="3.74875">
        <ele>99.6</ele>
        <time>2019-09-08T08:19:25Z</time>
      </trkpt>
      <trkpt lat="43.61754" lon="3.74905">
        <ele>99.1</ele>
        <time>2019-09-08T08:19:34Z</time>
      </trkpt>
      <trkpt lat="43.61778" lon="3.74924">
        <ele>98.8</ele>
        <time>2019-09-08T08:19:41Z</time>
      </trkpt>
      <trkpt lat="43.61785" lon="3.74933">
        <ele>99.5</ele>
        <time>2019-09-08T08:19:43Z</time>
      </trkpt>
      <trkpt lat="43.61797" lon="3.74955">
        <ele>99.3</ele>
        <time>2019-09-08T08:19:47Z</time>
      </trkpt>
      <trkpt lat="43.61803" lon="3.74967">
        <ele>98.5</ele>
        <time>2019-09-08T08:19:49Z</time>
      </trkpt>
      <trkpt lat="43.61808" lon="3.74981">
        <ele>98.2</ele>
        <time>2019-09-08T08:19:51Z</time>
      </trkpt>
      <trkpt lat="43.61811" lon="3.74994">
        <ele>98.3</ele>
        <time>2019-09-08T08:19:53Z</time>
      </trkpt>
      <trkpt lat="43.6181" lon="3.75023">
        <ele>98</ele>
        <time>2019-09-08T08:19:57Z</time>
      </trkpt>
      <trkpt lat="43.61795" lon="3.75057">
        <ele>97.7</ele>
        <time>2019-09-08T08:20:03Z</time>
      </trkpt>
      <trkpt lat="43.61777" lon="3.75071">
        <ele>97.9</ele>
        <time>2019-09-08T08:20:07Z</time>
      </trkpt>
      <trkpt lat="43.61768" lon="3.75079">
        <ele>97.8</ele>
        <time>2019-09-08T08:20:09Z</time>
      </trkpt>
      <trkpt lat="43.61744" lon="3.7511">
        <ele>97.5</ele>
        <time>2019-09-08T08:20:15Z</time>
      </trkpt>
      <trkpt lat="43.61724" lon="3.7513">
        <ele>97.6</ele>
        <time>2019-09-08T08:20:20Z</time>
      </trkpt>
      <trkpt lat="43.61719" lon="3.75131">
        <ele>97.6</ele>
        <time>2019-09-08T08:20:21Z</time>
      </trkpt>
      <trkpt lat="43.61715" lon="3.75131">
        <ele>97.6</ele>
        <time>2019-09-08T08:20:22Z</time>
      </trkpt>
      <trkpt lat="43.61712" lon="3.75131">
        <ele>97.6</ele>
        <time>2019-09-08T08:20:23Z</time>
      </trkpt>
      <trkpt lat="43.61676" lon="3.75144">
        <ele>99.1</ele>
        <time>2019-09-08T08:20:35Z</time>
      </trkpt>
      <trkpt lat="43.6165" lon="3.75171">
        <ele>100.3</ele>
        <time>2019-09-08T08:20:48Z</time>
      </trkpt>
      <trkpt lat="43.61648" lon="3.75173">
        <ele>100.5</ele>
        <time>2019-09-08T08:20:49Z</time>
      </trkpt>
      <trkpt lat="43.61646" lon="3.75173">
        <ele>100.9</ele>
        <time>2019-09-08T08:20:50Z</time>
      </trkpt>
      <trkpt lat="43.61644" lon="3.75173">
        <ele>101.3</ele>
        <time>2019-09-08T08:20:51Z</time>
      </trkpt>
      <trkpt lat="43.61642" lon="3.75172">
        <ele>101.8</ele>
        <time>2019-09-08T08:20:52Z</time>
      </trkpt>
      <trkpt lat="43.61641" lon="3.7517">
        <ele>102.2</ele>
        <time>2019-09-08T08:20:53Z</time>
      </trkpt>
      <trkpt lat="43.6164" lon="3.75168">
        <ele>102.6</ele>
        <time>2019-09-08T08:20:54Z</time>
      </trkpt>
      <trkpt lat="43.61639" lon="3.75166">
        <ele>103.1</ele>
        <time>2019-09-08T08:20:55Z</time>
      </trkpt>
      <trkpt lat="43.6164" lon="3.75164">
        <ele>103.2</ele>
        <time>2019-09-08T08:20:56Z</time>
      </trkpt>
      <trkpt lat="43.6164" lon="3.75162">
        <ele>103.6</ele>
        <time>2019-09-08T08:20:57Z</time>
      </trkpt>
      <trkpt lat="43.6164" lon="3.75161">
        <ele>103.8</ele>
        <time>2019-09-08T08:20:58Z</time>
      </trkpt>
      <trkpt lat="43.6164" lon="3.75159">
        <ele>104.1</ele>
        <time>2019-09-08T08:20:59Z</time>
      </trkpt>
      <trkpt lat="43.61641" lon="3.75157">
        <ele>104.3</ele>
        <time>2019-09-08T08:21:00Z</time>
      </trkpt>
      <trkpt lat="43.61641" lon="3.75155">
        <ele>104.6</ele>
        <time>2019-09-08T08:21:01Z</time>
      </trkpt>
      <trkpt lat="43.61642" lon="3.75154">
        <ele>104.6</ele>
        <time>2019-09-08T08:21:02Z</time>
      </trkpt>
      <trkpt lat="43.61643" lon="3.75152">
        <ele>104.7</ele>
        <time>2019-09-08T08:21:03Z</time>
      </trkpt>
      <trkpt lat="43.61651" lon="3.75127">
        <ele>106.7</ele>
        <time>2019-09-08T08:21:17Z</time>
      </trkpt>
      <trkpt lat="43.61649" lon="3.75098">
        <ele>109.3</ele>
        <time>2019-09-08T08:21:32Z</time>
      </trkpt>
      <trkpt lat="43.61635" lon="3.75079">
        <ele>112.3</ele>
        <time>2019-09-08T08:21:46Z</time>
      </trkpt>
      <trkpt lat="43.6162" lon="3.75062">
        <ele>113.2</ele>
        <time>2019-09-08T08:22:00Z</time>
      </trkpt>
      <trkpt lat="43.61598" lon="3.75051">
        <ele>115.8</ele>
        <time>2019-09-08T08:22:15Z</time>
      </trkpt>
      <trkpt lat="43.61584" lon="3.75051">
        <ele>118.2</ele>
        <time>2019-09-08T08:22:24Z</time>
      </trkpt>
      <trkpt lat="43.61558" lon="3.75055">
        <ele>120.8</ele>
        <time>2019-09-08T08:22:40Z</time>
      </trkpt>
      <trkpt lat="43.61547" lon="3.7505">
        <ele>122.3</ele>
        <time>2019-09-08T08:22:48Z</time>
      </trkpt>
      <trkpt lat="43.61547" lon="3.75048">
        <ele>122.4</ele>
        <time>2019-09-08T08:22:49Z</time>
      </trkpt>
      <trkpt lat="43.61547" lon="3.75046">
        <ele>122.6</ele>
        <time>2019-09-08T08:22:50Z</time>
      </trkpt>
      <trkpt lat="43.61557" lon="3.75017">
        <ele>122.8</ele>
        <time>2019-09-08T08:23:04Z</time>
      </trkpt>
      <trkpt lat="43.61565" lon="3.74983">
        <ele>125.1</ele>
        <time>2019-09-08T08:23:19Z</time>
      </trkpt>
      <trkpt lat="43.61569" lon="3.74953">
        <ele>129.2</ele>
        <time>2019-09-08T08:23:33Z</time>
      </trkpt>
      <trkpt lat="43.61549" lon="3.74965">
        <ele>130.8</ele>
        <time>2019-09-08T08:23:44Z</time>
      </trkpt>
      <trkpt lat="43.61528" lon="3.74992">
        <ele>133.1</ele>
        <time>2019-09-08T08:23:58Z</time>
      </trkpt>
      <trkpt lat="43.61506" lon="3.75017">
        <ele>135</ele>
        <time>2019-09-08T08:24:13Z</time>
      </trkpt>
      <trkpt lat="43.61481" lon="3.75044">
        <ele>137.8</ele>
        <time>2019-09-08T08:24:30Z</time>
      </trkpt>
      <trkpt lat="43.6145" lon="3.75067">
        <ele>141.5</ele>
        <time>2019-09-08T08:24:47Z</time>
      </trkpt>
      <trkpt lat="43.61444" lon="3.75037">
        <ele>143.3</ele>
        <time>2019-09-08T08:24:57Z</time>
      </trkpt>
      <trkpt lat="43.61446" lon="3.75006">
        <ele>146.1</ele>
        <time>2019-09-08T08:25:09Z</time>
      </trkpt>
      <trkpt lat="43.61446" lon="3.74975">
        <ele>148.7</ele>
        <time>2019-09-08T08:25:21Z</time>
      </trkpt>
      <trkpt lat="43.61449" lon="3.74948">
        <ele>150.6</ele>
        <time>2019-09-08T08:25:30Z</time>
      </trkpt>
      <trkpt lat="43.6145" lon="3.74946">
        <ele>150.7</ele>
        <time>2019-09-08T08:25:31Z</time>
      </trkpt>
      <trkpt lat="43.61452" lon="3.74943">
        <ele>150.8</ele>
        <time>2019-09-08T08:25:32Z</time>
      </trkpt>
      <trkpt lat="43.61453" lon="3.7494">
        <ele>151</ele>
        <time>2019-09-08T08:25:33Z</time>
      </trkpt>
      <trkpt lat="43.61455" lon="3.74937">
        <ele>151.2</ele>
        <time>2019-09-08T08:25:34Z</time>
      </trkpt>
      <trkpt lat="43.61456" lon="3.74934">
        <ele>151.3</ele>
        <time>2019-09-08T08:25:35Z</time>
      </trkpt>
      <trkpt lat="43.61454" lon="3.74893">
        <ele>154.4</ele>
        <time>2019-09-08T08:25:48Z</time>
      </trkpt>
      <trkpt lat="43.6145" lon="3.74849">
        <ele>153.3</ele>
        <time>2019-09-08T08:25:58Z</time>
      </trkpt>
      <trkpt lat="43.61451" lon="3.74843">
        <ele>152.6</ele>
        <time>2019-09-08T08:25:59Z</time>
      </trkpt>
      <trkpt lat="43.61454" lon="3.74839">
        <ele>151.9</ele>
        <time>2019-09-08T08:26:00Z</time>
      </trkpt>
      <trkpt lat="43.61456" lon="3.74834">
        <ele>151.2</ele>
        <time>2019-09-08T08:26:01Z</time>
      </trkpt>
      <trkpt lat="43.61457" lon="3.74829">
        <ele>150.3</ele>
        <time>2019-09-08T08:26:02Z</time>
      </trkpt>
      <trkpt lat="43.61457" lon="3.74824">
        <ele>149.4</ele>
        <time>2019-09-08T08:26:03Z</time>
      </trkpt>
      <trkpt lat="43.61456" lon="3.74819">
        <ele>148.7</ele>
        <time>2019-09-08T08:26:04Z</time>
      </trkpt>
      <trkpt lat="43.61454" lon="3.74815">
        <ele>148.2</ele>
        <time>2019-09-08T08:26:05Z</time>
      </trkpt>
      <trkpt lat="43.61452" lon="3.74811">
        <ele>147.8</ele>
        <time>2019-09-08T08:26:06Z</time>
      </trkpt>
      <trkpt lat="43.61451" lon="3.74807">
        <ele>147.3</ele>
        <time>2019-09-08T08:26:07Z</time>
      </trkpt>
      <trkpt lat="43.61444" lon="3.74783">
        <ele>145.5</ele>
        <time>2019-09-08T08:26:12Z</time>
      </trkpt>
      <trkpt lat="43.61444" lon="3.74777">
        <ele>144.9</ele>
        <time>2019-09-08T08:26:13Z</time>
      </trkpt>
      <trkpt lat="43.61444" lon="3.7477">
        <ele>144.1</ele>
        <time>2019-09-08T08:26:14Z</time>
      </trkpt>
      <trkpt lat="43.61444" lon="3.74764">
        <ele>143.5</ele>
        <time>2019-09-08T08:26:15Z</time>
      </trkpt>
      <trkpt lat="43.61443" lon="3.74758">
        <ele>142.8</ele>
        <time>2019-09-08T08:26:16Z</time>
      </trkpt>
      <trkpt lat="43.61442" lon="3.74754">
        <ele>142.4</ele>
        <time>2019-09-08T08:26:17Z</time>
      </trkpt>
      <trkpt lat="43.61443" lon="3.74748">
        <ele>141.9</ele>
        <time>2019-09-08T08:26:18Z</time>
      </trkpt>
      <trkpt lat="43.61444" lon="3.74743">
        <ele>141.7</ele>
        <time>2019-09-08T08:26:19Z</time>
      </trkpt>
      <trkpt lat="43.61447" lon="3.74739">
        <ele>141.3</ele>
        <time>2019-09-08T08:26:20Z</time>
      </trkpt>
      <trkpt lat="43.6145" lon="3.74738">
        <ele>140.9</ele>
        <time>2019-09-08T08:26:21Z</time>
      </trkpt>
      <trkpt lat="43.61452" lon="3.74738">
        <ele>140.6</ele>
        <time>2019-09-08T08:26:22Z</time>
      </trkpt>
      <trkpt lat="43.61455" lon="3.74738">
        <ele>140.2</ele>
        <time>2019-09-08T08:26:23Z</time>
      </trkpt>
      <trkpt lat="43.61483" lon="3.74733">
        <ele>135.4</ele>
        <time>2019-09-08T08:26:31Z</time>
      </trkpt>
      <trkpt lat="43.61503" lon="3.7473">
        <ele>130.8</ele>
        <time>2019-09-08T08:26:37Z</time>
      </trkpt>
      <trkpt lat="43.61516" lon="3.7472">
        <ele>127.7</ele>
        <time>2019-09-08T08:26:41Z</time>
      </trkpt>
      <trkpt lat="43.61531" lon="3.74709">
        <ele>125.4</ele>
        <time>2019-09-08T08:26:45Z</time>
      </trkpt>
      <trkpt lat="43.61536" lon="3.74706">
        <ele>124.7</ele>
        <time>2019-09-08T08:26:46Z</time>
      </trkpt>
      <trkpt lat="43.61566" lon="3.74686">
        <ele>118.7</ele>
        <time>2019-09-08T08:26:51Z</time>
      </trkpt>
      <trkpt lat="43.61585" lon="3.74668">
        <ele>114.7</ele>
        <time>2019-09-08T08:26:55Z</time>
      </trkpt>
      <trkpt lat="43.61603" lon="3.74658">
        <ele>110.8</ele>
        <time>2019-09-08T08:26:59Z</time>
      </trkpt>
      <trkpt lat="43.6161" lon="3.74645">
        <ele>109.3</ele>
        <time>2019-09-08T08:27:02Z</time>
      </trkpt>
      <trkpt lat="43.61613" lon="3.74635">
        <ele>108.4</ele>
        <time>2019-09-08T08:27:04Z</time>
      </trkpt>
      <trkpt lat="43.61615" lon="3.74631">
        <ele>107.8</ele>
        <time>2019-09-08T08:27:05Z</time>
      </trkpt>
      <trkpt lat="43.61615" lon="3.74627">
        <ele>107.6</ele>
        <time>2019-09-08T08:27:06Z</time>
      </trkpt>
      <trkpt lat="43.61613" lon="3.74624">
        <ele>107.7</ele>
        <time>2019-09-08T08:27:07Z</time>
      </trkpt>
      <trkpt lat="43.61612" lon="3.74622">
        <ele>107.7</ele>
        <time>2019-09-08T08:27:08Z</time>
      </trkpt>
      <trkpt lat="43.6161" lon="3.74619">
        <ele>107.9</ele>
        <time>2019-09-08T08:27:09Z</time>
      </trkpt>
      <trkpt lat="43.61599" lon="3.74594">
        <ele>109</ele>
        <time>2019-09-08T08:27:17Z</time>
      </trkpt>
      <trkpt lat="43.616" lon="3.74589">
        <ele>108.3</ele>
        <time>2019-09-08T08:27:18Z</time>
      </trkpt>
      <trkpt lat="43.61603" lon="3.74584">
        <ele>107.1</ele>
        <time>2019-09-08T08:27:19Z</time>
      </trkpt>
      <trkpt lat="43.61617" lon="3.74565">
        <ele>104.8</ele>
        <time>2019-09-08T08:27:22Z</time>
      </trkpt>
      <trkpt lat="43.61629" lon="3.74531">
        <ele>104.6</ele>
        <time>2019-09-08T08:27:27Z</time>
      </trkpt>
      <trkpt lat="43.61634" lon="3.74496">
        <ele>106.2</ele>
        <time>2019-09-08T08:27:36Z</time>
      </trkpt>
      <trkpt lat="43.61622" lon="3.74452">
        <ele>107.5</ele>
        <time>2019-09-08T08:27:45Z</time>
      </trkpt>
      <trkpt lat="43.61619" lon="3.74429">
        <ele>107.3</ele>
        <time>2019-09-08T08:27:49Z</time>
      </trkpt>
      <trkpt lat="43.61622" lon="3.74355">
        <ele>109.4</ele>
        <time>2019-09-08T08:28:03Z</time>
      </trkpt>
      <trkpt lat="43.61626" lon="3.74347">
        <ele>110.7</ele>
        <time>2019-09-08T08:28:06Z</time>
      </trkpt>
      <trkpt lat="43.61624" lon="3.74335">
        <ele>111.1</ele>
        <time>2019-09-08T08:28:10Z</time>
      </trkpt>
      <trkpt lat="43.61622" lon="3.74333">
        <ele>110.8</ele>
        <time>2019-09-08T08:28:11Z</time>
      </trkpt>
      <trkpt lat="43.61622" lon="3.7433">
        <ele>111</ele>
        <time>2019-09-08T08:28:12Z</time>
      </trkpt>
      <trkpt lat="43.61621" lon="3.74327">
        <ele>110.9</ele>
        <time>2019-09-08T08:28:13Z</time>
      </trkpt>
      <trkpt lat="43.61621" lon="3.74324">
        <ele>111.1</ele>
        <time>2019-09-08T08:28:14Z</time>
      </trkpt>
      <trkpt lat="43.61609" lon="3.74263">
        <ele>110.4</ele>
        <time>2019-09-08T08:28:29Z</time>
      </trkpt>
      <trkpt lat="43.61599" lon="3.74199">
        <ele>113.7</ele>
        <time>2019-09-08T08:28:45Z</time>
      </trkpt>
      <trkpt lat="43.6161" lon="3.74154">
        <ele>114.4</ele>
        <time>2019-09-08T08:29:00Z</time>
      </trkpt>
      <trkpt lat="43.61608" lon="3.74138">
        <ele>115</ele>
        <time>2019-09-08T08:29:05Z</time>
      </trkpt>
      <trkpt lat="43.61604" lon="3.74134">
        <ele>115.2</ele>
        <time>2019-09-08T08:29:52Z</time>
      </trkpt>
      <trkpt lat="43.61587" lon="3.74121">
        <ele>114.9</ele>
        <time>2019-09-08T08:30:03Z</time>
      </trkpt>
      <trkpt lat="43.61582" lon="3.74106">
        <ele>115.4</ele>
        <time>2019-09-08T08:30:06Z</time>
      </trkpt>
      <trkpt lat="43.6156" lon="3.74037">
        <ele>116.8</ele>
        <time>2019-09-08T08:30:19Z</time>
      </trkpt>
      <trkpt lat="43.61552" lon="3.74016">
        <ele>115.6</ele>
        <time>2019-09-08T08:30:23Z</time>
      </trkpt>
      <trkpt lat="43.61541" lon="3.73948">
        <ele>115.8</ele>
        <time>2019-09-08T08:30:33Z</time>
      </trkpt>
      <trkpt lat="43.6153" lon="3.73862">
        <ele>115.5</ele>
        <time>2019-09-08T08:30:46Z</time>
      </trkpt>
      <trkpt lat="43.6153" lon="3.73851">
        <ele>115.6</ele>
        <time>2019-09-08T08:30:48Z</time>
      </trkpt>
      <trkpt lat="43.61519" lon="3.73836">
        <ele>115.3</ele>
        <time>2019-09-08T08:30:53Z</time>
      </trkpt>
      <trkpt lat="43.61481" lon="3.73804">
        <ele>118.1</ele>
        <time>2019-09-08T08:31:09Z</time>
      </trkpt>
      <trkpt lat="43.61472" lon="3.73763">
        <ele>121</ele>
        <time>2019-09-08T08:31:23Z</time>
      </trkpt>
      <trkpt lat="43.61467" lon="3.73714">
        <ele>122.6</ele>
        <time>2019-09-08T08:31:37Z</time>
      </trkpt>
      <trkpt lat="43.6145" lon="3.7367">
        <ele>125</ele>
        <time>2019-09-08T08:31:51Z</time>
      </trkpt>
      <trkpt lat="43.61435" lon="3.73664">
        <ele>127.7</ele>
        <time>2019-09-08T08:32:01Z</time>
      </trkpt>
      <trkpt lat="43.6141" lon="3.73683">
        <ele>130.6</ele>
        <time>2019-09-08T08:32:17Z</time>
      </trkpt>
      <trkpt lat="43.61389" lon="3.73693">
        <ele>134.1</ele>
        <time>2019-09-08T08:32:29Z</time>
      </trkpt>
      <trkpt lat="43.61364" lon="3.73706">
        <ele>135.9</ele>
        <time>2019-09-08T08:32:44Z</time>
      </trkpt>
      <trkpt lat="43.61338" lon="3.73706">
        <ele>138.1</ele>
        <time>2019-09-08T08:32:58Z</time>
      </trkpt>
      <trkpt lat="43.61305" lon="3.73713">
        <ele>140.1</ele>
        <time>2019-09-08T08:33:15Z</time>
      </trkpt>
      <trkpt lat="43.61281" lon="3.73725">
        <ele>142.1</ele>
        <time>2019-09-08T08:33:28Z</time>
      </trkpt>
      <trkpt lat="43.61251" lon="3.73715">
        <ele>145.2</ele>
        <time>2019-09-08T08:33:43Z</time>
      </trkpt>
      <trkpt lat="43.6122" lon="3.73702">
        <ele>148.8</ele>
        <time>2019-09-08T08:33:58Z</time>
      </trkpt>
      <trkpt lat="43.61188" lon="3.7369">
        <ele>152.6</ele>
        <time>2019-09-08T08:34:14Z</time>
      </trkpt>
      <trkpt lat="43.61166" lon="3.73659">
        <ele>154.8</ele>
        <time>2019-09-08T08:34:28Z</time>
      </trkpt>
      <trkpt lat="43.61137" lon="3.73631">
        <ele>155.7</ele>
        <time>2019-09-08T08:34:42Z</time>
      </trkpt>
      <trkpt lat="43.61113" lon="3.73607">
        <ele>155.8</ele>
        <time>2019-09-08T08:34:50Z</time>
      </trkpt>
      <trkpt lat="43.61091" lon="3.73602">
        <ele>154.5</ele>
        <time>2019-09-08T08:34:55Z</time>
      </trkpt>
      <trkpt lat="43.6103" lon="3.73587">
        <ele>151.2</ele>
        <time>2019-09-08T08:35:06Z</time>
      </trkpt>
      <trkpt lat="43.61013" lon="3.73588">
        <ele>150</ele>
        <time>2019-09-08T08:35:09Z</time>
      </trkpt>
      <trkpt lat="43.6098" lon="3.73605">
        <ele>146.5</ele>
        <time>2019-09-08T08:35:15Z</time>
      </trkpt>
      <trkpt lat="43.60952" lon="3.73623">
        <ele>144.3</ele>
        <time>2019-09-08T08:35:20Z</time>
      </trkpt>
      <trkpt lat="43.60935" lon="3.73627">
        <ele>143.3</ele>
        <time>2019-09-08T08:35:24Z</time>
      </trkpt>
      <trkpt lat="43.60931" lon="3.73621">
        <ele>143.2</ele>
        <time>2019-09-08T08:35:26Z</time>
      </trkpt>
      <trkpt lat="43.6093" lon="3.73618">
        <ele>143.2</ele>
        <time>2019-09-08T08:35:27Z</time>
      </trkpt>
      <trkpt lat="43.60929" lon="3.73615">
        <ele>143.3</ele>
        <time>2019-09-08T08:35:28Z</time>
      </trkpt>
      <trkpt lat="43.60909" lon="3.73548">
        <ele>147.5</ele>
        <time>2019-09-08T08:35:46Z</time>
      </trkpt>
      <trkpt lat="43.60905" lon="3.73526">
        <ele>148.6</ele>
        <time>2019-09-08T08:35:59Z</time>
      </trkpt>
      <trkpt lat="43.60898" lon="3.73498">
        <ele>148.6</ele>
        <time>2019-09-08T08:36:16Z</time>
      </trkpt>
      <trkpt lat="43.6089" lon="3.73487">
        <ele>147.6</ele>
        <time>2019-09-08T08:40:06Z</time>
      </trkpt>
      <trkpt lat="43.60884" lon="3.73439">
        <ele>147.5</ele>
        <time>2019-09-08T08:40:17Z</time>
      </trkpt>
      <trkpt lat="43.6088" lon="3.73373">
        <ele>149.2</ele>
        <time>2019-09-08T08:40:31Z</time>
      </trkpt>
      <trkpt lat="43.60878" lon="3.73296">
        <ele>149.3</ele>
        <time>2019-09-08T08:40:45Z</time>
      </trkpt>
      <trkpt lat="43.60883" lon="3.73243">
        <ele>151</ele>
        <time>2019-09-08T08:40:56Z</time>
      </trkpt>
      <trkpt lat="43.60869" lon="3.73187">
        <ele>153.4</ele>
        <time>2019-09-08T08:41:09Z</time>
      </trkpt>
      <trkpt lat="43.6085" lon="3.73146">
        <ele>151.9</ele>
        <time>2019-09-08T08:41:19Z</time>
      </trkpt>
      <trkpt lat="43.60839" lon="3.73089">
        <ele>153.8</ele>
        <time>2019-09-08T08:41:34Z</time>
      </trkpt>
      <trkpt lat="43.60834" lon="3.73038">
        <ele>155.4</ele>
        <time>2019-09-08T08:41:47Z</time>
      </trkpt>
      <trkpt lat="43.60829" lon="3.72971">
        <ele>155.8</ele>
        <time>2019-09-08T08:42:00Z</time>
      </trkpt>
      <trkpt lat="43.60827" lon="3.7294">
        <ele>156</ele>
        <time>2019-09-08T08:42:06Z</time>
      </trkpt>
      <trkpt lat="43.60822" lon="3.72895">
        <ele>154.3</ele>
        <time>2019-09-08T08:42:14Z</time>
      </trkpt>
      <trkpt lat="43.60832" lon="3.72832">
        <ele>154.9</ele>
        <time>2019-09-08T08:42:26Z</time>
      </trkpt>
      <trkpt lat="43.60838" lon="3.72792">
        <ele>155</ele>
        <time>2019-09-08T08:42:34Z</time>
      </trkpt>
      <trkpt lat="43.60838" lon="3.72786">
        <ele>154.9</ele>
        <time>2019-09-08T08:42:35Z</time>
      </trkpt>
      <trkpt lat="43.60837" lon="3.7278">
        <ele>154.9</ele>
        <time>2019-09-08T08:42:36Z</time>
      </trkpt>
      <trkpt lat="43.60819" lon="3.72706">
        <ele>156.1</ele>
        <time>2019-09-08T08:42:52Z</time>
      </trkpt>
      <trkpt lat="43.60814" lon="3.72658">
        <ele>157.9</ele>
        <time>2019-09-08T08:43:04Z</time>
      </trkpt>
      <trkpt lat="43.608" lon="3.72584">
        <ele>160</ele>
        <time>2019-09-08T08:43:24Z</time>
      </trkpt>
      <trkpt lat="43.60778" lon="3.72525">
        <ele>163</ele>
        <time>2019-09-08T08:43:42Z</time>
      </trkpt>
      <trkpt lat="43.60762" lon="3.72463">
        <ele>165.4</ele>
        <time>2019-09-08T08:44:00Z</time>
      </trkpt>
      <trkpt lat="43.60747" lon="3.72407">
        <ele>167.8</ele>
        <time>2019-09-08T08:44:19Z</time>
      </trkpt>
      <trkpt lat="43.60726" lon="3.72364">
        <ele>172.5</ele>
        <time>2019-09-08T08:44:35Z</time>
      </trkpt>
      <trkpt lat="43.60709" lon="3.72341">
        <ele>175.3</ele>
        <time>2019-09-08T08:44:47Z</time>
      </trkpt>
      <trkpt lat="43.60709" lon="3.72339">
        <ele>175.3</ele>
        <time>2019-09-08T08:44:48Z</time>
      </trkpt>
      <trkpt lat="43.60708" lon="3.72337">
        <ele>175.5</ele>
        <time>2019-09-08T08:44:49Z</time>
      </trkpt>
      <trkpt lat="43.60708" lon="3.72336">
        <ele>175.5</ele>
        <time>2019-09-08T08:44:50Z</time>
      </trkpt>
      <trkpt lat="43.60707" lon="3.72334">
        <ele>175.6</ele>
        <time>2019-09-08T08:44:51Z</time>
      </trkpt>
      <trkpt lat="43.60706" lon="3.72331">
        <ele>175.8</ele>
        <time>2019-09-08T08:44:52Z</time>
      </trkpt>
      <trkpt lat="43.60705" lon="3.72329">
        <ele>175.9</ele>
        <time>2019-09-08T08:44:53Z</time>
      </trkpt>
      <trkpt lat="43.60698" lon="3.72312">
        <ele>176.7</ele>
        <time>2019-09-08T08:45:06Z</time>
      </trkpt>
      <trkpt lat="43.60699" lon="3.72312">
        <ele>176.6</ele>
        <time>2019-09-08T08:45:22Z</time>
      </trkpt>
      <trkpt lat="43.60698" lon="3.72318">
        <ele>176.7</ele>
        <time>2019-09-08T08:46:34Z</time>
      </trkpt>
      <trkpt lat="43.60698" lon="3.72322">
        <ele>176.7</ele>
        <time>2019-09-08T08:47:44Z</time>
      </trkpt>
      <trkpt lat="43.607" lon="3.72317">
        <ele>176.5</ele>
        <time>2019-09-08T08:48:50Z</time>
      </trkpt>
      <trkpt lat="43.60699" lon="3.72319">
        <ele>176.6</ele>
        <time>2019-09-08T08:51:25Z</time>
      </trkpt>
      <trkpt lat="43.60698" lon="3.7232">
        <ele>176.7</ele>
        <time>2019-09-08T08:52:59Z</time>
      </trkpt>
      <trkpt lat="43.60698" lon="3.72316">
        <ele>176.7</ele>
        <time>2019-09-08T08:53:59Z</time>
      </trkpt>
      <trkpt lat="43.60699" lon="3.72314">
        <ele>176.6</ele>
        <time>2019-09-08T08:54:27Z</time>
      </trkpt>
      <trkpt lat="43.60699" lon="3.72315">
        <ele>176.6</ele>
        <time>2019-09-08T08:54:53Z</time>
      </trkpt>
      <trkpt lat="43.60699" lon="3.72314">
        <ele>176.6</ele>
        <time>2019-09-08T08:55:08Z</time>
      </trkpt>
      <trkpt lat="43.607" lon="3.72313">
        <ele>176.5</ele>
        <time>2019-09-08T08:55:27Z</time>
      </trkpt>
      <trkpt lat="43.60698" lon="3.72313">
        <ele>176.7</ele>
        <time>2019-09-08T08:55:43Z</time>
      </trkpt>
      <trkpt lat="43.60696" lon="3.72314">
        <ele>176.9</ele>
        <time>2019-09-08T08:55:44Z</time>
      </trkpt>
      <trkpt lat="43.60694" lon="3.72315">
        <ele>177</ele>
        <time>2019-09-08T08:55:47Z</time>
      </trkpt>
      <trkpt lat="43.60671" lon="3.72331">
        <ele>177.7</ele>
        <time>2019-09-08T08:55:58Z</time>
      </trkpt>
      <trkpt lat="43.60629" lon="3.72394">
        <ele>177.4</ele>
        <time>2019-09-08T08:56:16Z</time>
      </trkpt>
      <trkpt lat="43.60597" lon="3.72443">
        <ele>178.5</ele>
        <time>2019-09-08T08:56:29Z</time>
      </trkpt>
      <trkpt lat="43.60582" lon="3.72467">
        <ele>179.6</ele>
        <time>2019-09-08T08:56:35Z</time>
      </trkpt>
      <trkpt lat="43.60564" lon="3.72471">
        <ele>177.1</ele>
        <time>2019-09-08T08:56:39Z</time>
      </trkpt>
      <trkpt lat="43.60532" lon="3.72472">
        <ele>170</ele>
        <time>2019-09-08T08:56:47Z</time>
      </trkpt>
      <trkpt lat="43.6052" lon="3.72474">
        <ele>166.9</ele>
        <time>2019-09-08T08:56:51Z</time>
      </trkpt>
      <trkpt lat="43.60508" lon="3.72475">
        <ele>163.5</ele>
        <time>2019-09-08T08:56:56Z</time>
      </trkpt>
      <trkpt lat="43.605" lon="3.72473">
        <ele>161.1</ele>
        <time>2019-09-08T08:56:59Z</time>
      </trkpt>
      <trkpt lat="43.60492" lon="3.72472">
        <ele>158.4</ele>
        <time>2019-09-08T08:57:03Z</time>
      </trkpt>
      <trkpt lat="43.60481" lon="3.72469">
        <ele>154.8</ele>
        <time>2019-09-08T08:57:07Z</time>
      </trkpt>
      <trkpt lat="43.60477" lon="3.72467">
        <ele>153.5</ele>
        <time>2019-09-08T08:57:08Z</time>
      </trkpt>
      <trkpt lat="43.60466" lon="3.72461">
        <ele>151.2</ele>
        <time>2019-09-08T08:57:10Z</time>
      </trkpt>
      <trkpt lat="43.60442" lon="3.72467">
        <ele>148.1</ele>
        <time>2019-09-08T08:57:15Z</time>
      </trkpt>
      <trkpt lat="43.60411" lon="3.72481">
        <ele>147</ele>
        <time>2019-09-08T08:57:22Z</time>
      </trkpt>
      <trkpt lat="43.60389" lon="3.72491">
        <ele>147</ele>
        <time>2019-09-08T08:57:27Z</time>
      </trkpt>
      <trkpt lat="43.60349" lon="3.72517">
        <ele>145.7</ele>
        <time>2019-09-08T08:57:37Z</time>
      </trkpt>
      <trkpt lat="43.6034" lon="3.72522">
        <ele>145.5</ele>
        <time>2019-09-08T08:57:39Z</time>
      </trkpt>
      <trkpt lat="43.60303" lon="3.7255">
        <ele>143.6</ele>
        <time>2019-09-08T08:57:48Z</time>
      </trkpt>
      <trkpt lat="43.60272" lon="3.72565">
        <ele>143.3</ele>
        <time>2019-09-08T08:57:55Z</time>
      </trkpt>
      <trkpt lat="43.60208" lon="3.72618">
        <ele>141.5</ele>
        <time>2019-09-08T08:58:09Z</time>
      </trkpt>
      <trkpt lat="43.60128" lon="3.72717">
        <ele>139.2</ele>
        <time>2019-09-08T08:58:30Z</time>
      </trkpt>
      <trkpt lat="43.60112" lon="3.72737">
        <ele>138.9</ele>
        <time>2019-09-08T08:58:34Z</time>
      </trkpt>
      <trkpt lat="43.60096" lon="3.72749">
        <ele>138.1</ele>
        <time>2019-09-08T08:58:37Z</time>
      </trkpt>
      <trkpt lat="43.60065" lon="3.72775">
        <ele>135.5</ele>
        <time>2019-09-08T08:58:44Z</time>
      </trkpt>
      <trkpt lat="43.60069" lon="3.72791">
        <ele>135</ele>
        <time>2019-09-08T08:58:49Z</time>
      </trkpt>
      <trkpt lat="43.60111" lon="3.7287">
        <ele>136.7</ele>
        <time>2019-09-08T08:59:08Z</time>
      </trkpt>
      <trkpt lat="43.60144" lon="3.72922">
        <ele>138.6</ele>
        <time>2019-09-08T08:59:24Z</time>
      </trkpt>
      <trkpt lat="43.60167" lon="3.72977">
        <ele>142</ele>
        <time>2019-09-08T08:59:40Z</time>
      </trkpt>
      <trkpt lat="43.60183" lon="3.73057">
        <ele>142.1</ele>
        <time>2019-09-08T08:59:59Z</time>
      </trkpt>
      <trkpt lat="43.60187" lon="3.73067">
        <ele>141.9</ele>
        <time>2019-09-08T09:00:01Z</time>
      </trkpt>
      <trkpt lat="43.60189" lon="3.73073">
        <ele>141.6</ele>
        <time>2019-09-08T09:00:02Z</time>
      </trkpt>
      <trkpt lat="43.60193" lon="3.73078">
        <ele>141.4</ele>
        <time>2019-09-08T09:00:03Z</time>
      </trkpt>
      <trkpt lat="43.60197" lon="3.73085">
        <ele>140.9</ele>
        <time>2019-09-08T09:00:04Z</time>
      </trkpt>
      <trkpt lat="43.60202" lon="3.73091">
        <ele>140.2</ele>
        <time>2019-09-08T09:00:05Z</time>
      </trkpt>
      <trkpt lat="43.60242" lon="3.73137">
        <ele>132.6</ele>
        <time>2019-09-08T09:00:13Z</time>
      </trkpt>
      <trkpt lat="43.60245" lon="3.73141">
        <ele>132.6</ele>
        <time>2019-09-08T09:00:14Z</time>
      </trkpt>
      <trkpt lat="43.60247" lon="3.73147">
        <ele>132.8</ele>
        <time>2019-09-08T09:00:15Z</time>
      </trkpt>
      <trkpt lat="43.60247" lon="3.73153">
        <ele>132.8</ele>
        <time>2019-09-08T09:00:16Z</time>
      </trkpt>
      <trkpt lat="43.60245" lon="3.73158">
        <ele>132.6</ele>
        <time>2019-09-08T09:00:17Z</time>
      </trkpt>
      <trkpt lat="43.60242" lon="3.73161">
        <ele>132.4</ele>
        <time>2019-09-08T09:00:18Z</time>
      </trkpt>
      <trkpt lat="43.60238" lon="3.73163">
        <ele>132.1</ele>
        <time>2019-09-08T09:00:19Z</time>
      </trkpt>
      <trkpt lat="43.60234" lon="3.73164">
        <ele>131.8</ele>
        <time>2019-09-08T09:00:20Z</time>
      </trkpt>
      <trkpt lat="43.60225" lon="3.73168">
        <ele>131.3</ele>
        <time>2019-09-08T09:00:22Z</time>
      </trkpt>
      <trkpt lat="43.60168" lon="3.73223">
        <ele>128.2</ele>
        <time>2019-09-08T09:00:34Z</time>
      </trkpt>
      <trkpt lat="43.60146" lon="3.73258">
        <ele>127.6</ele>
        <time>2019-09-08T09:00:39Z</time>
      </trkpt>
      <trkpt lat="43.601" lon="3.73375">
        <ele>124.1</ele>
        <time>2019-09-08T09:00:52Z</time>
      </trkpt>
      <trkpt lat="43.60088" lon="3.73402">
        <ele>123.7</ele>
        <time>2019-09-08T09:00:55Z</time>
      </trkpt>
      <trkpt lat="43.60084" lon="3.7341">
        <ele>123.1</ele>
        <time>2019-09-08T09:00:56Z</time>
      </trkpt>
      <trkpt lat="43.60079" lon="3.73416">
        <ele>123</ele>
        <time>2019-09-08T09:00:57Z</time>
      </trkpt>
      <trkpt lat="43.60073" lon="3.73421">
        <ele>122.9</ele>
        <time>2019-09-08T09:00:58Z</time>
      </trkpt>
      <trkpt lat="43.60068" lon="3.73424">
        <ele>122.7</ele>
        <time>2019-09-08T09:00:59Z</time>
      </trkpt>
      <trkpt lat="43.60065" lon="3.7343">
        <ele>122.4</ele>
        <time>2019-09-08T09:01:00Z</time>
      </trkpt>
      <trkpt lat="43.60064" lon="3.73437">
        <ele>122</ele>
        <time>2019-09-08T09:01:01Z</time>
      </trkpt>
      <trkpt lat="43.60066" lon="3.73444">
        <ele>121.8</ele>
        <time>2019-09-08T09:01:02Z</time>
      </trkpt>
      <trkpt lat="43.60069" lon="3.73451">
        <ele>121.7</ele>
        <time>2019-09-08T09:01:03Z</time>
      </trkpt>
      <trkpt lat="43.60071" lon="3.73458">
        <ele>121.6</ele>
        <time>2019-09-08T09:01:04Z</time>
      </trkpt>
      <trkpt lat="43.60092" lon="3.7355">
        <ele>118.6</ele>
        <time>2019-09-08T09:01:13Z</time>
      </trkpt>
      <trkpt lat="43.60118" lon="3.73678">
        <ele>116.3</ele>
        <time>2019-09-08T09:01:24Z</time>
      </trkpt>
      <trkpt lat="43.60121" lon="3.73739">
        <ele>115.9</ele>
        <time>2019-09-08T09:01:30Z</time>
      </trkpt>
      <trkpt lat="43.60121" lon="3.73747">
        <ele>115.9</ele>
        <time>2019-09-08T09:01:31Z</time>
      </trkpt>
      <trkpt lat="43.60112" lon="3.73787">
        <ele>116.9</ele>
        <time>2019-09-08T09:01:37Z</time>
      </trkpt>
      <trkpt lat="43.60109" lon="3.73788">
        <ele>117.1</ele>
        <time>2019-09-08T09:01:38Z</time>
      </trkpt>
      <trkpt lat="43.60066" lon="3.73799">
        <ele>119.5</ele>
        <time>2019-09-08T09:01:51Z</time>
      </trkpt>
      <trkpt lat="43.60042" lon="3.73791">
        <ele>122.2</ele>
        <time>2019-09-08T09:02:03Z</time>
      </trkpt>
      <trkpt lat="43.60021" lon="3.73771">
        <ele>125.7</ele>
        <time>2019-09-08T09:02:15Z</time>
      </trkpt>
      <trkpt lat="43.60033" lon="3.73722">
        <ele>124.6</ele>
        <time>2019-09-08T09:02:27Z</time>
      </trkpt>
      <trkpt lat="43.6005" lon="3.73677">
        <ele>122.5</ele>
        <time>2019-09-08T09:02:35Z</time>
      </trkpt>
      <trkpt lat="43.60042" lon="3.73663">
        <ele>123.7</ele>
        <time>2019-09-08T09:02:41Z</time>
      </trkpt>
      <trkpt lat="43.6004" lon="3.73648">
        <ele>123.3</ele>
        <time>2019-09-08T09:02:46Z</time>
      </trkpt>
      <trkpt lat="43.60042" lon="3.73625">
        <ele>121.7</ele>
        <time>2019-09-08T09:02:51Z</time>
      </trkpt>
      <trkpt lat="43.60026" lon="3.73598">
        <ele>121.8</ele>
        <time>2019-09-08T09:02:59Z</time>
      </trkpt>
      <trkpt lat="43.6002" lon="3.73599">
        <ele>122.7</ele>
        <time>2019-09-08T09:03:01Z</time>
      </trkpt>
      <trkpt lat="43.60016" lon="3.73597">
        <ele>123</ele>
        <time>2019-09-08T09:03:03Z</time>
      </trkpt>
      <trkpt lat="43.60006" lon="3.73595">
        <ele>124.1</ele>
        <time>2019-09-08T09:03:07Z</time>
      </trkpt>
      <trkpt lat="43.59996" lon="3.73602">
        <ele>126.4</ele>
        <time>2019-09-08T09:03:16Z</time>
      </trkpt>
      <trkpt lat="43.5999" lon="3.73624">
        <ele>130</ele>
        <time>2019-09-08T09:03:26Z</time>
      </trkpt>
      <trkpt lat="43.59988" lon="3.73655">
        <ele>133.4</ele>
        <time>2019-09-08T09:03:36Z</time>
      </trkpt>
      <trkpt lat="43.59982" lon="3.73689">
        <ele>136.5</ele>
        <time>2019-09-08T09:03:49Z</time>
      </trkpt>
      <trkpt lat="43.59975" lon="3.73712">
        <ele>137.2</ele>
        <time>2019-09-08T09:03:58Z</time>
      </trkpt>
      <trkpt lat="43.59976" lon="3.73715">
        <ele>136.8</ele>
        <time>2019-09-08T09:03:59Z</time>
      </trkpt>
      <trkpt lat="43.59976" lon="3.73718">
        <ele>136.6</ele>
        <time>2019-09-08T09:04:00Z</time>
      </trkpt>
      <trkpt lat="43.59976" lon="3.73721">
        <ele>136.4</ele>
        <time>2019-09-08T09:04:01Z</time>
      </trkpt>
      <trkpt lat="43.59975" lon="3.73723">
        <ele>136.5</ele>
        <time>2019-09-08T09:04:02Z</time>
      </trkpt>
      <trkpt lat="43.59974" lon="3.73726">
        <ele>136.7</ele>
        <time>2019-09-08T09:04:03Z</time>
      </trkpt>
      <trkpt lat="43.59973" lon="3.73728">
        <ele>136.9</ele>
        <time>2019-09-08T09:04:04Z</time>
      </trkpt>
      <trkpt lat="43.59971" lon="3.73729">
        <ele>137.5</ele>
        <time>2019-09-08T09:04:05Z</time>
      </trkpt>
      <trkpt lat="43.5997" lon="3.73729">
        <ele>137.9</ele>
        <time>2019-09-08T09:04:06Z</time>
      </trkpt>
      <trkpt lat="43.59968" lon="3.73731">
        <ele>138.7</ele>
        <time>2019-09-08T09:04:07Z</time>
      </trkpt>
      <trkpt lat="43.59968" lon="3.73733">
        <ele>138.6</ele>
        <time>2019-09-08T09:04:08Z</time>
      </trkpt>
      <trkpt lat="43.59967" lon="3.73735">
        <ele>139</ele>
        <time>2019-09-08T09:04:09Z</time>
      </trkpt>
      <trkpt lat="43.59966" lon="3.73737">
        <ele>139.3</ele>
        <time>2019-09-08T09:04:10Z</time>
      </trkpt>
      <trkpt lat="43.59965" lon="3.73739">
        <ele>139.6</ele>
        <time>2019-09-08T09:04:11Z</time>
      </trkpt>
      <trkpt lat="43.59964" lon="3.7374">
        <ele>140</ele>
        <time>2019-09-08T09:04:12Z</time>
      </trkpt>
      <trkpt lat="43.59962" lon="3.73741">
        <ele>140.7</ele>
        <time>2019-09-08T09:04:13Z</time>
      </trkpt>
      <trkpt lat="43.59961" lon="3.73742">
        <ele>141</ele>
        <time>2019-09-08T09:04:14Z</time>
      </trkpt>
      <trkpt lat="43.5996" lon="3.73744">
        <ele>141.2</ele>
        <time>2019-09-08T09:04:15Z</time>
      </trkpt>
      <trkpt lat="43.59959" lon="3.73746">
        <ele>141.5</ele>
        <time>2019-09-08T09:04:16Z</time>
      </trkpt>
      <trkpt lat="43.59958" lon="3.73747">
        <ele>141.8</ele>
        <time>2019-09-08T09:04:17Z</time>
      </trkpt>
      <trkpt lat="43.59957" lon="3.73749">
        <ele>142</ele>
        <time>2019-09-08T09:04:18Z</time>
      </trkpt>
      <trkpt lat="43.59956" lon="3.7375">
        <ele>142.3</ele>
        <time>2019-09-08T09:04:19Z</time>
      </trkpt>
      <trkpt lat="43.59955" lon="3.73752">
        <ele>142.4</ele>
        <time>2019-09-08T09:04:20Z</time>
      </trkpt>
      <trkpt lat="43.59954" lon="3.73754">
        <ele>142.5</ele>
        <time>2019-09-08T09:04:21Z</time>
      </trkpt>
      <trkpt lat="43.59953" lon="3.73755">
        <ele>142.7</ele>
        <time>2019-09-08T09:04:22Z</time>
      </trkpt>
      <trkpt lat="43.59942" lon="3.73778">
        <ele>143</ele>
        <time>2019-09-08T09:04:32Z</time>
      </trkpt>
      <trkpt lat="43.59934" lon="3.7379">
        <ele>145.6</ele>
        <time>2019-09-08T09:04:39Z</time>
      </trkpt>
      <trkpt lat="43.59934" lon="3.73793">
        <ele>145.5</ele>
        <time>2019-09-08T09:04:40Z</time>
      </trkpt>
      <trkpt lat="43.59933" lon="3.73796">
        <ele>145.7</ele>
        <time>2019-09-08T09:04:41Z</time>
      </trkpt>
      <trkpt lat="43.59932" lon="3.73799">
        <ele>145.9</ele>
        <time>2019-09-08T09:04:42Z</time>
      </trkpt>
      <trkpt lat="43.59931" lon="3.73801">
        <ele>146.1</ele>
        <time>2019-09-08T09:04:43Z</time>
      </trkpt>
      <trkpt lat="43.5993" lon="3.73804">
        <ele>146.2</ele>
        <time>2019-09-08T09:04:44Z</time>
      </trkpt>
      <trkpt lat="43.59929" lon="3.73806">
        <ele>146.4</ele>
        <time>2019-09-08T09:04:45Z</time>
      </trkpt>
      <trkpt lat="43.59928" lon="3.73809">
        <ele>146.3</ele>
        <time>2019-09-08T09:04:46Z</time>
      </trkpt>
      <trkpt lat="43.59928" lon="3.73812">
        <ele>146</ele>
        <time>2019-09-08T09:04:47Z</time>
      </trkpt>
      <trkpt lat="43.59928" lon="3.73816">
        <ele>145.5</ele>
        <time>2019-09-08T09:04:48Z</time>
      </trkpt>
      <trkpt lat="43.59928" lon="3.73819">
        <ele>145.2</ele>
        <time>2019-09-08T09:04:49Z</time>
      </trkpt>
      <trkpt lat="43.59926" lon="3.73822">
        <ele>145.3</ele>
        <time>2019-09-08T09:04:50Z</time>
      </trkpt>
      <trkpt lat="43.59925" lon="3.73825">
        <ele>145.2</ele>
        <time>2019-09-08T09:04:51Z</time>
      </trkpt>
      <trkpt lat="43.59923" lon="3.73827">
        <ele>145.4</ele>
        <time>2019-09-08T09:04:52Z</time>
      </trkpt>
      <trkpt lat="43.59921" lon="3.73829">
        <ele>145.6</ele>
        <time>2019-09-08T09:04:53Z</time>
      </trkpt>
      <trkpt lat="43.5991" lon="3.73853">
        <ele>146.5</ele>
        <time>2019-09-08T09:05:02Z</time>
      </trkpt>
      <trkpt lat="43.59906" lon="3.73873">
        <ele>145.2</ele>
        <time>2019-09-08T09:05:08Z</time>
      </trkpt>
      <trkpt lat="43.59905" lon="3.73875">
        <ele>145.2</ele>
        <time>2019-09-08T09:05:09Z</time>
      </trkpt>
      <trkpt lat="43.599" lon="3.73883">
        <ele>145.4</ele>
        <time>2019-09-08T09:05:13Z</time>
      </trkpt>
      <trkpt lat="43.59901" lon="3.73886">
        <ele>144.8</ele>
        <time>2019-09-08T09:05:14Z</time>
      </trkpt>
      <trkpt lat="43.59904" lon="3.73889">
        <ele>143.7</ele>
        <time>2019-09-08T09:05:15Z</time>
      </trkpt>
      <trkpt lat="43.59906" lon="3.73896">
        <ele>142.4</ele>
        <time>2019-09-08T09:05:18Z</time>
      </trkpt>
      <trkpt lat="43.59906" lon="3.739">
        <ele>141.9</ele>
        <time>2019-09-08T09:05:19Z</time>
      </trkpt>
      <trkpt lat="43.59907" lon="3.73905">
        <ele>141</ele>
        <time>2019-09-08T09:05:20Z</time>
      </trkpt>
      <trkpt lat="43.59909" lon="3.73925">
        <ele>138.2</ele>
        <time>2019-09-08T09:05:24Z</time>
      </trkpt>
      <trkpt lat="43.59914" lon="3.73947">
        <ele>135.4</ele>
        <time>2019-09-08T09:05:30Z</time>
      </trkpt>
      <trkpt lat="43.59925" lon="3.73962">
        <ele>132.6</ele>
        <time>2019-09-08T09:05:34Z</time>
      </trkpt>
      <trkpt lat="43.59926" lon="3.73975">
        <ele>131.9</ele>
        <time>2019-09-08T09:05:40Z</time>
      </trkpt>
      <trkpt lat="43.59915" lon="3.73994">
        <ele>132.4</ele>
        <time>2019-09-08T09:05:46Z</time>
      </trkpt>
      <trkpt lat="43.59924" lon="3.74011">
        <ele>130.3</ele>
        <time>2019-09-08T09:05:53Z</time>
      </trkpt>
      <trkpt lat="43.59922" lon="3.74024">
        <ele>129.5</ele>
        <time>2019-09-08T09:05:56Z</time>
      </trkpt>
      <trkpt lat="43.59919" lon="3.74027">
        <ele>129.7</ele>
        <time>2019-09-08T09:05:57Z</time>
      </trkpt>
      <trkpt lat="43.59916" lon="3.74028">
        <ele>130</ele>
        <time>2019-09-08T09:05:58Z</time>
      </trkpt>
      <trkpt lat="43.59913" lon="3.74028">
        <ele>130.2</ele>
        <time>2019-09-08T09:05:59Z</time>
      </trkpt>
      <trkpt lat="43.59858" lon="3.74022">
        <ele>132.9</ele>
        <time>2019-09-08T09:06:13Z</time>
      </trkpt>
      <trkpt lat="43.59803" lon="3.74015">
        <ele>136.4</ele>
        <time>2019-09-08T09:06:27Z</time>
      </trkpt>
      <trkpt lat="43.59774" lon="3.73989">
        <ele>140.6</ele>
        <time>2019-09-08T09:06:38Z</time>
      </trkpt>
      <trkpt lat="43.59759" lon="3.73963">
        <ele>141.3</ele>
        <time>2019-09-08T09:06:45Z</time>
      </trkpt>
      <trkpt lat="43.59757" lon="3.73957">
        <ele>140.8</ele>
        <time>2019-09-08T09:06:46Z</time>
      </trkpt>
      <trkpt lat="43.59742" lon="3.73912">
        <ele>139.3</ele>
        <time>2019-09-08T09:06:52Z</time>
      </trkpt>
      <trkpt lat="43.59739" lon="3.73905">
        <ele>139.4</ele>
        <time>2019-09-08T09:06:53Z</time>
      </trkpt>
      <trkpt lat="43.59734" lon="3.73899">
        <ele>139.5</ele>
        <time>2019-09-08T09:06:54Z</time>
      </trkpt>
      <trkpt lat="43.5973" lon="3.73894">
        <ele>140.1</ele>
        <time>2019-09-08T09:06:55Z</time>
      </trkpt>
      <trkpt lat="43.59725" lon="3.7389">
        <ele>140.7</ele>
        <time>2019-09-08T09:06:56Z</time>
      </trkpt>
      <trkpt lat="43.5972" lon="3.73887">
        <ele>141.2</ele>
        <time>2019-09-08T09:06:57Z</time>
      </trkpt>
      <trkpt lat="43.59715" lon="3.73885">
        <ele>141.3</ele>
        <time>2019-09-08T09:06:58Z</time>
      </trkpt>
      <trkpt lat="43.59709" lon="3.73884">
        <ele>141.3</ele>
        <time>2019-09-08T09:06:59Z</time>
      </trkpt>
      <trkpt lat="43.59704" lon="3.73884">
        <ele>141.2</ele>
        <time>2019-09-08T09:07:00Z</time>
      </trkpt>
      <trkpt lat="43.59699" lon="3.73884">
        <ele>141</ele>
        <time>2019-09-08T09:07:01Z</time>
      </trkpt>
      <trkpt lat="43.59641" lon="3.73896">
        <ele>143.2</ele>
        <time>2019-09-08T09:07:12Z</time>
      </trkpt>
      <trkpt lat="43.59636" lon="3.739">
        <ele>142.9</ele>
        <time>2019-09-08T09:07:13Z</time>
      </trkpt>
      <trkpt lat="43.59583" lon="3.73923">
        <ele>143.3</ele>
        <time>2019-09-08T09:07:24Z</time>
      </trkpt>
      <trkpt lat="43.59578" lon="3.73926">
        <ele>142.5</ele>
        <time>2019-09-08T09:07:25Z</time>
      </trkpt>
      <trkpt lat="43.59572" lon="3.7393">
        <ele>141.7</ele>
        <time>2019-09-08T09:07:26Z</time>
      </trkpt>
      <trkpt lat="43.59567" lon="3.73934">
        <ele>141.1</ele>
        <time>2019-09-08T09:07:27Z</time>
      </trkpt>
      <trkpt lat="43.59563" lon="3.73939">
        <ele>140.6</ele>
        <time>2019-09-08T09:07:28Z</time>
      </trkpt>
      <trkpt lat="43.5956" lon="3.73944">
        <ele>140.2</ele>
        <time>2019-09-08T09:07:29Z</time>
      </trkpt>
      <trkpt lat="43.59559" lon="3.73949">
        <ele>139.6</ele>
        <time>2019-09-08T09:07:30Z</time>
      </trkpt>
      <trkpt lat="43.59558" lon="3.73956">
        <ele>138.8</ele>
        <time>2019-09-08T09:07:31Z</time>
      </trkpt>
      <trkpt lat="43.5955" lon="3.74016">
        <ele>132.7</ele>
        <time>2019-09-08T09:07:37Z</time>
      </trkpt>
      <trkpt lat="43.59536" lon="3.74063">
        <ele>129.4</ele>
        <time>2019-09-08T09:07:41Z</time>
      </trkpt>
      <trkpt lat="43.59507" lon="3.74123">
        <ele>127.3</ele>
        <time>2019-09-08T09:07:47Z</time>
      </trkpt>
      <trkpt lat="43.59502" lon="3.74132">
        <ele>127.2</ele>
        <time>2019-09-08T09:07:48Z</time>
      </trkpt>
      <trkpt lat="43.59488" lon="3.7417">
        <ele>122.3</ele>
        <time>2019-09-08T09:07:52Z</time>
      </trkpt>
      <trkpt lat="43.59476" lon="3.74228">
        <ele>116.2</ele>
        <time>2019-09-08T09:07:57Z</time>
      </trkpt>
      <trkpt lat="43.59475" lon="3.7424">
        <ele>115.7</ele>
        <time>2019-09-08T09:07:58Z</time>
      </trkpt>
      <trkpt lat="43.59463" lon="3.74275">
        <ele>112.2</ele>
        <time>2019-09-08T09:08:02Z</time>
      </trkpt>
      <trkpt lat="43.59461" lon="3.74279">
        <ele>111.6</ele>
        <time>2019-09-08T09:08:03Z</time>
      </trkpt>
      <trkpt lat="43.59449" lon="3.74283">
        <ele>108.8</ele>
        <time>2019-09-08T09:08:07Z</time>
      </trkpt>
      <trkpt lat="43.59442" lon="3.74286">
        <ele>107.7</ele>
        <time>2019-09-08T09:08:09Z</time>
      </trkpt>
      <trkpt lat="43.59434" lon="3.74279">
        <ele>107.9</ele>
        <time>2019-09-08T09:08:14Z</time>
      </trkpt>
      <trkpt lat="43.59421" lon="3.74285">
        <ele>107.5</ele>
        <time>2019-09-08T09:08:19Z</time>
      </trkpt>
      <trkpt lat="43.59399" lon="3.74287">
        <ele>108</ele>
        <time>2019-09-08T09:08:26Z</time>
      </trkpt>
      <trkpt lat="43.59388" lon="3.74279">
        <ele>108.9</ele>
        <time>2019-09-08T09:08:30Z</time>
      </trkpt>
      <trkpt lat="43.59372" lon="3.74284">
        <ele>108.9</ele>
        <time>2019-09-08T09:08:35Z</time>
      </trkpt>
      <trkpt lat="43.59358" lon="3.74295">
        <ele>107.6</ele>
        <time>2019-09-08T09:08:41Z</time>
      </trkpt>
      <trkpt lat="43.59372" lon="3.74316">
        <ele>105.5</ele>
        <time>2019-09-08T09:08:48Z</time>
      </trkpt>
      <trkpt lat="43.59384" lon="3.74322">
        <ele>105.2</ele>
        <time>2019-09-08T09:08:51Z</time>
      </trkpt>
      <trkpt lat="43.59401" lon="3.74344">
        <ele>103.7</ele>
        <time>2019-09-08T09:08:57Z</time>
      </trkpt>
      <trkpt lat="43.59388" lon="3.74388">
        <ele>100.1</ele>
        <time>2019-09-08T09:09:05Z</time>
      </trkpt>
      <trkpt lat="43.59387" lon="3.74394">
        <ele>100</ele>
        <time>2019-09-08T09:09:06Z</time>
      </trkpt>
      <trkpt lat="43.59382" lon="3.74405">
        <ele>99.7</ele>
        <time>2019-09-08T09:09:08Z</time>
      </trkpt>
      <trkpt lat="43.59376" lon="3.74427">
        <ele>98.7</ele>
        <time>2019-09-08T09:09:12Z</time>
      </trkpt>
      <trkpt lat="43.59366" lon="3.7448">
        <ele>96.2</ele>
        <time>2019-09-08T09:09:20Z</time>
      </trkpt>
      <trkpt lat="43.59351" lon="3.74504">
        <ele>94.3</ele>
        <time>2019-09-08T09:09:24Z</time>
      </trkpt>
      <trkpt lat="43.59305" lon="3.74542">
        <ele>92.4</ele>
        <time>2019-09-08T09:09:33Z</time>
      </trkpt>
      <trkpt lat="43.59284" lon="3.74573">
        <ele>91.2</ele>
        <time>2019-09-08T09:09:38Z</time>
      </trkpt>
      <trkpt lat="43.59271" lon="3.74616">
        <ele>92.9</ele>
        <time>2019-09-08T09:09:43Z</time>
      </trkpt>
      <trkpt lat="43.59234" lon="3.74675">
        <ele>93.2</ele>
        <time>2019-09-08T09:09:52Z</time>
      </trkpt>
      <trkpt lat="43.5921" lon="3.74682">
        <ele>89.2</ele>
        <time>2019-09-08T09:09:58Z</time>
      </trkpt>
      <trkpt lat="43.59205" lon="3.74678">
        <ele>88.5</ele>
        <time>2019-09-08T09:09:59Z</time>
      </trkpt>
      <trkpt lat="43.59201" lon="3.74673">
        <ele>87.9</ele>
        <time>2019-09-08T09:10:00Z</time>
      </trkpt>
      <trkpt lat="43.59197" lon="3.74666">
        <ele>87.4</ele>
        <time>2019-09-08T09:10:01Z</time>
      </trkpt>
      <trkpt lat="43.59195" lon="3.74658">
        <ele>87.1</ele>
        <time>2019-09-08T09:10:02Z</time>
      </trkpt>
      <trkpt lat="43.59185" lon="3.74633">
        <ele>88.4</ele>
        <time>2019-09-08T09:10:06Z</time>
      </trkpt>
      <trkpt lat="43.59182" lon="3.74631">
        <ele>88.9</ele>
        <time>2019-09-08T09:10:07Z</time>
      </trkpt>
      <trkpt lat="43.59178" lon="3.74631">
        <ele>89.4</ele>
        <time>2019-09-08T09:10:08Z</time>
      </trkpt>
      <trkpt lat="43.59176" lon="3.74633">
        <ele>89.5</ele>
        <time>2019-09-08T09:10:09Z</time>
      </trkpt>
      <trkpt lat="43.59174" lon="3.74636">
        <ele>89.5</ele>
        <time>2019-09-08T09:10:10Z</time>
      </trkpt>
      <trkpt lat="43.59146" lon="3.74675">
        <ele>89.3</ele>
        <time>2019-09-08T09:10:20Z</time>
      </trkpt>
      <trkpt lat="43.59101" lon="3.74697">
        <ele>94.3</ele>
        <time>2019-09-08T09:10:34Z</time>
      </trkpt>
      <trkpt lat="43.59078" lon="3.74699">
        <ele>97.6</ele>
        <time>2019-09-08T09:10:43Z</time>
      </trkpt>
      <trkpt lat="43.59076" lon="3.747">
        <ele>97.9</ele>
        <time>2019-09-08T09:10:44Z</time>
      </trkpt>
      <trkpt lat="43.5907" lon="3.7471">
        <ele>98.3</ele>
        <time>2019-09-08T09:10:48Z</time>
      </trkpt>
      <trkpt lat="43.59053" lon="3.74741">
        <ele>98.9</ele>
        <time>2019-09-08T09:10:59Z</time>
      </trkpt>
      <trkpt lat="43.59006" lon="3.74728">
        <ele>102.6</ele>
        <time>2019-09-08T09:11:12Z</time>
      </trkpt>
      <trkpt lat="43.58971" lon="3.74716">
        <ele>103.2</ele>
        <time>2019-09-08T09:11:21Z</time>
      </trkpt>
      <trkpt lat="43.58952" lon="3.74716">
        <ele>102.5</ele>
        <time>2019-09-08T09:11:25Z</time>
      </trkpt>
      <trkpt lat="43.58907" lon="3.74714">
        <ele>101.5</ele>
        <time>2019-09-08T09:11:34Z</time>
      </trkpt>
      <trkpt lat="43.58908" lon="3.74695">
        <ele>102</ele>
        <time>2019-09-08T09:11:39Z</time>
      </trkpt>
      <trkpt lat="43.58928" lon="3.74654">
        <ele>105.3</ele>
        <time>2019-09-08T09:11:51Z</time>
      </trkpt>
      <trkpt lat="43.58929" lon="3.74619">
        <ele>107.2</ele>
        <time>2019-09-08T09:12:00Z</time>
      </trkpt>
      <trkpt lat="43.58927" lon="3.74612">
        <ele>107.3</ele>
        <time>2019-09-08T09:12:02Z</time>
      </trkpt>
      <trkpt lat="43.58943" lon="3.74595">
        <ele>109.1</ele>
        <time>2019-09-08T09:12:10Z</time>
      </trkpt>
      <trkpt lat="43.5894" lon="3.74585">
        <ele>109.9</ele>
        <time>2019-09-08T09:12:14Z</time>
      </trkpt>
      <trkpt lat="43.58905" lon="3.74565">
        <ele>110.2</ele>
        <time>2019-09-08T09:12:25Z</time>
      </trkpt>
      <trkpt lat="43.58886" lon="3.74565">
        <ele>109.5</ele>
        <time>2019-09-08T09:12:29Z</time>
      </trkpt>
      <trkpt lat="43.58823" lon="3.74521">
        <ele>108.9</ele>
        <time>2019-09-08T09:12:43Z</time>
      </trkpt>
      <trkpt lat="43.58802" lon="3.74504">
        <ele>108.7</ele>
        <time>2019-09-08T09:12:48Z</time>
      </trkpt>
      <trkpt lat="43.58778" lon="3.74478">
        <ele>109.6</ele>
        <time>2019-09-08T09:12:54Z</time>
      </trkpt>
      <trkpt lat="43.58723" lon="3.74439">
        <ele>107.8</ele>
        <time>2019-09-08T09:13:06Z</time>
      </trkpt>
      <trkpt lat="43.58719" lon="3.74434">
        <ele>107.3</ele>
        <time>2019-09-08T09:13:07Z</time>
      </trkpt>
      <trkpt lat="43.58716" lon="3.74428">
        <ele>106.9</ele>
        <time>2019-09-08T09:13:08Z</time>
      </trkpt>
      <trkpt lat="43.58713" lon="3.74421">
        <ele>106.4</ele>
        <time>2019-09-08T09:13:09Z</time>
      </trkpt>
      <trkpt lat="43.58711" lon="3.74415">
        <ele>106.1</ele>
        <time>2019-09-08T09:13:10Z</time>
      </trkpt>
      <trkpt lat="43.58707" lon="3.7441">
        <ele>105.5</ele>
        <time>2019-09-08T09:13:11Z</time>
      </trkpt>
      <trkpt lat="43.58702" lon="3.74407">
        <ele>104.9</ele>
        <time>2019-09-08T09:13:12Z</time>
      </trkpt>
      <trkpt lat="43.58697" lon="3.74405">
        <ele>104.4</ele>
        <time>2019-09-08T09:13:13Z</time>
      </trkpt>
      <trkpt lat="43.58692" lon="3.74403">
        <ele>103.6</ele>
        <time>2019-09-08T09:13:14Z</time>
      </trkpt>
      <trkpt lat="43.58688" lon="3.74401">
        <ele>102.7</ele>
        <time>2019-09-08T09:13:15Z</time>
      </trkpt>
      <trkpt lat="43.58684" lon="3.74398">
        <ele>101.8</ele>
        <time>2019-09-08T09:13:16Z</time>
      </trkpt>
      <trkpt lat="43.58682" lon="3.74393">
        <ele>101.1</ele>
        <time>2019-09-08T09:13:17Z</time>
      </trkpt>
      <trkpt lat="43.5868" lon="3.74387">
        <ele>100.2</ele>
        <time>2019-09-08T09:13:18Z</time>
      </trkpt>
      <trkpt lat="43.5868" lon="3.74381">
        <ele>99.7</ele>
        <time>2019-09-08T09:13:19Z</time>
      </trkpt>
      <trkpt lat="43.5868" lon="3.74376">
        <ele>99.2</ele>
        <time>2019-09-08T09:13:20Z</time>
      </trkpt>
      <trkpt lat="43.58679" lon="3.74372">
        <ele>98.7</ele>
        <time>2019-09-08T09:13:21Z</time>
      </trkpt>
      <trkpt lat="43.58678" lon="3.7437">
        <ele>98.4</ele>
        <time>2019-09-08T09:13:22Z</time>
      </trkpt>
      <trkpt lat="43.58672" lon="3.74371">
        <ele>97.5</ele>
        <time>2019-09-08T09:13:24Z</time>
      </trkpt>
      <trkpt lat="43.5867" lon="3.74374">
        <ele>97.5</ele>
        <time>2019-09-08T09:13:25Z</time>
      </trkpt>
      <trkpt lat="43.58668" lon="3.74378">
        <ele>97.4</ele>
        <time>2019-09-08T09:13:26Z</time>
      </trkpt>
      <trkpt lat="43.58666" lon="3.74383">
        <ele>97.5</ele>
        <time>2019-09-08T09:13:27Z</time>
      </trkpt>
      <trkpt lat="43.58647" lon="3.74431">
        <ele>98.4</ele>
        <time>2019-09-08T09:13:36Z</time>
      </trkpt>
      <trkpt lat="43.58646" lon="3.74438">
        <ele>98.5</ele>
        <time>2019-09-08T09:13:37Z</time>
      </trkpt>
      <trkpt lat="43.58645" lon="3.74445">
        <ele>98.6</ele>
        <time>2019-09-08T09:13:38Z</time>
      </trkpt>
      <trkpt lat="43.58655" lon="3.74555">
        <ele>95.8</ele>
        <time>2019-09-08T09:13:51Z</time>
      </trkpt>
      <trkpt lat="43.58657" lon="3.74592">
        <ele>96.7</ele>
        <time>2019-09-08T09:13:55Z</time>
      </trkpt>
      <trkpt lat="43.58657" lon="3.746">
        <ele>97.1</ele>
        <time>2019-09-08T09:13:56Z</time>
      </trkpt>
      <trkpt lat="43.58656" lon="3.74608">
        <ele>97.5</ele>
        <time>2019-09-08T09:13:57Z</time>
      </trkpt>
      <trkpt lat="43.58654" lon="3.74615">
        <ele>97.7</ele>
        <time>2019-09-08T09:13:58Z</time>
      </trkpt>
      <trkpt lat="43.58653" lon="3.74622">
        <ele>97.9</ele>
        <time>2019-09-08T09:13:59Z</time>
      </trkpt>
      <trkpt lat="43.5865" lon="3.74629">
        <ele>98</ele>
        <time>2019-09-08T09:14:00Z</time>
      </trkpt>
      <trkpt lat="43.5861" lon="3.74713">
        <ele>97.3</ele>
        <time>2019-09-08T09:14:14Z</time>
      </trkpt>
      <trkpt lat="43.5861" lon="3.74718">
        <ele>97.1</ele>
        <time>2019-09-08T09:14:15Z</time>
      </trkpt>
      <trkpt lat="43.58611" lon="3.74722">
        <ele>97</ele>
        <time>2019-09-08T09:14:16Z</time>
      </trkpt>
      <trkpt lat="43.58613" lon="3.74725">
        <ele>97</ele>
        <time>2019-09-08T09:14:17Z</time>
      </trkpt>
      <trkpt lat="43.58616" lon="3.74727">
        <ele>97</ele>
        <time>2019-09-08T09:14:18Z</time>
      </trkpt>
      <trkpt lat="43.58646" lon="3.74748">
        <ele>97.1</ele>
        <time>2019-09-08T09:14:26Z</time>
      </trkpt>
      <trkpt lat="43.58662" lon="3.74755">
        <ele>96.8</ele>
        <time>2019-09-08T09:14:30Z</time>
      </trkpt>
      <trkpt lat="43.58669" lon="3.74763">
        <ele>96.6</ele>
        <time>2019-09-08T09:14:32Z</time>
      </trkpt>
      <trkpt lat="43.58683" lon="3.74766">
        <ele>97</ele>
        <time>2019-09-08T09:14:36Z</time>
      </trkpt>
      <trkpt lat="43.58695" lon="3.7476">
        <ele>97.7</ele>
        <time>2019-09-08T09:14:40Z</time>
      </trkpt>
      <trkpt lat="43.58711" lon="3.74762">
        <ele>98.2</ele>
        <time>2019-09-08T09:14:45Z</time>
      </trkpt>
      <trkpt lat="43.5873" lon="3.74767">
        <ele>98.6</ele>
        <time>2019-09-08T09:14:50Z</time>
      </trkpt>
      <trkpt lat="43.58742" lon="3.74767">
        <ele>98.8</ele>
        <time>2019-09-08T09:14:53Z</time>
      </trkpt>
      <trkpt lat="43.58781" lon="3.74759">
        <ele>100</ele>
        <time>2019-09-08T09:15:05Z</time>
      </trkpt>
      <trkpt lat="43.588" lon="3.74744">
        <ele>100.3</ele>
        <time>2019-09-08T09:15:12Z</time>
      </trkpt>
      <trkpt lat="43.58814" lon="3.74753">
        <ele>99.6</ele>
        <time>2019-09-08T09:15:18Z</time>
      </trkpt>
      <trkpt lat="43.58819" lon="3.74772">
        <ele>99.1</ele>
        <time>2019-09-08T09:15:22Z</time>
      </trkpt>
      <trkpt lat="43.58823" lon="3.74811">
        <ele>97.1</ele>
        <time>2019-09-08T09:15:29Z</time>
      </trkpt>
      <trkpt lat="43.58812" lon="3.74843">
        <ele>95.3</ele>
        <time>2019-09-08T09:15:34Z</time>
      </trkpt>
      <trkpt lat="43.58807" lon="3.74857">
        <ele>94.3</ele>
        <time>2019-09-08T09:15:36Z</time>
      </trkpt>
      <trkpt lat="43.58791" lon="3.74902">
        <ele>92.1</ele>
        <time>2019-09-08T09:15:42Z</time>
      </trkpt>
      <trkpt lat="43.58777" lon="3.74914">
        <ele>91.2</ele>
        <time>2019-09-08T09:15:46Z</time>
      </trkpt>
      <trkpt lat="43.58776" lon="3.74932">
        <ele>89.9</ele>
        <time>2019-09-08T09:15:54Z</time>
      </trkpt>
      <trkpt lat="43.58777" lon="3.74953">
        <ele>88.7</ele>
        <time>2019-09-08T09:15:57Z</time>
      </trkpt>
      <trkpt lat="43.58764" lon="3.75021">
        <ele>83.2</ele>
        <time>2019-09-08T09:16:06Z</time>
      </trkpt>
      <trkpt lat="43.58772" lon="3.75046">
        <ele>80.2</ele>
        <time>2019-09-08T09:16:10Z</time>
      </trkpt>
      <trkpt lat="43.5879" lon="3.75087">
        <ele>74.7</ele>
        <time>2019-09-08T09:16:17Z</time>
      </trkpt>
      <trkpt lat="43.58789" lon="3.75119">
        <ele>72</ele>
        <time>2019-09-08T09:16:23Z</time>
      </trkpt>
      <trkpt lat="43.58779" lon="3.7513">
        <ele>71.6</ele>
        <time>2019-09-08T09:16:29Z</time>
      </trkpt>
      <trkpt lat="43.58767" lon="3.75116">
        <ele>74.3</ele>
        <time>2019-09-08T09:16:37Z</time>
      </trkpt>
      <trkpt lat="43.58741" lon="3.7513">
        <ele>77.3</ele>
        <time>2019-09-08T09:16:50Z</time>
      </trkpt>
      <trkpt lat="43.58718" lon="3.75105">
        <ele>80.6</ele>
        <time>2019-09-08T09:17:03Z</time>
      </trkpt>
      <trkpt lat="43.58713" lon="3.75068">
        <ele>81.8</ele>
        <time>2019-09-08T09:17:14Z</time>
      </trkpt>
      <trkpt lat="43.58693" lon="3.75036">
        <ele>84.1</ele>
        <time>2019-09-08T09:17:27Z</time>
      </trkpt>
      <trkpt lat="43.58663" lon="3.75031">
        <ele>86.4</ele>
        <time>2019-09-08T09:17:42Z</time>
      </trkpt>
      <trkpt lat="43.58655" lon="3.75027">
        <ele>87.3</ele>
        <time>2019-09-08T09:17:47Z</time>
      </trkpt>
      <trkpt lat="43.58655" lon="3.75011">
        <ele>87.3</ele>
        <time>2019-09-08T09:17:52Z</time>
      </trkpt>
      <trkpt lat="43.58654" lon="3.74992">
        <ele>87.4</ele>
        <time>2019-09-08T09:17:57Z</time>
      </trkpt>
      <trkpt lat="43.58633" lon="3.74975">
        <ele>89.4</ele>
        <time>2019-09-08T09:18:07Z</time>
      </trkpt>
      <trkpt lat="43.58609" lon="3.74961">
        <ele>91.2</ele>
        <time>2019-09-08T09:18:16Z</time>
      </trkpt>
      <trkpt lat="43.58601" lon="3.74932">
        <ele>91.6</ele>
        <time>2019-09-08T09:18:24Z</time>
      </trkpt>
      <trkpt lat="43.58595" lon="3.74929">
        <ele>91.8</ele>
        <time>2019-09-08T09:18:26Z</time>
      </trkpt>
      <trkpt lat="43.58586" lon="3.74924">
        <ele>92.1</ele>
        <time>2019-09-08T09:18:29Z</time>
      </trkpt>
      <trkpt lat="43.58592" lon="3.7489">
        <ele>91.7</ele>
        <time>2019-09-08T09:18:38Z</time>
      </trkpt>
      <trkpt lat="43.58596" lon="3.74883">
        <ele>91.6</ele>
        <time>2019-09-08T09:18:40Z</time>
      </trkpt>
      <trkpt lat="43.58597" lon="3.7487">
        <ele>91.8</ele>
        <time>2019-09-08T09:18:45Z</time>
      </trkpt>
      <trkpt lat="43.58569" lon="3.74835">
        <ele>93.5</ele>
        <time>2019-09-08T09:18:57Z</time>
      </trkpt>
      <trkpt lat="43.58581" lon="3.74785">
        <ele>94.8</ele>
        <time>2019-09-08T09:19:08Z</time>
      </trkpt>
      <trkpt lat="43.58579" lon="3.74781">
        <ele>94.9</ele>
        <time>2019-09-08T09:19:09Z</time>
      </trkpt>
      <trkpt lat="43.58574" lon="3.74773">
        <ele>95.2</ele>
        <time>2019-09-08T09:19:14Z</time>
      </trkpt>
      <trkpt lat="43.58575" lon="3.74771">
        <ele>95.2</ele>
        <time>2019-09-08T09:19:15Z</time>
      </trkpt>
      <trkpt lat="43.58577" lon="3.74768">
        <ele>95.4</ele>
        <time>2019-09-08T09:19:16Z</time>
      </trkpt>
      <trkpt lat="43.58579" lon="3.74765">
        <ele>95.5</ele>
        <time>2019-09-08T09:19:17Z</time>
      </trkpt>
      <trkpt lat="43.58581" lon="3.74758">
        <ele>95.7</ele>
        <time>2019-09-08T09:19:19Z</time>
      </trkpt>
      <trkpt lat="43.5858" lon="3.74755">
        <ele>95.8</ele>
        <time>2019-09-08T09:19:20Z</time>
      </trkpt>
      <trkpt lat="43.58554" lon="3.74723">
        <ele>97</ele>
        <time>2019-09-08T09:19:31Z</time>
      </trkpt>
      <trkpt lat="43.58518" lon="3.74723">
        <ele>97</ele>
        <time>2019-09-08T09:19:41Z</time>
      </trkpt>
      <trkpt lat="43.58493" lon="3.74707">
        <ele>97.5</ele>
        <time>2019-09-08T09:19:49Z</time>
      </trkpt>
      <trkpt lat="43.58451" lon="3.74705">
        <ele>96.9</ele>
        <time>2019-09-08T09:19:59Z</time>
      </trkpt>
      <trkpt lat="43.58442" lon="3.74706">
        <ele>96.4</ele>
        <time>2019-09-08T09:20:01Z</time>
      </trkpt>
      <trkpt lat="43.5843" lon="3.74707">
        <ele>95.7</ele>
        <time>2019-09-08T09:20:04Z</time>
      </trkpt>
      <trkpt lat="43.58422" lon="3.7471">
        <ele>95.3</ele>
        <time>2019-09-08T09:20:06Z</time>
      </trkpt>
      <trkpt lat="43.58398" lon="3.7471">
        <ele>92.3</ele>
        <time>2019-09-08T09:20:12Z</time>
      </trkpt>
      <trkpt lat="43.58391" lon="3.74706">
        <ele>91.3</ele>
        <time>2019-09-08T09:20:14Z</time>
      </trkpt>
      <trkpt lat="43.58366" lon="3.74719">
        <ele>86.9</ele>
        <time>2019-09-08T09:20:21Z</time>
      </trkpt>
      <trkpt lat="43.58345" lon="3.7475">
        <ele>84.5</ele>
        <time>2019-09-08T09:20:26Z</time>
      </trkpt>
      <trkpt lat="43.5834" lon="3.74756">
        <ele>83.8</ele>
        <time>2019-09-08T09:20:27Z</time>
      </trkpt>
      <trkpt lat="43.58323" lon="3.74769">
        <ele>81.6</ele>
        <time>2019-09-08T09:20:31Z</time>
      </trkpt>
      <trkpt lat="43.58299" lon="3.74739">
        <ele>75.2</ele>
        <time>2019-09-08T09:20:39Z</time>
      </trkpt>
      <trkpt lat="43.58301" lon="3.74712">
        <ele>73.1</ele>
        <time>2019-09-08T09:20:43Z</time>
      </trkpt>
      <trkpt lat="43.583" lon="3.747">
        <ele>72</ele>
        <time>2019-09-08T09:20:45Z</time>
      </trkpt>
      <trkpt lat="43.58294" lon="3.74682">
        <ele>69.6</ele>
        <time>2019-09-08T09:20:49Z</time>
      </trkpt>
      <trkpt lat="43.58288" lon="3.74675">
        <ele>68.1</ele>
        <time>2019-09-08T09:20:51Z</time>
      </trkpt>
      <trkpt lat="43.58278" lon="3.74667">
        <ele>66</ele>
        <time>2019-09-08T09:20:55Z</time>
      </trkpt>
      <trkpt lat="43.58271" lon="3.74669">
        <ele>67.4</ele>
        <time>2019-09-08T09:20:59Z</time>
      </trkpt>
      <trkpt lat="43.5826" lon="3.74682">
        <ele>69.1</ele>
        <time>2019-09-08T09:21:05Z</time>
      </trkpt>
      <trkpt lat="43.58259" lon="3.74704">
        <ele>68.2</ele>
        <time>2019-09-08T09:21:10Z</time>
      </trkpt>
      <trkpt lat="43.58242" lon="3.74756">
        <ele>66</ele>
        <time>2019-09-08T09:21:23Z</time>
      </trkpt>
      <trkpt lat="43.5823" lon="3.74806">
        <ele>66.1</ele>
        <time>2019-09-08T09:21:34Z</time>
      </trkpt>
      <trkpt lat="43.58219" lon="3.74846">
        <ele>63.7</ele>
        <time>2019-09-08T09:21:45Z</time>
      </trkpt>
      <trkpt lat="43.58213" lon="3.7485">
        <ele>64.3</ele>
        <time>2019-09-08T09:21:48Z</time>
      </trkpt>
      <trkpt lat="43.58211" lon="3.74854">
        <ele>64.2</ele>
        <time>2019-09-08T09:21:49Z</time>
      </trkpt>
      <trkpt lat="43.58209" lon="3.74859">
        <ele>64.1</ele>
        <time>2019-09-08T09:21:50Z</time>
      </trkpt>
      <trkpt lat="43.58204" lon="3.7487">
        <ele>63.9</ele>
        <time>2019-09-08T09:21:52Z</time>
      </trkpt>
      <trkpt lat="43.58202" lon="3.74877">
        <ele>63.3</ele>
        <time>2019-09-08T09:21:53Z</time>
      </trkpt>
      <trkpt lat="43.58192" lon="3.74899">
        <ele>60.8</ele>
        <time>2019-09-08T09:21:56Z</time>
      </trkpt>
      <trkpt lat="43.58158" lon="3.74986">
        <ele>58</ele>
        <time>2019-09-08T09:22:06Z</time>
      </trkpt>
      <trkpt lat="43.58153" lon="3.74994">
        <ele>57.9</ele>
        <time>2019-09-08T09:22:08Z</time>
      </trkpt>
      <trkpt lat="43.5815" lon="3.74995">
        <ele>57.7</ele>
        <time>2019-09-08T09:22:09Z</time>
      </trkpt>
      <trkpt lat="43.58144" lon="3.74994">
        <ele>57.3</ele>
        <time>2019-09-08T09:22:11Z</time>
      </trkpt>
      <trkpt lat="43.58132" lon="3.74992">
        <ele>57</ele>
        <time>2019-09-08T09:22:14Z</time>
      </trkpt>
      <trkpt lat="43.58127" lon="3.7499">
        <ele>57</ele>
        <time>2019-09-08T09:22:15Z</time>
      </trkpt>
      <trkpt lat="43.58123" lon="3.74989">
        <ele>57</ele>
        <time>2019-09-08T09:22:16Z</time>
      </trkpt>
      <trkpt lat="43.58114" lon="3.74985">
        <ele>57</ele>
        <time>2019-09-08T09:22:18Z</time>
      </trkpt>
      <trkpt lat="43.58111" lon="3.74982">
        <ele>57</ele>
        <time>2019-09-08T09:22:19Z</time>
      </trkpt>
      <trkpt lat="43.58108" lon="3.74978">
        <ele>56.8</ele>
        <time>2019-09-08T09:22:20Z</time>
      </trkpt>
      <trkpt lat="43.58098" lon="3.74963">
        <ele>55.7</ele>
        <time>2019-09-08T09:22:24Z</time>
      </trkpt>
      <trkpt lat="43.58094" lon="3.7496">
        <ele>55.4</ele>
        <time>2019-09-08T09:22:25Z</time>
      </trkpt>
      <trkpt lat="43.5809" lon="3.74955">
        <ele>55.2</ele>
        <time>2019-09-08T09:22:26Z</time>
      </trkpt>
      <trkpt lat="43.5807" lon="3.74933">
        <ele>55.2</ele>
        <time>2019-09-08T09:22:31Z</time>
      </trkpt>
      <trkpt lat="43.58065" lon="3.7493">
        <ele>55</ele>
        <time>2019-09-08T09:22:32Z</time>
      </trkpt>
      <trkpt lat="43.5805" lon="3.74927">
        <ele>54.2</ele>
        <time>2019-09-08T09:22:35Z</time>
      </trkpt>
      <trkpt lat="43.57993" lon="3.7495">
        <ele>52.9</ele>
        <time>2019-09-08T09:22:45Z</time>
      </trkpt>
      <trkpt lat="43.57987" lon="3.74953">
        <ele>52.8</ele>
        <time>2019-09-08T09:22:46Z</time>
      </trkpt>
      <trkpt lat="43.57982" lon="3.74956">
        <ele>52.8</ele>
        <time>2019-09-08T09:22:47Z</time>
      </trkpt>
      <trkpt lat="43.57897" lon="3.75013">
        <ele>50.4</ele>
        <time>2019-09-08T09:23:01Z</time>
      </trkpt>
      <trkpt lat="43.57888" lon="3.75026">
        <ele>49.9</ele>
        <time>2019-09-08T09:23:03Z</time>
      </trkpt>
      <trkpt lat="43.57874" lon="3.75047">
        <ele>49.3</ele>
        <time>2019-09-08T09:23:06Z</time>
      </trkpt>
      <trkpt lat="43.57869" lon="3.75053">
        <ele>49.2</ele>
        <time>2019-09-08T09:23:07Z</time>
      </trkpt>
      <trkpt lat="43.57865" lon="3.75061">
        <ele>49.1</ele>
        <time>2019-09-08T09:23:08Z</time>
      </trkpt>
      <trkpt lat="43.57858" lon="3.75076">
        <ele>48.9</ele>
        <time>2019-09-08T09:23:10Z</time>
      </trkpt>
      <trkpt lat="43.57853" lon="3.75083">
        <ele>48.7</ele>
        <time>2019-09-08T09:23:11Z</time>
      </trkpt>
      <trkpt lat="43.57807" lon="3.75152">
        <ele>47.1</ele>
        <time>2019-09-08T09:23:24Z</time>
      </trkpt>
      <trkpt lat="43.57785" lon="3.75198">
        <ele>45.6</ele>
        <time>2019-09-08T09:23:33Z</time>
      </trkpt>
      <trkpt lat="43.57775" lon="3.75228">
        <ele>44.7</ele>
        <time>2019-09-08T09:23:37Z</time>
      </trkpt>
      <trkpt lat="43.57757" lon="3.75267">
        <ele>43.8</ele>
        <time>2019-09-08T09:23:43Z</time>
      </trkpt>
      <trkpt lat="43.57737" lon="3.75283">
        <ele>43.9</ele>
        <time>2019-09-08T09:23:51Z</time>
      </trkpt>
      <trkpt lat="43.57737" lon="3.75286">
        <ele>43.9</ele>
        <time>2019-09-08T09:23:52Z</time>
      </trkpt>
      <trkpt lat="43.57739" lon="3.7529">
        <ele>43.8</ele>
        <time>2019-09-08T09:23:53Z</time>
      </trkpt>
      <trkpt lat="43.57761" lon="3.75334">
        <ele>44.4</ele>
        <time>2019-09-08T09:24:03Z</time>
      </trkpt>
      <trkpt lat="43.57765" lon="3.75338">
        <ele>44.4</ele>
        <time>2019-09-08T09:24:04Z</time>
      </trkpt>
      <trkpt lat="43.57775" lon="3.75348">
        <ele>44.4</ele>
        <time>2019-09-08T09:24:07Z</time>
      </trkpt>
      <trkpt lat="43.57777" lon="3.75353">
        <ele>44.3</ele>
        <time>2019-09-08T09:24:08Z</time>
      </trkpt>
      <trkpt lat="43.57779" lon="3.75359">
        <ele>44.1</ele>
        <time>2019-09-08T09:24:09Z</time>
      </trkpt>
      <trkpt lat="43.5778" lon="3.75365">
        <ele>44</ele>
        <time>2019-09-08T09:24:10Z</time>
      </trkpt>
      <trkpt lat="43.57781" lon="3.75372">
        <ele>44</ele>
        <time>2019-09-08T09:24:11Z</time>
      </trkpt>
      <trkpt lat="43.57785" lon="3.75391">
        <ele>44</ele>
        <time>2019-09-08T09:24:14Z</time>
      </trkpt>
      <trkpt lat="43.57788" lon="3.75398">
        <ele>44</ele>
        <time>2019-09-08T09:24:15Z</time>
      </trkpt>
      <trkpt lat="43.57837" lon="3.75535">
        <ele>45.1</ele>
        <time>2019-09-08T09:24:36Z</time>
      </trkpt>
      <trkpt lat="43.5785" lon="3.75586">
        <ele>45.6</ele>
        <time>2019-09-08T09:24:44Z</time>
      </trkpt>
      <trkpt lat="43.57852" lon="3.75591">
        <ele>45.8</ele>
        <time>2019-09-08T09:24:45Z</time>
      </trkpt>
      <trkpt lat="43.57862" lon="3.75601">
        <ele>46.1</ele>
        <time>2019-09-08T09:24:48Z</time>
      </trkpt>
      <trkpt lat="43.57874" lon="3.75643">
        <ele>46.9</ele>
        <time>2019-09-08T09:24:57Z</time>
      </trkpt>
      <trkpt lat="43.57874" lon="3.75653">
        <ele>46.9</ele>
        <time>2019-09-08T09:24:59Z</time>
      </trkpt>
      <trkpt lat="43.57879" lon="3.75672">
        <ele>46.8</ele>
        <time>2019-09-08T09:25:02Z</time>
      </trkpt>
      <trkpt lat="43.57905" lon="3.75793">
        <ele>44.5</ele>
        <time>2019-09-08T09:25:17Z</time>
      </trkpt>
      <trkpt lat="43.57924" lon="3.75862">
        <ele>41.3</ele>
        <time>2019-09-08T09:25:26Z</time>
      </trkpt>
      <trkpt lat="43.57928" lon="3.75869">
        <ele>41.4</ele>
        <time>2019-09-08T09:25:27Z</time>
      </trkpt>
      <trkpt lat="43.57932" lon="3.75875">
        <ele>41.6</ele>
        <time>2019-09-08T09:25:28Z</time>
      </trkpt>
      <trkpt lat="43.57936" lon="3.75881">
        <ele>41.7</ele>
        <time>2019-09-08T09:25:29Z</time>
      </trkpt>
      <trkpt lat="43.5794" lon="3.75886">
        <ele>41.8</ele>
        <time>2019-09-08T09:25:30Z</time>
      </trkpt>
      <trkpt lat="43.57984" lon="3.75953">
        <ele>43.1</ele>
        <time>2019-09-08T09:25:45Z</time>
      </trkpt>
      <trkpt lat="43.57969" lon="3.75985">
        <ele>42.4</ele>
        <time>2019-09-08T09:25:55Z</time>
      </trkpt>
      <trkpt lat="43.57976" lon="3.75991">
        <ele>42.9</ele>
        <time>2019-09-08T09:25:58Z</time>
      </trkpt>
      <trkpt lat="43.58017" lon="3.76025">
        <ele>44.5</ele>
        <time>2019-09-08T09:26:11Z</time>
      </trkpt>
      <trkpt lat="43.58072" lon="3.76071">
        <ele>44.3</ele>
        <time>2019-09-08T09:26:26Z</time>
      </trkpt>
      <trkpt lat="43.58119" lon="3.76112">
        <ele>44</ele>
        <time>2019-09-08T09:26:40Z</time>
      </trkpt>
      <trkpt lat="43.58133" lon="3.76125">
        <ele>44</ele>
        <time>2019-09-08T09:26:50Z</time>
      </trkpt>
    </trkseg>
  </trk>
</gpx>